<?xml version="1.0" encoding="UTF-8" standalone="no" ?>
<gpx xmlns="http://www.topografix.com/GPX/1/1" xmlns:xsi="http://www.w3.org/2001/XMLSchema-instance" xsi:schemaLocation="http://www.topografix.com/GPX/1/1 http://www.topografix.com/GPX/1/1/gpx.xsd" version="1.1" creator="VisuGPX - https://www.visugpx.com">
  <metadata>
    <name>13-D-Mimet</name>
    <desc><![CDATA[13-D-Mimet : le pilon du Roi
2023-10-15]]></desc>
  </metadata>
  <trk>
    <name><![CDATA[2023-10-15-D-Mimet]]></name>
    <extensions>
      <line xmlns="http://www.topografix.com/GPX/gpx_style/0/2">
        <width>4</width>
      </line>
    </extensions>
    <trkseg>
      <trkpt lat="43.41106" lon="5.49141">
        <ele>509.8</ele>
        <time>2023-10-15T07:32:51.000Z</time>
      </trkpt>
      <trkpt lat="43.41106" lon="5.49141">
        <ele>509.8</ele>
        <time>2023-10-15T07:32:52.000Z</time>
      </trkpt>
      <trkpt lat="43.41107" lon="5.49141">
        <ele>509.8</ele>
        <time>2023-10-15T07:32:57.000Z</time>
      </trkpt>
      <trkpt lat="43.41108" lon="5.49141">
        <ele>509.8</ele>
        <time>2023-10-15T07:33:03.000Z</time>
      </trkpt>
      <trkpt lat="43.41107" lon="5.49139">
        <ele>509.7</ele>
        <time>2023-10-15T07:33:24.000Z</time>
      </trkpt>
      <trkpt lat="43.41107" lon="5.49139">
        <ele>509.6</ele>
        <time>2023-10-15T07:33:28.000Z</time>
      </trkpt>
      <trkpt lat="43.41107" lon="5.49139">
        <ele>509.5</ele>
        <time>2023-10-15T07:33:34.000Z</time>
      </trkpt>
      <trkpt lat="43.41108" lon="5.49139">
        <ele>509.5</ele>
        <time>2023-10-15T07:33:36.000Z</time>
      </trkpt>
      <trkpt lat="43.41107" lon="5.49138">
        <ele>509.4</ele>
        <time>2023-10-15T07:33:41.000Z</time>
      </trkpt>
      <trkpt lat="43.41106" lon="5.49137">
        <ele>509.4</ele>
        <time>2023-10-15T07:33:42.000Z</time>
      </trkpt>
      <trkpt lat="43.41106" lon="5.4914">
        <ele>508.8</ele>
        <time>2023-10-15T07:33:48.000Z</time>
      </trkpt>
      <trkpt lat="43.41106" lon="5.49139">
        <ele>508.6</ele>
        <time>2023-10-15T07:33:49.000Z</time>
      </trkpt>
      <trkpt lat="43.41106" lon="5.49139">
        <ele>508.6</ele>
        <time>2023-10-15T07:33:50.000Z</time>
      </trkpt>
      <trkpt lat="43.41106" lon="5.49139">
        <ele>508.6</ele>
        <time>2023-10-15T07:33:50.000Z</time>
      </trkpt>
      <trkpt lat="43.41106" lon="5.4914">
        <ele>511.1</ele>
        <time>2023-10-15T07:33:52.000Z</time>
      </trkpt>
      <trkpt lat="43.41106" lon="5.49137">
        <ele>509.1</ele>
        <time>2023-10-15T07:34:19.000Z</time>
      </trkpt>
      <trkpt lat="43.41106" lon="5.49137">
        <ele>509.1</ele>
        <time>2023-10-15T07:34:20.000Z</time>
      </trkpt>
      <trkpt lat="43.41106" lon="5.49137">
        <ele>509</ele>
        <time>2023-10-15T07:34:21.000Z</time>
      </trkpt>
      <trkpt lat="43.41106" lon="5.49136">
        <ele>509</ele>
        <time>2023-10-15T07:34:22.000Z</time>
      </trkpt>
      <trkpt lat="43.41107" lon="5.49136">
        <ele>509</ele>
        <time>2023-10-15T07:34:25.000Z</time>
      </trkpt>
      <trkpt lat="43.41107" lon="5.49134">
        <ele>509</ele>
        <time>2023-10-15T07:34:27.000Z</time>
      </trkpt>
      <trkpt lat="43.41107" lon="5.49134">
        <ele>509</ele>
        <time>2023-10-15T07:34:28.000Z</time>
      </trkpt>
      <trkpt lat="43.41107" lon="5.49135">
        <ele>509</ele>
        <time>2023-10-15T07:34:29.000Z</time>
      </trkpt>
      <trkpt lat="43.41102" lon="5.49123">
        <ele>509.1</ele>
        <time>2023-10-15T07:34:45.000Z</time>
      </trkpt>
      <trkpt lat="43.411" lon="5.49117">
        <ele>509.2</ele>
        <time>2023-10-15T07:34:54.000Z</time>
      </trkpt>
      <trkpt lat="43.411" lon="5.49117">
        <ele>509.4</ele>
        <time>2023-10-15T07:35:32.000Z</time>
      </trkpt>
      <trkpt lat="43.41102" lon="5.4913">
        <ele>509.3</ele>
        <time>2023-10-15T07:35:48.000Z</time>
      </trkpt>
      <trkpt lat="43.41104" lon="5.49142">
        <ele>509.2</ele>
        <time>2023-10-15T07:36:01.000Z</time>
      </trkpt>
      <trkpt lat="43.41104" lon="5.49142">
        <ele>509.1</ele>
        <time>2023-10-15T07:36:02.000Z</time>
      </trkpt>
      <trkpt lat="43.41104" lon="5.49143">
        <ele>509.1</ele>
        <time>2023-10-15T07:36:03.000Z</time>
      </trkpt>
      <trkpt lat="43.41103" lon="5.49143">
        <ele>509.1</ele>
        <time>2023-10-15T07:36:05.000Z</time>
      </trkpt>
      <trkpt lat="43.41103" lon="5.49143">
        <ele>509.1</ele>
        <time>2023-10-15T07:36:06.000Z</time>
      </trkpt>
      <trkpt lat="43.41101" lon="5.4914">
        <ele>509</ele>
        <time>2023-10-15T07:36:13.000Z</time>
      </trkpt>
      <trkpt lat="43.411" lon="5.4914">
        <ele>509</ele>
        <time>2023-10-15T07:36:15.000Z</time>
      </trkpt>
      <trkpt lat="43.411" lon="5.49141">
        <ele>508.9</ele>
        <time>2023-10-15T07:36:17.000Z</time>
      </trkpt>
      <trkpt lat="43.411" lon="5.49141">
        <ele>508.9</ele>
        <time>2023-10-15T07:36:18.000Z</time>
      </trkpt>
      <trkpt lat="43.41101" lon="5.4914">
        <ele>508.5</ele>
        <time>2023-10-15T07:36:20.000Z</time>
      </trkpt>
      <trkpt lat="43.41101" lon="5.49139">
        <ele>508.4</ele>
        <time>2023-10-15T07:36:21.000Z</time>
      </trkpt>
      <trkpt lat="43.41102" lon="5.49138">
        <ele>508.7</ele>
        <time>2023-10-15T07:36:25.000Z</time>
      </trkpt>
      <trkpt lat="43.41101" lon="5.49138">
        <ele>508.8</ele>
        <time>2023-10-15T07:36:31.000Z</time>
      </trkpt>
      <trkpt lat="43.41105" lon="5.4914">
        <ele>508.5</ele>
        <time>2023-10-15T07:36:46.000Z</time>
      </trkpt>
      <trkpt lat="43.41105" lon="5.4914">
        <ele>508.5</ele>
        <time>2023-10-15T07:36:48.000Z</time>
      </trkpt>
      <trkpt lat="43.41111" lon="5.49138">
        <ele>508.1</ele>
        <time>2023-10-15T07:37:21.000Z</time>
      </trkpt>
      <trkpt lat="43.4111" lon="5.49138">
        <ele>508.1</ele>
        <time>2023-10-15T07:37:22.000Z</time>
      </trkpt>
      <trkpt lat="43.41101" lon="5.49137">
        <ele>508.2</ele>
        <time>2023-10-15T07:37:38.000Z</time>
      </trkpt>
      <trkpt lat="43.41105" lon="5.49137">
        <ele>508.3</ele>
        <time>2023-10-15T07:37:48.000Z</time>
      </trkpt>
      <trkpt lat="43.41105" lon="5.49138">
        <ele>508.3</ele>
        <time>2023-10-15T07:37:51.000Z</time>
      </trkpt>
      <trkpt lat="43.41104" lon="5.49138">
        <ele>508.3</ele>
        <time>2023-10-15T07:37:53.000Z</time>
      </trkpt>
      <trkpt lat="43.41105" lon="5.49138">
        <ele>508.3</ele>
        <time>2023-10-15T07:37:55.000Z</time>
      </trkpt>
      <trkpt lat="43.41103" lon="5.49138">
        <ele>508.3</ele>
        <time>2023-10-15T07:37:59.000Z</time>
      </trkpt>
      <trkpt lat="43.41103" lon="5.49137">
        <ele>508.3</ele>
        <time>2023-10-15T07:38:00.000Z</time>
      </trkpt>
      <trkpt lat="43.41102" lon="5.49137">
        <ele>508.3</ele>
        <time>2023-10-15T07:38:02.000Z</time>
      </trkpt>
      <trkpt lat="43.41103" lon="5.49137">
        <ele>508.3</ele>
        <time>2023-10-15T07:38:06.000Z</time>
      </trkpt>
      <trkpt lat="43.41104" lon="5.49137">
        <ele>508.4</ele>
        <time>2023-10-15T07:38:10.000Z</time>
      </trkpt>
      <trkpt lat="43.41104" lon="5.49137">
        <ele>508.4</ele>
        <time>2023-10-15T07:38:20.000Z</time>
      </trkpt>
      <trkpt lat="43.41101" lon="5.49124">
        <ele>508.4</ele>
        <time>2023-10-15T07:38:34.000Z</time>
      </trkpt>
      <trkpt lat="43.41094" lon="5.49115">
        <ele>508.6</ele>
        <time>2023-10-15T07:38:42.000Z</time>
      </trkpt>
      <trkpt lat="43.41087" lon="5.49106">
        <ele>508.9</ele>
        <time>2023-10-15T07:38:50.000Z</time>
      </trkpt>
      <trkpt lat="43.41081" lon="5.49096">
        <ele>509.6</ele>
        <time>2023-10-15T07:38:59.000Z</time>
      </trkpt>
      <trkpt lat="43.41074" lon="5.49087">
        <ele>510.2</ele>
        <time>2023-10-15T07:39:07.000Z</time>
      </trkpt>
      <trkpt lat="43.41068" lon="5.49076">
        <ele>511</ele>
        <time>2023-10-15T07:39:16.000Z</time>
      </trkpt>
      <trkpt lat="43.41062" lon="5.49065">
        <ele>511.7</ele>
        <time>2023-10-15T07:39:26.000Z</time>
      </trkpt>
      <trkpt lat="43.41055" lon="5.49056">
        <ele>512.5</ele>
        <time>2023-10-15T07:39:35.000Z</time>
      </trkpt>
      <trkpt lat="43.41049" lon="5.49046">
        <ele>513.9</ele>
        <time>2023-10-15T07:39:46.000Z</time>
      </trkpt>
      <trkpt lat="43.41047" lon="5.49044">
        <ele>514.4</ele>
        <time>2023-10-15T07:39:50.000Z</time>
      </trkpt>
      <trkpt lat="43.41047" lon="5.49043">
        <ele>514.9</ele>
        <time>2023-10-15T07:39:57.000Z</time>
      </trkpt>
      <trkpt lat="43.41046" lon="5.49042">
        <ele>515</ele>
        <time>2023-10-15T07:39:59.000Z</time>
      </trkpt>
      <trkpt lat="43.41046" lon="5.49042">
        <ele>515.1</ele>
        <time>2023-10-15T07:40:04.000Z</time>
      </trkpt>
      <trkpt lat="43.41038" lon="5.49034">
        <ele>515.8</ele>
        <time>2023-10-15T07:40:19.000Z</time>
      </trkpt>
      <trkpt lat="43.41029" lon="5.49029">
        <ele>516.4</ele>
        <time>2023-10-15T07:40:27.000Z</time>
      </trkpt>
      <trkpt lat="43.41026" lon="5.49041">
        <ele>517.6</ele>
        <time>2023-10-15T07:40:40.000Z</time>
      </trkpt>
      <trkpt lat="43.4103" lon="5.49054">
        <ele>518.3</ele>
        <time>2023-10-15T07:40:48.000Z</time>
      </trkpt>
      <trkpt lat="43.41035" lon="5.49064">
        <ele>519.4</ele>
        <time>2023-10-15T07:40:58.000Z</time>
      </trkpt>
      <trkpt lat="43.41038" lon="5.49076">
        <ele>520.7</ele>
        <time>2023-10-15T07:41:07.000Z</time>
      </trkpt>
      <trkpt lat="43.41041" lon="5.49089">
        <ele>521.8</ele>
        <time>2023-10-15T07:41:16.000Z</time>
      </trkpt>
      <trkpt lat="43.41043" lon="5.49102">
        <ele>523</ele>
        <time>2023-10-15T07:41:26.000Z</time>
      </trkpt>
      <trkpt lat="43.41041" lon="5.49116">
        <ele>524.8</ele>
        <time>2023-10-15T07:41:37.000Z</time>
      </trkpt>
      <trkpt lat="43.41043" lon="5.49128">
        <ele>525.8</ele>
        <time>2023-10-15T07:41:46.000Z</time>
      </trkpt>
      <trkpt lat="43.41043" lon="5.49142">
        <ele>526.8</ele>
        <time>2023-10-15T07:41:56.000Z</time>
      </trkpt>
      <trkpt lat="43.41043" lon="5.49156">
        <ele>527.9</ele>
        <time>2023-10-15T07:42:08.000Z</time>
      </trkpt>
      <trkpt lat="43.41043" lon="5.49168">
        <ele>528.9</ele>
        <time>2023-10-15T07:42:19.000Z</time>
      </trkpt>
      <trkpt lat="43.41045" lon="5.49181">
        <ele>530.2</ele>
        <time>2023-10-15T07:42:28.000Z</time>
      </trkpt>
      <trkpt lat="43.41045" lon="5.49194">
        <ele>531.1</ele>
        <time>2023-10-15T07:42:38.000Z</time>
      </trkpt>
      <trkpt lat="43.41046" lon="5.49207">
        <ele>531.9</ele>
        <time>2023-10-15T07:42:46.000Z</time>
      </trkpt>
      <trkpt lat="43.41046" lon="5.4922">
        <ele>533.4</ele>
        <time>2023-10-15T07:43:00.000Z</time>
      </trkpt>
      <trkpt lat="43.41046" lon="5.49234">
        <ele>534.8</ele>
        <time>2023-10-15T07:43:13.000Z</time>
      </trkpt>
      <trkpt lat="43.41042" lon="5.49246">
        <ele>536.6</ele>
        <time>2023-10-15T07:43:25.000Z</time>
      </trkpt>
      <trkpt lat="43.41038" lon="5.49257">
        <ele>537.6</ele>
        <time>2023-10-15T07:43:36.000Z</time>
      </trkpt>
      <trkpt lat="43.41033" lon="5.49268">
        <ele>539.1</ele>
        <time>2023-10-15T07:43:48.000Z</time>
      </trkpt>
      <trkpt lat="43.41031" lon="5.49281">
        <ele>540.3</ele>
        <time>2023-10-15T07:43:59.000Z</time>
      </trkpt>
      <trkpt lat="43.41031" lon="5.49294">
        <ele>540.9</ele>
        <time>2023-10-15T07:44:08.000Z</time>
      </trkpt>
      <trkpt lat="43.41032" lon="5.49307">
        <ele>541.3</ele>
        <time>2023-10-15T07:44:15.000Z</time>
      </trkpt>
      <trkpt lat="43.41032" lon="5.49321">
        <ele>541.9</ele>
        <time>2023-10-15T07:44:25.000Z</time>
      </trkpt>
      <trkpt lat="43.41029" lon="5.49333">
        <ele>542.6</ele>
        <time>2023-10-15T07:44:34.000Z</time>
      </trkpt>
      <trkpt lat="43.41026" lon="5.49345">
        <ele>543</ele>
        <time>2023-10-15T07:44:43.000Z</time>
      </trkpt>
      <trkpt lat="43.41022" lon="5.49356">
        <ele>543.4</ele>
        <time>2023-10-15T07:44:52.000Z</time>
      </trkpt>
      <trkpt lat="43.41017" lon="5.49367">
        <ele>544.1</ele>
        <time>2023-10-15T07:45:02.000Z</time>
      </trkpt>
      <trkpt lat="43.4101" lon="5.49376">
        <ele>545</ele>
        <time>2023-10-15T07:45:12.000Z</time>
      </trkpt>
      <trkpt lat="43.41007" lon="5.49388">
        <ele>545.8</ele>
        <time>2023-10-15T07:45:21.000Z</time>
      </trkpt>
      <trkpt lat="43.41002" lon="5.49398">
        <ele>546.6</ele>
        <time>2023-10-15T07:45:30.000Z</time>
      </trkpt>
      <trkpt lat="43.40995" lon="5.49407">
        <ele>548.1</ele>
        <time>2023-10-15T07:45:41.000Z</time>
      </trkpt>
      <trkpt lat="43.40988" lon="5.49417">
        <ele>549</ele>
        <time>2023-10-15T07:45:50.000Z</time>
      </trkpt>
      <trkpt lat="43.40982" lon="5.49427">
        <ele>549.9</ele>
        <time>2023-10-15T07:45:58.000Z</time>
      </trkpt>
      <trkpt lat="43.40976" lon="5.49436">
        <ele>551.6</ele>
        <time>2023-10-15T07:46:08.000Z</time>
      </trkpt>
      <trkpt lat="43.40971" lon="5.49447">
        <ele>552.5</ele>
        <time>2023-10-15T07:46:16.000Z</time>
      </trkpt>
      <trkpt lat="43.40968" lon="5.4946">
        <ele>553</ele>
        <time>2023-10-15T07:46:25.000Z</time>
      </trkpt>
      <trkpt lat="43.40969" lon="5.49472">
        <ele>553.9</ele>
        <time>2023-10-15T07:46:35.000Z</time>
      </trkpt>
      <trkpt lat="43.40967" lon="5.49486">
        <ele>555</ele>
        <time>2023-10-15T07:46:44.000Z</time>
      </trkpt>
      <trkpt lat="43.4096" lon="5.49495">
        <ele>555.7</ele>
        <time>2023-10-15T07:46:53.000Z</time>
      </trkpt>
      <trkpt lat="43.40953" lon="5.49504">
        <ele>556.5</ele>
        <time>2023-10-15T07:47:02.000Z</time>
      </trkpt>
      <trkpt lat="43.40946" lon="5.49513">
        <ele>556.9</ele>
        <time>2023-10-15T07:47:10.000Z</time>
      </trkpt>
      <trkpt lat="43.4094" lon="5.49522">
        <ele>557.6</ele>
        <time>2023-10-15T07:47:19.000Z</time>
      </trkpt>
      <trkpt lat="43.40932" lon="5.49527">
        <ele>558.4</ele>
        <time>2023-10-15T07:47:27.000Z</time>
      </trkpt>
      <trkpt lat="43.40926" lon="5.49536">
        <ele>559</ele>
        <time>2023-10-15T07:47:35.000Z</time>
      </trkpt>
      <trkpt lat="43.40924" lon="5.49549">
        <ele>559.9</ele>
        <time>2023-10-15T07:47:46.000Z</time>
      </trkpt>
      <trkpt lat="43.40923" lon="5.49563">
        <ele>560.2</ele>
        <time>2023-10-15T07:47:54.000Z</time>
      </trkpt>
      <trkpt lat="43.40924" lon="5.49576">
        <ele>560.3</ele>
        <time>2023-10-15T07:48:01.000Z</time>
      </trkpt>
      <trkpt lat="43.40923" lon="5.49588">
        <ele>560.3</ele>
        <time>2023-10-15T07:48:08.000Z</time>
      </trkpt>
      <trkpt lat="43.40919" lon="5.49601">
        <ele>560.1</ele>
        <time>2023-10-15T07:48:17.000Z</time>
      </trkpt>
      <trkpt lat="43.40915" lon="5.49612">
        <ele>560</ele>
        <time>2023-10-15T07:48:24.000Z</time>
      </trkpt>
      <trkpt lat="43.40912" lon="5.49625">
        <ele>559.8</ele>
        <time>2023-10-15T07:48:33.000Z</time>
      </trkpt>
      <trkpt lat="43.40905" lon="5.49636">
        <ele>559.6</ele>
        <time>2023-10-15T07:48:42.000Z</time>
      </trkpt>
      <trkpt lat="43.40901" lon="5.49647">
        <ele>559.5</ele>
        <time>2023-10-15T07:48:49.000Z</time>
      </trkpt>
      <trkpt lat="43.40893" lon="5.49655">
        <ele>559.5</ele>
        <time>2023-10-15T07:48:57.000Z</time>
      </trkpt>
      <trkpt lat="43.40886" lon="5.49662">
        <ele>559.7</ele>
        <time>2023-10-15T07:49:06.000Z</time>
      </trkpt>
      <trkpt lat="43.40876" lon="5.49664">
        <ele>559.7</ele>
        <time>2023-10-15T07:49:14.000Z</time>
      </trkpt>
      <trkpt lat="43.40869" lon="5.49671">
        <ele>559.7</ele>
        <time>2023-10-15T07:49:21.000Z</time>
      </trkpt>
      <trkpt lat="43.40868" lon="5.49684">
        <ele>559.7</ele>
        <time>2023-10-15T07:49:28.000Z</time>
      </trkpt>
      <trkpt lat="43.40867" lon="5.49697">
        <ele>559.6</ele>
        <time>2023-10-15T07:49:36.000Z</time>
      </trkpt>
      <trkpt lat="43.40864" lon="5.49709">
        <ele>559.5</ele>
        <time>2023-10-15T07:49:44.000Z</time>
      </trkpt>
      <trkpt lat="43.40865" lon="5.49723">
        <ele>559.3</ele>
        <time>2023-10-15T07:49:52.000Z</time>
      </trkpt>
      <trkpt lat="43.40864" lon="5.49736">
        <ele>558.6</ele>
        <time>2023-10-15T07:49:59.000Z</time>
      </trkpt>
      <trkpt lat="43.40867" lon="5.4975">
        <ele>557.6</ele>
        <time>2023-10-15T07:50:06.000Z</time>
      </trkpt>
      <trkpt lat="43.40868" lon="5.49763">
        <ele>556.7</ele>
        <time>2023-10-15T07:50:13.000Z</time>
      </trkpt>
      <trkpt lat="43.40861" lon="5.49773">
        <ele>555.8</ele>
        <time>2023-10-15T07:50:20.000Z</time>
      </trkpt>
      <trkpt lat="43.40853" lon="5.4978">
        <ele>555.2</ele>
        <time>2023-10-15T07:50:28.000Z</time>
      </trkpt>
      <trkpt lat="43.40845" lon="5.49787">
        <ele>554.7</ele>
        <time>2023-10-15T07:50:35.000Z</time>
      </trkpt>
      <trkpt lat="43.4084" lon="5.49799">
        <ele>554.4</ele>
        <time>2023-10-15T07:50:43.000Z</time>
      </trkpt>
      <trkpt lat="43.40843" lon="5.49811">
        <ele>554.1</ele>
        <time>2023-10-15T07:50:50.000Z</time>
      </trkpt>
      <trkpt lat="43.40847" lon="5.49823">
        <ele>554</ele>
        <time>2023-10-15T07:50:58.000Z</time>
      </trkpt>
      <trkpt lat="43.40848" lon="5.49824">
        <ele>553.9</ele>
        <time>2023-10-15T07:51:01.000Z</time>
      </trkpt>
      <trkpt lat="43.40848" lon="5.49825">
        <ele>553.9</ele>
        <time>2023-10-15T07:51:03.000Z</time>
      </trkpt>
      <trkpt lat="43.40852" lon="5.49836">
        <ele>553.8</ele>
        <time>2023-10-15T07:51:11.000Z</time>
      </trkpt>
      <trkpt lat="43.40856" lon="5.49849">
        <ele>553.8</ele>
        <time>2023-10-15T07:51:20.000Z</time>
      </trkpt>
      <trkpt lat="43.40859" lon="5.49861">
        <ele>553.9</ele>
        <time>2023-10-15T07:51:29.000Z</time>
      </trkpt>
      <trkpt lat="43.4086" lon="5.49862">
        <ele>553.9</ele>
        <time>2023-10-15T07:51:33.000Z</time>
      </trkpt>
      <trkpt lat="43.40861" lon="5.49862">
        <ele>554</ele>
        <time>2023-10-15T07:51:40.000Z</time>
      </trkpt>
      <trkpt lat="43.40861" lon="5.49862">
        <ele>554</ele>
        <time>2023-10-15T07:51:43.000Z</time>
      </trkpt>
      <trkpt lat="43.40861" lon="5.49862">
        <ele>554</ele>
        <time>2023-10-15T07:51:46.000Z</time>
      </trkpt>
      <trkpt lat="43.40861" lon="5.49862">
        <ele>554</ele>
        <time>2023-10-15T07:51:50.000Z</time>
      </trkpt>
      <trkpt lat="43.40861" lon="5.49862">
        <ele>554</ele>
        <time>2023-10-15T07:51:51.000Z</time>
      </trkpt>
      <trkpt lat="43.40861" lon="5.49862">
        <ele>554</ele>
        <time>2023-10-15T07:51:52.000Z</time>
      </trkpt>
      <trkpt lat="43.40862" lon="5.49862">
        <ele>554</ele>
        <time>2023-10-15T07:52:01.000Z</time>
      </trkpt>
      <trkpt lat="43.40862" lon="5.49862">
        <ele>554</ele>
        <time>2023-10-15T07:52:03.000Z</time>
      </trkpt>
      <trkpt lat="43.40862" lon="5.49862">
        <ele>554</ele>
        <time>2023-10-15T07:53:30.000Z</time>
      </trkpt>
      <trkpt lat="43.40862" lon="5.49862">
        <ele>554</ele>
        <time>2023-10-15T07:53:31.000Z</time>
      </trkpt>
      <trkpt lat="43.40862" lon="5.49862">
        <ele>554.1</ele>
        <time>2023-10-15T07:54:14.000Z</time>
      </trkpt>
      <trkpt lat="43.40862" lon="5.49862">
        <ele>554.1</ele>
        <time>2023-10-15T07:54:15.000Z</time>
      </trkpt>
      <trkpt lat="43.40862" lon="5.49862">
        <ele>554.1</ele>
        <time>2023-10-15T07:54:17.000Z</time>
      </trkpt>
      <trkpt lat="43.40862" lon="5.49862">
        <ele>554.1</ele>
        <time>2023-10-15T07:54:22.000Z</time>
      </trkpt>
      <trkpt lat="43.40862" lon="5.49862">
        <ele>554.1</ele>
        <time>2023-10-15T07:54:30.000Z</time>
      </trkpt>
      <trkpt lat="43.40862" lon="5.49862">
        <ele>554.1</ele>
        <time>2023-10-15T07:54:31.000Z</time>
      </trkpt>
      <trkpt lat="43.40862" lon="5.49863">
        <ele>554.2</ele>
        <time>2023-10-15T07:54:40.000Z</time>
      </trkpt>
      <trkpt lat="43.40862" lon="5.49863">
        <ele>554.2</ele>
        <time>2023-10-15T07:54:41.000Z</time>
      </trkpt>
      <trkpt lat="43.40862" lon="5.49863">
        <ele>554.2</ele>
        <time>2023-10-15T07:54:46.000Z</time>
      </trkpt>
      <trkpt lat="43.40862" lon="5.49863">
        <ele>554.2</ele>
        <time>2023-10-15T07:54:47.000Z</time>
      </trkpt>
      <trkpt lat="43.40862" lon="5.49863">
        <ele>554.2</ele>
        <time>2023-10-15T07:55:15.000Z</time>
      </trkpt>
      <trkpt lat="43.40862" lon="5.49863">
        <ele>554.2</ele>
        <time>2023-10-15T07:55:16.000Z</time>
      </trkpt>
      <trkpt lat="43.40863" lon="5.49863">
        <ele>554.2</ele>
        <time>2023-10-15T07:55:20.000Z</time>
      </trkpt>
      <trkpt lat="43.40854" lon="5.49865">
        <ele>554.3</ele>
        <time>2023-10-15T07:55:34.000Z</time>
      </trkpt>
      <trkpt lat="43.40855" lon="5.49867">
        <ele>554.3</ele>
        <time>2023-10-15T07:55:39.000Z</time>
      </trkpt>
      <trkpt lat="43.40855" lon="5.49867">
        <ele>554.3</ele>
        <time>2023-10-15T07:55:42.000Z</time>
      </trkpt>
      <trkpt lat="43.40855" lon="5.49867">
        <ele>554.3</ele>
        <time>2023-10-15T07:55:43.000Z</time>
      </trkpt>
      <trkpt lat="43.40855" lon="5.49867">
        <ele>554.3</ele>
        <time>2023-10-15T07:55:44.000Z</time>
      </trkpt>
      <trkpt lat="43.40859" lon="5.49865">
        <ele>554.3</ele>
        <time>2023-10-15T07:55:50.000Z</time>
      </trkpt>
      <trkpt lat="43.40859" lon="5.49865">
        <ele>554.3</ele>
        <time>2023-10-15T07:55:52.000Z</time>
      </trkpt>
      <trkpt lat="43.4085" lon="5.49867">
        <ele>554.4</ele>
        <time>2023-10-15T07:56:00.000Z</time>
      </trkpt>
      <trkpt lat="43.40841" lon="5.49873">
        <ele>554.4</ele>
        <time>2023-10-15T07:56:08.000Z</time>
      </trkpt>
      <trkpt lat="43.40832" lon="5.4988">
        <ele>554.4</ele>
        <time>2023-10-15T07:56:16.000Z</time>
      </trkpt>
      <trkpt lat="43.4083" lon="5.49892">
        <ele>554.5</ele>
        <time>2023-10-15T07:56:23.000Z</time>
      </trkpt>
      <trkpt lat="43.40834" lon="5.49904">
        <ele>554.5</ele>
        <time>2023-10-15T07:56:30.000Z</time>
      </trkpt>
      <trkpt lat="43.40838" lon="5.49916">
        <ele>554.5</ele>
        <time>2023-10-15T07:56:38.000Z</time>
      </trkpt>
      <trkpt lat="43.40842" lon="5.49928">
        <ele>554.5</ele>
        <time>2023-10-15T07:56:46.000Z</time>
      </trkpt>
      <trkpt lat="43.40845" lon="5.49941">
        <ele>554.5</ele>
        <time>2023-10-15T07:56:55.000Z</time>
      </trkpt>
      <trkpt lat="43.40842" lon="5.49954">
        <ele>554.6</ele>
        <time>2023-10-15T07:57:05.000Z</time>
      </trkpt>
      <trkpt lat="43.40834" lon="5.49962">
        <ele>554.6</ele>
        <time>2023-10-15T07:57:14.000Z</time>
      </trkpt>
      <trkpt lat="43.40825" lon="5.49967">
        <ele>554.7</ele>
        <time>2023-10-15T07:57:24.000Z</time>
      </trkpt>
      <trkpt lat="43.40818" lon="5.49975">
        <ele>554.7</ele>
        <time>2023-10-15T07:57:33.000Z</time>
      </trkpt>
      <trkpt lat="43.40808" lon="5.4998">
        <ele>554.7</ele>
        <time>2023-10-15T07:57:42.000Z</time>
      </trkpt>
      <trkpt lat="43.408" lon="5.49984">
        <ele>554.8</ele>
        <time>2023-10-15T07:57:49.000Z</time>
      </trkpt>
      <trkpt lat="43.40792" lon="5.4999">
        <ele>554.8</ele>
        <time>2023-10-15T07:57:57.000Z</time>
      </trkpt>
      <trkpt lat="43.40784" lon="5.49996">
        <ele>554.9</ele>
        <time>2023-10-15T07:58:04.000Z</time>
      </trkpt>
      <trkpt lat="43.40777" lon="5.50004">
        <ele>555</ele>
        <time>2023-10-15T07:58:12.000Z</time>
      </trkpt>
      <trkpt lat="43.40768" lon="5.50009">
        <ele>555</ele>
        <time>2023-10-15T07:58:20.000Z</time>
      </trkpt>
      <trkpt lat="43.4076" lon="5.50016">
        <ele>555.1</ele>
        <time>2023-10-15T07:58:30.000Z</time>
      </trkpt>
      <trkpt lat="43.40751" lon="5.50021">
        <ele>555.3</ele>
        <time>2023-10-15T07:58:39.000Z</time>
      </trkpt>
      <trkpt lat="43.40742" lon="5.50023">
        <ele>555.4</ele>
        <time>2023-10-15T07:58:45.000Z</time>
      </trkpt>
      <trkpt lat="43.40733" lon="5.50029">
        <ele>555.7</ele>
        <time>2023-10-15T07:58:53.000Z</time>
      </trkpt>
      <trkpt lat="43.40725" lon="5.50037">
        <ele>556</ele>
        <time>2023-10-15T07:59:01.000Z</time>
      </trkpt>
      <trkpt lat="43.40717" lon="5.50042">
        <ele>556.5</ele>
        <time>2023-10-15T07:59:08.000Z</time>
      </trkpt>
      <trkpt lat="43.40712" lon="5.50053">
        <ele>557</ele>
        <time>2023-10-15T07:59:15.000Z</time>
      </trkpt>
      <trkpt lat="43.4071" lon="5.50065">
        <ele>557.6</ele>
        <time>2023-10-15T07:59:21.000Z</time>
      </trkpt>
      <trkpt lat="43.40712" lon="5.50073">
        <ele>558.1</ele>
        <time>2023-10-15T07:59:29.000Z</time>
      </trkpt>
      <trkpt lat="43.40712" lon="5.50073">
        <ele>558.2</ele>
        <time>2023-10-15T07:59:30.000Z</time>
      </trkpt>
      <trkpt lat="43.40712" lon="5.50074">
        <ele>558.2</ele>
        <time>2023-10-15T07:59:31.000Z</time>
      </trkpt>
      <trkpt lat="43.40711" lon="5.50074">
        <ele>558.2</ele>
        <time>2023-10-15T07:59:32.000Z</time>
      </trkpt>
      <trkpt lat="43.40712" lon="5.50088">
        <ele>558.6</ele>
        <time>2023-10-15T07:59:40.000Z</time>
      </trkpt>
      <trkpt lat="43.40713" lon="5.501">
        <ele>559</ele>
        <time>2023-10-15T07:59:47.000Z</time>
      </trkpt>
      <trkpt lat="43.40711" lon="5.50112">
        <ele>559.4</ele>
        <time>2023-10-15T07:59:54.000Z</time>
      </trkpt>
      <trkpt lat="43.4071" lon="5.50125">
        <ele>559.6</ele>
        <time>2023-10-15T08:00:01.000Z</time>
      </trkpt>
      <trkpt lat="43.40712" lon="5.50139">
        <ele>559.9</ele>
        <time>2023-10-15T08:00:09.000Z</time>
      </trkpt>
      <trkpt lat="43.40714" lon="5.50152">
        <ele>560.3</ele>
        <time>2023-10-15T08:00:17.000Z</time>
      </trkpt>
      <trkpt lat="43.40713" lon="5.5016">
        <ele>560.3</ele>
        <time>2023-10-15T08:00:25.000Z</time>
      </trkpt>
      <trkpt lat="43.40713" lon="5.5016">
        <ele>560.3</ele>
        <time>2023-10-15T08:00:26.000Z</time>
      </trkpt>
      <trkpt lat="43.40717" lon="5.5016">
        <ele>560.3</ele>
        <time>2023-10-15T08:00:37.000Z</time>
      </trkpt>
      <trkpt lat="43.40717" lon="5.5016">
        <ele>560.3</ele>
        <time>2023-10-15T08:00:42.000Z</time>
      </trkpt>
      <trkpt lat="43.40709" lon="5.50168">
        <ele>560.3</ele>
        <time>2023-10-15T08:00:52.000Z</time>
      </trkpt>
      <trkpt lat="43.40704" lon="5.5018">
        <ele>560.3</ele>
        <time>2023-10-15T08:01:01.000Z</time>
      </trkpt>
      <trkpt lat="43.40698" lon="5.50192">
        <ele>560.4</ele>
        <time>2023-10-15T08:01:09.000Z</time>
      </trkpt>
      <trkpt lat="43.40696" lon="5.50204">
        <ele>560.6</ele>
        <time>2023-10-15T08:01:17.000Z</time>
      </trkpt>
      <trkpt lat="43.40692" lon="5.50218">
        <ele>560.9</ele>
        <time>2023-10-15T08:01:28.000Z</time>
      </trkpt>
      <trkpt lat="43.40689" lon="5.50229">
        <ele>561</ele>
        <time>2023-10-15T08:01:37.000Z</time>
      </trkpt>
      <trkpt lat="43.40686" lon="5.50242">
        <ele>561.1</ele>
        <time>2023-10-15T08:01:46.000Z</time>
      </trkpt>
      <trkpt lat="43.40682" lon="5.50254">
        <ele>561.1</ele>
        <time>2023-10-15T08:01:53.000Z</time>
      </trkpt>
      <trkpt lat="43.40682" lon="5.50267">
        <ele>561</ele>
        <time>2023-10-15T08:01:59.000Z</time>
      </trkpt>
      <trkpt lat="43.40683" lon="5.50279">
        <ele>561</ele>
        <time>2023-10-15T08:02:06.000Z</time>
      </trkpt>
      <trkpt lat="43.40683" lon="5.50292">
        <ele>561.3</ele>
        <time>2023-10-15T08:02:14.000Z</time>
      </trkpt>
      <trkpt lat="43.4068" lon="5.50304">
        <ele>561.9</ele>
        <time>2023-10-15T08:02:21.000Z</time>
      </trkpt>
      <trkpt lat="43.40678" lon="5.50317">
        <ele>562.8</ele>
        <time>2023-10-15T08:02:30.000Z</time>
      </trkpt>
      <trkpt lat="43.40678" lon="5.5033">
        <ele>564.1</ele>
        <time>2023-10-15T08:02:41.000Z</time>
      </trkpt>
      <trkpt lat="43.40677" lon="5.50343">
        <ele>565.4</ele>
        <time>2023-10-15T08:02:50.000Z</time>
      </trkpt>
      <trkpt lat="43.40671" lon="5.50353">
        <ele>566.9</ele>
        <time>2023-10-15T08:03:00.000Z</time>
      </trkpt>
      <trkpt lat="43.40662" lon="5.50359">
        <ele>568.3</ele>
        <time>2023-10-15T08:03:10.000Z</time>
      </trkpt>
      <trkpt lat="43.40656" lon="5.50368">
        <ele>569.7</ele>
        <time>2023-10-15T08:03:20.000Z</time>
      </trkpt>
      <trkpt lat="43.40651" lon="5.50379">
        <ele>571.6</ele>
        <time>2023-10-15T08:03:30.000Z</time>
      </trkpt>
      <trkpt lat="43.40653" lon="5.50391">
        <ele>573.3</ele>
        <time>2023-10-15T08:03:41.000Z</time>
      </trkpt>
      <trkpt lat="43.40658" lon="5.50402">
        <ele>574.4</ele>
        <time>2023-10-15T08:03:49.000Z</time>
      </trkpt>
      <trkpt lat="43.4066" lon="5.50406">
        <ele>575</ele>
        <time>2023-10-15T08:03:53.000Z</time>
      </trkpt>
      <trkpt lat="43.40661" lon="5.50406">
        <ele>575.3</ele>
        <time>2023-10-15T08:03:55.000Z</time>
      </trkpt>
      <trkpt lat="43.40666" lon="5.50415">
        <ele>576.8</ele>
        <time>2023-10-15T08:04:10.000Z</time>
      </trkpt>
      <trkpt lat="43.40666" lon="5.50415">
        <ele>577</ele>
        <time>2023-10-15T08:04:16.000Z</time>
      </trkpt>
      <trkpt lat="43.40668" lon="5.50417">
        <ele>577.2</ele>
        <time>2023-10-15T08:04:24.000Z</time>
      </trkpt>
      <trkpt lat="43.40668" lon="5.50417">
        <ele>577.3</ele>
        <time>2023-10-15T08:04:32.000Z</time>
      </trkpt>
      <trkpt lat="43.40666" lon="5.5043">
        <ele>577.6</ele>
        <time>2023-10-15T08:04:43.000Z</time>
      </trkpt>
      <trkpt lat="43.40664" lon="5.50442">
        <ele>578.5</ele>
        <time>2023-10-15T08:04:52.000Z</time>
      </trkpt>
      <trkpt lat="43.40664" lon="5.50456">
        <ele>579.7</ele>
        <time>2023-10-15T08:05:01.000Z</time>
      </trkpt>
      <trkpt lat="43.40666" lon="5.50469">
        <ele>580.8</ele>
        <time>2023-10-15T08:05:10.000Z</time>
      </trkpt>
      <trkpt lat="43.40668" lon="5.50482">
        <ele>581.9</ele>
        <time>2023-10-15T08:05:20.000Z</time>
      </trkpt>
      <trkpt lat="43.40668" lon="5.50495">
        <ele>583.3</ele>
        <time>2023-10-15T08:05:30.000Z</time>
      </trkpt>
      <trkpt lat="43.40668" lon="5.50503">
        <ele>584.7</ele>
        <time>2023-10-15T08:05:44.000Z</time>
      </trkpt>
      <trkpt lat="43.40668" lon="5.50504">
        <ele>584.8</ele>
        <time>2023-10-15T08:05:45.000Z</time>
      </trkpt>
      <trkpt lat="43.40668" lon="5.50504">
        <ele>584.9</ele>
        <time>2023-10-15T08:05:46.000Z</time>
      </trkpt>
      <trkpt lat="43.40668" lon="5.50504">
        <ele>585.3</ele>
        <time>2023-10-15T08:06:01.000Z</time>
      </trkpt>
      <trkpt lat="43.40669" lon="5.50504">
        <ele>585.4</ele>
        <time>2023-10-15T08:06:04.000Z</time>
      </trkpt>
      <trkpt lat="43.40668" lon="5.50505">
        <ele>585.4</ele>
        <time>2023-10-15T08:06:05.000Z</time>
      </trkpt>
      <trkpt lat="43.40663" lon="5.50514">
        <ele>585.6</ele>
        <time>2023-10-15T08:06:13.000Z</time>
      </trkpt>
      <trkpt lat="43.40661" lon="5.50527">
        <ele>585.8</ele>
        <time>2023-10-15T08:06:23.000Z</time>
      </trkpt>
      <trkpt lat="43.40662" lon="5.50541">
        <ele>586.2</ele>
        <time>2023-10-15T08:06:31.000Z</time>
      </trkpt>
      <trkpt lat="43.40663" lon="5.50554">
        <ele>586.6</ele>
        <time>2023-10-15T08:06:40.000Z</time>
      </trkpt>
      <trkpt lat="43.40664" lon="5.50568">
        <ele>587</ele>
        <time>2023-10-15T08:06:48.000Z</time>
      </trkpt>
      <trkpt lat="43.40663" lon="5.5058">
        <ele>587.3</ele>
        <time>2023-10-15T08:06:56.000Z</time>
      </trkpt>
      <trkpt lat="43.40659" lon="5.50591">
        <ele>588.1</ele>
        <time>2023-10-15T08:07:06.000Z</time>
      </trkpt>
      <trkpt lat="43.40655" lon="5.50603">
        <ele>590.3</ele>
        <time>2023-10-15T08:07:19.000Z</time>
      </trkpt>
      <trkpt lat="43.40652" lon="5.50617">
        <ele>591.3</ele>
        <time>2023-10-15T08:07:27.000Z</time>
      </trkpt>
      <trkpt lat="43.40651" lon="5.5063">
        <ele>592.2</ele>
        <time>2023-10-15T08:07:37.000Z</time>
      </trkpt>
      <trkpt lat="43.40652" lon="5.50642">
        <ele>593.4</ele>
        <time>2023-10-15T08:07:46.000Z</time>
      </trkpt>
      <trkpt lat="43.40655" lon="5.50654">
        <ele>595</ele>
        <time>2023-10-15T08:07:56.000Z</time>
      </trkpt>
      <trkpt lat="43.40656" lon="5.50668">
        <ele>596.7</ele>
        <time>2023-10-15T08:08:09.000Z</time>
      </trkpt>
      <trkpt lat="43.40657" lon="5.50681">
        <ele>597.9</ele>
        <time>2023-10-15T08:08:20.000Z</time>
      </trkpt>
      <trkpt lat="43.40656" lon="5.50693">
        <ele>598.9</ele>
        <time>2023-10-15T08:08:29.000Z</time>
      </trkpt>
      <trkpt lat="43.40654" lon="5.50706">
        <ele>600.4</ele>
        <time>2023-10-15T08:08:40.000Z</time>
      </trkpt>
      <trkpt lat="43.40654" lon="5.50708">
        <ele>600.9</ele>
        <time>2023-10-15T08:08:44.000Z</time>
      </trkpt>
      <trkpt lat="43.40654" lon="5.50709">
        <ele>601</ele>
        <time>2023-10-15T08:08:45.000Z</time>
      </trkpt>
      <trkpt lat="43.40652" lon="5.50722">
        <ele>602.3</ele>
        <time>2023-10-15T08:08:55.000Z</time>
      </trkpt>
      <trkpt lat="43.40652" lon="5.50736">
        <ele>603.9</ele>
        <time>2023-10-15T08:09:05.000Z</time>
      </trkpt>
      <trkpt lat="43.40652" lon="5.5075">
        <ele>604.9</ele>
        <time>2023-10-15T08:09:16.000Z</time>
      </trkpt>
      <trkpt lat="43.40653" lon="5.50763">
        <ele>605.6</ele>
        <time>2023-10-15T08:09:25.000Z</time>
      </trkpt>
      <trkpt lat="43.40655" lon="5.50776">
        <ele>606.3</ele>
        <time>2023-10-15T08:09:34.000Z</time>
      </trkpt>
      <trkpt lat="43.40655" lon="5.50788">
        <ele>607.1</ele>
        <time>2023-10-15T08:09:43.000Z</time>
      </trkpt>
      <trkpt lat="43.40656" lon="5.50801">
        <ele>608.3</ele>
        <time>2023-10-15T08:09:52.000Z</time>
      </trkpt>
      <trkpt lat="43.40657" lon="5.50813">
        <ele>609.6</ele>
        <time>2023-10-15T08:10:02.000Z</time>
      </trkpt>
      <trkpt lat="43.40658" lon="5.50826">
        <ele>610.3</ele>
        <time>2023-10-15T08:10:10.000Z</time>
      </trkpt>
      <trkpt lat="43.40662" lon="5.50839">
        <ele>611.5</ele>
        <time>2023-10-15T08:10:20.000Z</time>
      </trkpt>
      <trkpt lat="43.40671" lon="5.50844">
        <ele>612.1</ele>
        <time>2023-10-15T08:10:27.000Z</time>
      </trkpt>
      <trkpt lat="43.40679" lon="5.5084">
        <ele>612.9</ele>
        <time>2023-10-15T08:10:35.000Z</time>
      </trkpt>
      <trkpt lat="43.40688" lon="5.50835">
        <ele>614.3</ele>
        <time>2023-10-15T08:10:45.000Z</time>
      </trkpt>
      <trkpt lat="43.40697" lon="5.50828">
        <ele>615.5</ele>
        <time>2023-10-15T08:10:56.000Z</time>
      </trkpt>
      <trkpt lat="43.40705" lon="5.50821">
        <ele>616.6</ele>
        <time>2023-10-15T08:11:07.000Z</time>
      </trkpt>
      <trkpt lat="43.40712" lon="5.50814">
        <ele>617.8</ele>
        <time>2023-10-15T08:11:16.000Z</time>
      </trkpt>
      <trkpt lat="43.40721" lon="5.50807">
        <ele>619.3</ele>
        <time>2023-10-15T08:11:28.000Z</time>
      </trkpt>
      <trkpt lat="43.40729" lon="5.50799">
        <ele>620.6</ele>
        <time>2023-10-15T08:11:38.000Z</time>
      </trkpt>
      <trkpt lat="43.40736" lon="5.50791">
        <ele>621.6</ele>
        <time>2023-10-15T08:11:49.000Z</time>
      </trkpt>
      <trkpt lat="43.40744" lon="5.50784">
        <ele>622.9</ele>
        <time>2023-10-15T08:12:00.000Z</time>
      </trkpt>
      <trkpt lat="43.40752" lon="5.5078">
        <ele>624.2</ele>
        <time>2023-10-15T08:12:10.000Z</time>
      </trkpt>
      <trkpt lat="43.40761" lon="5.50774">
        <ele>625.9</ele>
        <time>2023-10-15T08:12:24.000Z</time>
      </trkpt>
      <trkpt lat="43.4077" lon="5.50774">
        <ele>627.2</ele>
        <time>2023-10-15T08:12:35.000Z</time>
      </trkpt>
      <trkpt lat="43.4077" lon="5.50773">
        <ele>627.4</ele>
        <time>2023-10-15T08:12:37.000Z</time>
      </trkpt>
      <trkpt lat="43.40771" lon="5.50774">
        <ele>627.5</ele>
        <time>2023-10-15T08:12:38.000Z</time>
      </trkpt>
      <trkpt lat="43.4078" lon="5.50776">
        <ele>629</ele>
        <time>2023-10-15T08:12:58.000Z</time>
      </trkpt>
      <trkpt lat="43.40789" lon="5.50781">
        <ele>629.5</ele>
        <time>2023-10-15T08:13:09.000Z</time>
      </trkpt>
      <trkpt lat="43.40795" lon="5.50789">
        <ele>630.1</ele>
        <time>2023-10-15T08:13:22.000Z</time>
      </trkpt>
      <trkpt lat="43.40795" lon="5.50789">
        <ele>630.3</ele>
        <time>2023-10-15T08:13:26.000Z</time>
      </trkpt>
      <trkpt lat="43.40795" lon="5.50789">
        <ele>630.3</ele>
        <time>2023-10-15T08:13:27.000Z</time>
      </trkpt>
      <trkpt lat="43.40795" lon="5.5079">
        <ele>630.4</ele>
        <time>2023-10-15T08:13:28.000Z</time>
      </trkpt>
      <trkpt lat="43.40799" lon="5.50802">
        <ele>630.9</ele>
        <time>2023-10-15T08:13:42.000Z</time>
      </trkpt>
      <trkpt lat="43.40806" lon="5.50811">
        <ele>631.6</ele>
        <time>2023-10-15T08:13:52.000Z</time>
      </trkpt>
      <trkpt lat="43.40814" lon="5.50818">
        <ele>632</ele>
        <time>2023-10-15T08:14:01.000Z</time>
      </trkpt>
      <trkpt lat="43.40823" lon="5.50824">
        <ele>632.6</ele>
        <time>2023-10-15T08:14:11.000Z</time>
      </trkpt>
      <trkpt lat="43.40829" lon="5.50833">
        <ele>633.8</ele>
        <time>2023-10-15T08:14:21.000Z</time>
      </trkpt>
      <trkpt lat="43.40833" lon="5.50846">
        <ele>635</ele>
        <time>2023-10-15T08:14:30.000Z</time>
      </trkpt>
      <trkpt lat="43.40831" lon="5.50858">
        <ele>635.7</ele>
        <time>2023-10-15T08:14:39.000Z</time>
      </trkpt>
      <trkpt lat="43.4083" lon="5.50871">
        <ele>636.3</ele>
        <time>2023-10-15T08:14:49.000Z</time>
      </trkpt>
      <trkpt lat="43.40831" lon="5.50884">
        <ele>636.8</ele>
        <time>2023-10-15T08:14:57.000Z</time>
      </trkpt>
      <trkpt lat="43.40834" lon="5.50896">
        <ele>637.2</ele>
        <time>2023-10-15T08:15:05.000Z</time>
      </trkpt>
      <trkpt lat="43.40837" lon="5.50909">
        <ele>637.9</ele>
        <time>2023-10-15T08:15:15.000Z</time>
      </trkpt>
      <trkpt lat="43.40834" lon="5.50921">
        <ele>638.5</ele>
        <time>2023-10-15T08:15:23.000Z</time>
      </trkpt>
      <trkpt lat="43.40831" lon="5.50934">
        <ele>639.6</ele>
        <time>2023-10-15T08:15:33.000Z</time>
      </trkpt>
      <trkpt lat="43.40836" lon="5.50946">
        <ele>641</ele>
        <time>2023-10-15T08:15:44.000Z</time>
      </trkpt>
      <trkpt lat="43.40843" lon="5.50955">
        <ele>642.2</ele>
        <time>2023-10-15T08:15:54.000Z</time>
      </trkpt>
      <trkpt lat="43.40851" lon="5.5096">
        <ele>643.1</ele>
        <time>2023-10-15T08:16:02.000Z</time>
      </trkpt>
      <trkpt lat="43.40859" lon="5.50967">
        <ele>644.2</ele>
        <time>2023-10-15T08:16:12.000Z</time>
      </trkpt>
      <trkpt lat="43.40866" lon="5.50975">
        <ele>645.1</ele>
        <time>2023-10-15T08:16:21.000Z</time>
      </trkpt>
      <trkpt lat="43.40873" lon="5.50985">
        <ele>645.9</ele>
        <time>2023-10-15T08:16:30.000Z</time>
      </trkpt>
      <trkpt lat="43.40879" lon="5.50995">
        <ele>647.1</ele>
        <time>2023-10-15T08:16:41.000Z</time>
      </trkpt>
      <trkpt lat="43.40882" lon="5.50999">
        <ele>647.9</ele>
        <time>2023-10-15T08:16:50.000Z</time>
      </trkpt>
      <trkpt lat="43.40883" lon="5.51">
        <ele>648.8</ele>
        <time>2023-10-15T08:17:12.000Z</time>
      </trkpt>
      <trkpt lat="43.40883" lon="5.50999">
        <ele>649.2</ele>
        <time>2023-10-15T08:17:14.000Z</time>
      </trkpt>
      <trkpt lat="43.40883" lon="5.50999">
        <ele>649.9</ele>
        <time>2023-10-15T08:17:24.000Z</time>
      </trkpt>
      <trkpt lat="43.40875" lon="5.50995">
        <ele>650.6</ele>
        <time>2023-10-15T08:17:46.000Z</time>
      </trkpt>
      <trkpt lat="43.40865" lon="5.50992">
        <ele>651.7</ele>
        <time>2023-10-15T08:17:59.000Z</time>
      </trkpt>
      <trkpt lat="43.40856" lon="5.50991">
        <ele>653.8</ele>
        <time>2023-10-15T08:18:13.000Z</time>
      </trkpt>
      <trkpt lat="43.40847" lon="5.50989">
        <ele>656.1</ele>
        <time>2023-10-15T08:18:28.000Z</time>
      </trkpt>
      <trkpt lat="43.40839" lon="5.50983">
        <ele>657</ele>
        <time>2023-10-15T08:18:39.000Z</time>
      </trkpt>
      <trkpt lat="43.40829" lon="5.50981">
        <ele>658.1</ele>
        <time>2023-10-15T08:18:52.000Z</time>
      </trkpt>
      <trkpt lat="43.4082" lon="5.50978">
        <ele>659.2</ele>
        <time>2023-10-15T08:19:03.000Z</time>
      </trkpt>
      <trkpt lat="43.40811" lon="5.50979">
        <ele>660.2</ele>
        <time>2023-10-15T08:19:15.000Z</time>
      </trkpt>
      <trkpt lat="43.40804" lon="5.5097">
        <ele>661.3</ele>
        <time>2023-10-15T08:19:26.000Z</time>
      </trkpt>
      <trkpt lat="43.408" lon="5.50958">
        <ele>663.1</ele>
        <time>2023-10-15T08:19:42.000Z</time>
      </trkpt>
      <trkpt lat="43.40795" lon="5.50948">
        <ele>665</ele>
        <time>2023-10-15T08:19:58.000Z</time>
      </trkpt>
      <trkpt lat="43.4079" lon="5.50938">
        <ele>667</ele>
        <time>2023-10-15T08:20:14.000Z</time>
      </trkpt>
      <trkpt lat="43.40783" lon="5.50929">
        <ele>669.4</ele>
        <time>2023-10-15T08:20:31.000Z</time>
      </trkpt>
      <trkpt lat="43.40775" lon="5.50921">
        <ele>671.9</ele>
        <time>2023-10-15T08:20:47.000Z</time>
      </trkpt>
      <trkpt lat="43.40767" lon="5.50913">
        <ele>674</ele>
        <time>2023-10-15T08:21:03.000Z</time>
      </trkpt>
      <trkpt lat="43.40765" lon="5.50926">
        <ele>678.1</ele>
        <time>2023-10-15T08:21:33.000Z</time>
      </trkpt>
      <trkpt lat="43.40764" lon="5.50932">
        <ele>679.1</ele>
        <time>2023-10-15T08:21:41.000Z</time>
      </trkpt>
      <trkpt lat="43.40764" lon="5.50932">
        <ele>679.2</ele>
        <time>2023-10-15T08:21:42.000Z</time>
      </trkpt>
      <trkpt lat="43.40761" lon="5.5094">
        <ele>681.9</ele>
        <time>2023-10-15T08:22:03.000Z</time>
      </trkpt>
      <trkpt lat="43.40761" lon="5.5094">
        <ele>682.1</ele>
        <time>2023-10-15T08:22:05.000Z</time>
      </trkpt>
      <trkpt lat="43.40756" lon="5.50952">
        <ele>684.4</ele>
        <time>2023-10-15T08:22:24.000Z</time>
      </trkpt>
      <trkpt lat="43.40754" lon="5.50956">
        <ele>686</ele>
        <time>2023-10-15T08:22:34.000Z</time>
      </trkpt>
      <trkpt lat="43.40754" lon="5.50957">
        <ele>686.1</ele>
        <time>2023-10-15T08:22:35.000Z</time>
      </trkpt>
      <trkpt lat="43.40754" lon="5.50957">
        <ele>686.4</ele>
        <time>2023-10-15T08:22:37.000Z</time>
      </trkpt>
      <trkpt lat="43.40754" lon="5.50957">
        <ele>686.6</ele>
        <time>2023-10-15T08:22:38.000Z</time>
      </trkpt>
      <trkpt lat="43.40754" lon="5.50957">
        <ele>686.9</ele>
        <time>2023-10-15T08:22:40.000Z</time>
      </trkpt>
      <trkpt lat="43.40753" lon="5.50958">
        <ele>687.3</ele>
        <time>2023-10-15T08:22:43.000Z</time>
      </trkpt>
      <trkpt lat="43.40749" lon="5.5096">
        <ele>688.9</ele>
        <time>2023-10-15T08:22:55.000Z</time>
      </trkpt>
      <trkpt lat="43.40749" lon="5.5096">
        <ele>689.1</ele>
        <time>2023-10-15T08:22:57.000Z</time>
      </trkpt>
      <trkpt lat="43.4075" lon="5.50962">
        <ele>689.8</ele>
        <time>2023-10-15T08:23:07.000Z</time>
      </trkpt>
      <trkpt lat="43.4075" lon="5.50963">
        <ele>690</ele>
        <time>2023-10-15T08:23:15.000Z</time>
      </trkpt>
      <trkpt lat="43.4075" lon="5.50963">
        <ele>690</ele>
        <time>2023-10-15T08:23:16.000Z</time>
      </trkpt>
      <trkpt lat="43.40749" lon="5.50964">
        <ele>690.3</ele>
        <time>2023-10-15T08:23:49.000Z</time>
      </trkpt>
      <trkpt lat="43.40749" lon="5.50965">
        <ele>690.4</ele>
        <time>2023-10-15T08:23:53.000Z</time>
      </trkpt>
      <trkpt lat="43.40749" lon="5.50965">
        <ele>690.3</ele>
        <time>2023-10-15T08:23:55.000Z</time>
      </trkpt>
      <trkpt lat="43.40749" lon="5.50965">
        <ele>690.3</ele>
        <time>2023-10-15T08:23:58.000Z</time>
      </trkpt>
      <trkpt lat="43.40749" lon="5.50965">
        <ele>690.3</ele>
        <time>2023-10-15T08:24:01.000Z</time>
      </trkpt>
      <trkpt lat="43.40747" lon="5.50968">
        <ele>690.3</ele>
        <time>2023-10-15T08:24:06.000Z</time>
      </trkpt>
      <trkpt lat="43.40748" lon="5.50968">
        <ele>690.2</ele>
        <time>2023-10-15T08:24:07.000Z</time>
      </trkpt>
      <trkpt lat="43.40748" lon="5.50968">
        <ele>690.3</ele>
        <time>2023-10-15T08:24:10.000Z</time>
      </trkpt>
      <trkpt lat="43.40747" lon="5.50968">
        <ele>690.3</ele>
        <time>2023-10-15T08:24:13.000Z</time>
      </trkpt>
      <trkpt lat="43.40751" lon="5.50971">
        <ele>690.3</ele>
        <time>2023-10-15T08:24:24.000Z</time>
      </trkpt>
      <trkpt lat="43.40751" lon="5.50971">
        <ele>690.3</ele>
        <time>2023-10-15T08:24:25.000Z</time>
      </trkpt>
      <trkpt lat="43.40752" lon="5.50974">
        <ele>690.5</ele>
        <time>2023-10-15T08:24:33.000Z</time>
      </trkpt>
      <trkpt lat="43.40752" lon="5.50974">
        <ele>690.6</ele>
        <time>2023-10-15T08:24:37.000Z</time>
      </trkpt>
      <trkpt lat="43.40748" lon="5.50986">
        <ele>693.4</ele>
        <time>2023-10-15T08:25:02.000Z</time>
      </trkpt>
      <trkpt lat="43.40747" lon="5.50988">
        <ele>694.1</ele>
        <time>2023-10-15T08:25:07.000Z</time>
      </trkpt>
      <trkpt lat="43.40747" lon="5.50988">
        <ele>694.3</ele>
        <time>2023-10-15T08:25:08.000Z</time>
      </trkpt>
      <trkpt lat="43.40743" lon="5.50992">
        <ele>696.5</ele>
        <time>2023-10-15T08:25:24.000Z</time>
      </trkpt>
      <trkpt lat="43.40743" lon="5.50993">
        <ele>696.6</ele>
        <time>2023-10-15T08:25:25.000Z</time>
      </trkpt>
      <trkpt lat="43.40746" lon="5.51005">
        <ele>699.3</ele>
        <time>2023-10-15T08:25:45.000Z</time>
      </trkpt>
      <trkpt lat="43.40746" lon="5.51007">
        <ele>699.8</ele>
        <time>2023-10-15T08:25:50.000Z</time>
      </trkpt>
      <trkpt lat="43.40746" lon="5.51007">
        <ele>700.2</ele>
        <time>2023-10-15T08:25:54.000Z</time>
      </trkpt>
      <trkpt lat="43.40746" lon="5.51007">
        <ele>700.3</ele>
        <time>2023-10-15T08:25:55.000Z</time>
      </trkpt>
      <trkpt lat="43.40746" lon="5.51008">
        <ele>700.4</ele>
        <time>2023-10-15T08:25:56.000Z</time>
      </trkpt>
      <trkpt lat="43.40741" lon="5.51016">
        <ele>702.4</ele>
        <time>2023-10-15T08:26:15.000Z</time>
      </trkpt>
      <trkpt lat="43.4074" lon="5.51016">
        <ele>702.5</ele>
        <time>2023-10-15T08:26:16.000Z</time>
      </trkpt>
      <trkpt lat="43.40737" lon="5.51028">
        <ele>706.1</ele>
        <time>2023-10-15T08:26:43.000Z</time>
      </trkpt>
      <trkpt lat="43.40741" lon="5.51039">
        <ele>709.1</ele>
        <time>2023-10-15T08:27:06.000Z</time>
      </trkpt>
      <trkpt lat="43.40736" lon="5.5105">
        <ele>712.2</ele>
        <time>2023-10-15T08:27:28.000Z</time>
      </trkpt>
      <trkpt lat="43.40734" lon="5.5105">
        <ele>713.2</ele>
        <time>2023-10-15T08:27:34.000Z</time>
      </trkpt>
      <trkpt lat="43.40734" lon="5.51051">
        <ele>713.3</ele>
        <time>2023-10-15T08:27:35.000Z</time>
      </trkpt>
      <trkpt lat="43.40734" lon="5.51056">
        <ele>715.3</ele>
        <time>2023-10-15T08:27:49.000Z</time>
      </trkpt>
      <trkpt lat="43.40734" lon="5.51056">
        <ele>715.5</ele>
        <time>2023-10-15T08:27:51.000Z</time>
      </trkpt>
      <trkpt lat="43.40731" lon="5.51064">
        <ele>717.4</ele>
        <time>2023-10-15T08:28:06.000Z</time>
      </trkpt>
      <trkpt lat="43.40731" lon="5.51065">
        <ele>717.7</ele>
        <time>2023-10-15T08:28:09.000Z</time>
      </trkpt>
      <trkpt lat="43.40732" lon="5.51077">
        <ele>721.5</ele>
        <time>2023-10-15T08:28:40.000Z</time>
      </trkpt>
      <trkpt lat="43.40725" lon="5.51081">
        <ele>724.2</ele>
        <time>2023-10-15T08:29:00.000Z</time>
      </trkpt>
      <trkpt lat="43.40725" lon="5.51081">
        <ele>724.8</ele>
        <time>2023-10-15T08:29:04.000Z</time>
      </trkpt>
      <trkpt lat="43.40718" lon="5.51084">
        <ele>728.7</ele>
        <time>2023-10-15T08:29:37.000Z</time>
      </trkpt>
      <trkpt lat="43.40718" lon="5.51084">
        <ele>728.8</ele>
        <time>2023-10-15T08:29:38.000Z</time>
      </trkpt>
      <trkpt lat="43.40721" lon="5.51088">
        <ele>729.3</ele>
        <time>2023-10-15T08:29:49.000Z</time>
      </trkpt>
      <trkpt lat="43.40722" lon="5.51088">
        <ele>729.4</ele>
        <time>2023-10-15T08:29:53.000Z</time>
      </trkpt>
      <trkpt lat="43.40722" lon="5.51088">
        <ele>729.5</ele>
        <time>2023-10-15T08:29:55.000Z</time>
      </trkpt>
      <trkpt lat="43.40722" lon="5.51088">
        <ele>729.6</ele>
        <time>2023-10-15T08:29:58.000Z</time>
      </trkpt>
      <trkpt lat="43.40722" lon="5.51088">
        <ele>729.6</ele>
        <time>2023-10-15T08:29:59.000Z</time>
      </trkpt>
      <trkpt lat="43.40722" lon="5.51087">
        <ele>729.7</ele>
        <time>2023-10-15T08:30:04.000Z</time>
      </trkpt>
      <trkpt lat="43.40722" lon="5.51087">
        <ele>729.7</ele>
        <time>2023-10-15T08:30:06.000Z</time>
      </trkpt>
      <trkpt lat="43.40721" lon="5.51086">
        <ele>729.9</ele>
        <time>2023-10-15T08:30:12.000Z</time>
      </trkpt>
      <trkpt lat="43.40721" lon="5.51086">
        <ele>730</ele>
        <time>2023-10-15T08:30:13.000Z</time>
      </trkpt>
      <trkpt lat="43.40721" lon="5.51086">
        <ele>730</ele>
        <time>2023-10-15T08:30:16.000Z</time>
      </trkpt>
      <trkpt lat="43.40719" lon="5.51088">
        <ele>730.1</ele>
        <time>2023-10-15T08:30:22.000Z</time>
      </trkpt>
      <trkpt lat="43.40719" lon="5.51088">
        <ele>730.1</ele>
        <time>2023-10-15T08:30:23.000Z</time>
      </trkpt>
      <trkpt lat="43.40719" lon="5.51088">
        <ele>730.1</ele>
        <time>2023-10-15T08:30:25.000Z</time>
      </trkpt>
      <trkpt lat="43.4072" lon="5.51088">
        <ele>730.2</ele>
        <time>2023-10-15T08:30:35.000Z</time>
      </trkpt>
      <trkpt lat="43.4072" lon="5.51089">
        <ele>730.2</ele>
        <time>2023-10-15T08:30:38.000Z</time>
      </trkpt>
      <trkpt lat="43.4072" lon="5.51089">
        <ele>730.2</ele>
        <time>2023-10-15T08:30:42.000Z</time>
      </trkpt>
      <trkpt lat="43.4072" lon="5.51089">
        <ele>730.2</ele>
        <time>2023-10-15T08:30:44.000Z</time>
      </trkpt>
      <trkpt lat="43.4072" lon="5.51088">
        <ele>730.2</ele>
        <time>2023-10-15T08:30:47.000Z</time>
      </trkpt>
      <trkpt lat="43.4072" lon="5.51088">
        <ele>730.2</ele>
        <time>2023-10-15T08:30:48.000Z</time>
      </trkpt>
      <trkpt lat="43.4072" lon="5.51088">
        <ele>730.2</ele>
        <time>2023-10-15T08:30:49.000Z</time>
      </trkpt>
      <trkpt lat="43.4072" lon="5.51088">
        <ele>730.2</ele>
        <time>2023-10-15T08:30:52.000Z</time>
      </trkpt>
      <trkpt lat="43.40721" lon="5.51088">
        <ele>730.2</ele>
        <time>2023-10-15T08:30:58.000Z</time>
      </trkpt>
      <trkpt lat="43.40721" lon="5.51088">
        <ele>730.2</ele>
        <time>2023-10-15T08:30:59.000Z</time>
      </trkpt>
      <trkpt lat="43.40721" lon="5.51089">
        <ele>730.3</ele>
        <time>2023-10-15T08:31:06.000Z</time>
      </trkpt>
      <trkpt lat="43.40722" lon="5.51088">
        <ele>730.3</ele>
        <time>2023-10-15T08:31:10.000Z</time>
      </trkpt>
      <trkpt lat="43.40722" lon="5.51088">
        <ele>730.3</ele>
        <time>2023-10-15T08:31:12.000Z</time>
      </trkpt>
      <trkpt lat="43.40722" lon="5.51088">
        <ele>730.3</ele>
        <time>2023-10-15T08:31:13.000Z</time>
      </trkpt>
      <trkpt lat="43.40722" lon="5.51089">
        <ele>730.4</ele>
        <time>2023-10-15T08:31:16.000Z</time>
      </trkpt>
      <trkpt lat="43.40729" lon="5.51097">
        <ele>730.5</ele>
        <time>2023-10-15T08:31:27.000Z</time>
      </trkpt>
      <trkpt lat="43.40736" lon="5.51106">
        <ele>730.8</ele>
        <time>2023-10-15T08:31:37.000Z</time>
      </trkpt>
      <trkpt lat="43.40743" lon="5.51114">
        <ele>731.6</ele>
        <time>2023-10-15T08:31:48.000Z</time>
      </trkpt>
      <trkpt lat="43.4075" lon="5.51124">
        <ele>733</ele>
        <time>2023-10-15T08:31:59.000Z</time>
      </trkpt>
      <trkpt lat="43.40757" lon="5.51132">
        <ele>734.2</ele>
        <time>2023-10-15T08:32:10.000Z</time>
      </trkpt>
      <trkpt lat="43.40762" lon="5.51144">
        <ele>735.3</ele>
        <time>2023-10-15T08:32:20.000Z</time>
      </trkpt>
      <trkpt lat="43.40769" lon="5.51153">
        <ele>736.4</ele>
        <time>2023-10-15T08:32:31.000Z</time>
      </trkpt>
      <trkpt lat="43.40775" lon="5.51163">
        <ele>736.9</ele>
        <time>2023-10-15T08:32:41.000Z</time>
      </trkpt>
      <trkpt lat="43.40778" lon="5.51175">
        <ele>737.5</ele>
        <time>2023-10-15T08:32:50.000Z</time>
      </trkpt>
      <trkpt lat="43.40782" lon="5.51184">
        <ele>738.3</ele>
        <time>2023-10-15T08:33:01.000Z</time>
      </trkpt>
      <trkpt lat="43.40782" lon="5.51184">
        <ele>738.4</ele>
        <time>2023-10-15T08:33:02.000Z</time>
      </trkpt>
      <trkpt lat="43.40781" lon="5.51185">
        <ele>738.6</ele>
        <time>2023-10-15T08:33:06.000Z</time>
      </trkpt>
      <trkpt lat="43.40781" lon="5.51185">
        <ele>739</ele>
        <time>2023-10-15T08:33:24.000Z</time>
      </trkpt>
      <trkpt lat="43.40781" lon="5.51184">
        <ele>739</ele>
        <time>2023-10-15T08:33:32.000Z</time>
      </trkpt>
      <trkpt lat="43.40782" lon="5.51184">
        <ele>739</ele>
        <time>2023-10-15T08:33:33.000Z</time>
      </trkpt>
      <trkpt lat="43.40781" lon="5.51183">
        <ele>739.2</ele>
        <time>2023-10-15T08:33:42.000Z</time>
      </trkpt>
      <trkpt lat="43.40781" lon="5.51183">
        <ele>739.2</ele>
        <time>2023-10-15T08:33:44.000Z</time>
      </trkpt>
      <trkpt lat="43.40782" lon="5.51188">
        <ele>739.3</ele>
        <time>2023-10-15T08:33:52.000Z</time>
      </trkpt>
      <trkpt lat="43.40782" lon="5.51188">
        <ele>739.3</ele>
        <time>2023-10-15T08:33:56.000Z</time>
      </trkpt>
      <trkpt lat="43.40782" lon="5.51188">
        <ele>739.3</ele>
        <time>2023-10-15T08:33:58.000Z</time>
      </trkpt>
      <trkpt lat="43.40781" lon="5.51188">
        <ele>739.3</ele>
        <time>2023-10-15T08:34:05.000Z</time>
      </trkpt>
      <trkpt lat="43.40782" lon="5.51188">
        <ele>739.4</ele>
        <time>2023-10-15T08:34:07.000Z</time>
      </trkpt>
      <trkpt lat="43.40782" lon="5.51188">
        <ele>739.4</ele>
        <time>2023-10-15T08:34:08.000Z</time>
      </trkpt>
      <trkpt lat="43.40782" lon="5.51188">
        <ele>739.5</ele>
        <time>2023-10-15T08:34:10.000Z</time>
      </trkpt>
      <trkpt lat="43.40782" lon="5.51188">
        <ele>739.5</ele>
        <time>2023-10-15T08:34:12.000Z</time>
      </trkpt>
      <trkpt lat="43.4078" lon="5.51201">
        <ele>739.6</ele>
        <time>2023-10-15T08:34:24.000Z</time>
      </trkpt>
      <trkpt lat="43.40779" lon="5.51213">
        <ele>739.9</ele>
        <time>2023-10-15T08:34:36.000Z</time>
      </trkpt>
      <trkpt lat="43.40779" lon="5.51213">
        <ele>740</ele>
        <time>2023-10-15T08:34:40.000Z</time>
      </trkpt>
      <trkpt lat="43.40772" lon="5.51222">
        <ele>740.3</ele>
        <time>2023-10-15T08:34:52.000Z</time>
      </trkpt>
      <trkpt lat="43.40772" lon="5.51222">
        <ele>740.4</ele>
        <time>2023-10-15T08:34:53.000Z</time>
      </trkpt>
      <trkpt lat="43.40772" lon="5.51222">
        <ele>740.5</ele>
        <time>2023-10-15T08:34:55.000Z</time>
      </trkpt>
      <trkpt lat="43.40773" lon="5.51222">
        <ele>740.6</ele>
        <time>2023-10-15T08:34:58.000Z</time>
      </trkpt>
      <trkpt lat="43.40773" lon="5.51222">
        <ele>741.1</ele>
        <time>2023-10-15T08:35:10.000Z</time>
      </trkpt>
      <trkpt lat="43.40773" lon="5.51222">
        <ele>741.2</ele>
        <time>2023-10-15T08:35:14.000Z</time>
      </trkpt>
      <trkpt lat="43.40773" lon="5.51222">
        <ele>741.4</ele>
        <time>2023-10-15T08:35:25.000Z</time>
      </trkpt>
      <trkpt lat="43.40774" lon="5.51222">
        <ele>741.4</ele>
        <time>2023-10-15T08:35:27.000Z</time>
      </trkpt>
      <trkpt lat="43.40773" lon="5.51223">
        <ele>741.5</ele>
        <time>2023-10-15T08:35:34.000Z</time>
      </trkpt>
      <trkpt lat="43.40773" lon="5.51225">
        <ele>741.6</ele>
        <time>2023-10-15T08:35:41.000Z</time>
      </trkpt>
      <trkpt lat="43.40773" lon="5.51225">
        <ele>741.7</ele>
        <time>2023-10-15T08:35:46.000Z</time>
      </trkpt>
      <trkpt lat="43.40773" lon="5.51225">
        <ele>741.7</ele>
        <time>2023-10-15T08:35:47.000Z</time>
      </trkpt>
      <trkpt lat="43.40772" lon="5.51225">
        <ele>741.8</ele>
        <time>2023-10-15T08:35:52.000Z</time>
      </trkpt>
      <trkpt lat="43.40766" lon="5.51234">
        <ele>742</ele>
        <time>2023-10-15T08:36:02.000Z</time>
      </trkpt>
      <trkpt lat="43.40758" lon="5.5124">
        <ele>742.7</ele>
        <time>2023-10-15T08:36:12.000Z</time>
      </trkpt>
      <trkpt lat="43.40751" lon="5.51248">
        <ele>743.4</ele>
        <time>2023-10-15T08:36:19.000Z</time>
      </trkpt>
      <trkpt lat="43.40744" lon="5.51257">
        <ele>744.4</ele>
        <time>2023-10-15T08:36:28.000Z</time>
      </trkpt>
      <trkpt lat="43.40739" lon="5.51268">
        <ele>745.9</ele>
        <time>2023-10-15T08:36:39.000Z</time>
      </trkpt>
      <trkpt lat="43.4073" lon="5.51274">
        <ele>746.9</ele>
        <time>2023-10-15T08:36:47.000Z</time>
      </trkpt>
      <trkpt lat="43.40721" lon="5.51278">
        <ele>747.8</ele>
        <time>2023-10-15T08:36:54.000Z</time>
      </trkpt>
      <trkpt lat="43.40713" lon="5.51285">
        <ele>748.7</ele>
        <time>2023-10-15T08:37:03.000Z</time>
      </trkpt>
      <trkpt lat="43.40705" lon="5.51292">
        <ele>749.6</ele>
        <time>2023-10-15T08:37:14.000Z</time>
      </trkpt>
      <trkpt lat="43.40695" lon="5.51293">
        <ele>751</ele>
        <time>2023-10-15T08:37:26.000Z</time>
      </trkpt>
      <trkpt lat="43.40686" lon="5.51288">
        <ele>752.9</ele>
        <time>2023-10-15T08:37:45.000Z</time>
      </trkpt>
      <trkpt lat="43.40684" lon="5.51288">
        <ele>753.3</ele>
        <time>2023-10-15T08:37:49.000Z</time>
      </trkpt>
      <trkpt lat="43.40684" lon="5.51288">
        <ele>753.4</ele>
        <time>2023-10-15T08:37:50.000Z</time>
      </trkpt>
      <trkpt lat="43.40676" lon="5.51283">
        <ele>756.5</ele>
        <time>2023-10-15T08:38:16.000Z</time>
      </trkpt>
      <trkpt lat="43.40676" lon="5.51283">
        <ele>756.7</ele>
        <time>2023-10-15T08:38:17.000Z</time>
      </trkpt>
      <trkpt lat="43.40676" lon="5.51283">
        <ele>756.8</ele>
        <time>2023-10-15T08:38:18.000Z</time>
      </trkpt>
      <trkpt lat="43.40673" lon="5.5128">
        <ele>758.8</ele>
        <time>2023-10-15T08:38:31.000Z</time>
      </trkpt>
      <trkpt lat="43.40673" lon="5.5128">
        <ele>758.9</ele>
        <time>2023-10-15T08:38:32.000Z</time>
      </trkpt>
      <trkpt lat="43.40673" lon="5.5128">
        <ele>759</ele>
        <time>2023-10-15T08:38:33.000Z</time>
      </trkpt>
      <trkpt lat="43.40673" lon="5.5128">
        <ele>759.5</ele>
        <time>2023-10-15T08:38:39.000Z</time>
      </trkpt>
      <trkpt lat="43.4067" lon="5.51271">
        <ele>761.4</ele>
        <time>2023-10-15T08:39:01.000Z</time>
      </trkpt>
      <trkpt lat="43.4067" lon="5.51271">
        <ele>761.6</ele>
        <time>2023-10-15T08:39:03.000Z</time>
      </trkpt>
      <trkpt lat="43.4067" lon="5.5127">
        <ele>761.9</ele>
        <time>2023-10-15T08:39:06.000Z</time>
      </trkpt>
      <trkpt lat="43.40669" lon="5.5127">
        <ele>762.1</ele>
        <time>2023-10-15T08:39:07.000Z</time>
      </trkpt>
      <trkpt lat="43.4067" lon="5.51267">
        <ele>763.3</ele>
        <time>2023-10-15T08:39:15.000Z</time>
      </trkpt>
      <trkpt lat="43.4067" lon="5.51267">
        <ele>763.7</ele>
        <time>2023-10-15T08:39:19.000Z</time>
      </trkpt>
      <trkpt lat="43.40668" lon="5.51263">
        <ele>765.8</ele>
        <time>2023-10-15T08:39:36.000Z</time>
      </trkpt>
      <trkpt lat="43.40668" lon="5.51263">
        <ele>766.8</ele>
        <time>2023-10-15T08:39:45.000Z</time>
      </trkpt>
      <trkpt lat="43.40668" lon="5.51263">
        <ele>766.9</ele>
        <time>2023-10-15T08:39:46.000Z</time>
      </trkpt>
      <trkpt lat="43.40668" lon="5.51263">
        <ele>767.1</ele>
        <time>2023-10-15T08:39:49.000Z</time>
      </trkpt>
      <trkpt lat="43.40668" lon="5.51263">
        <ele>767.1</ele>
        <time>2023-10-15T08:39:50.000Z</time>
      </trkpt>
      <trkpt lat="43.40668" lon="5.51263">
        <ele>767.2</ele>
        <time>2023-10-15T08:40:00.000Z</time>
      </trkpt>
      <trkpt lat="43.40668" lon="5.51264">
        <ele>767.3</ele>
        <time>2023-10-15T08:40:08.000Z</time>
      </trkpt>
      <trkpt lat="43.40668" lon="5.51264">
        <ele>767.2</ele>
        <time>2023-10-15T08:40:11.000Z</time>
      </trkpt>
      <trkpt lat="43.40668" lon="5.51264">
        <ele>767.2</ele>
        <time>2023-10-15T08:40:12.000Z</time>
      </trkpt>
      <trkpt lat="43.40668" lon="5.51264">
        <ele>767.3</ele>
        <time>2023-10-15T08:40:16.000Z</time>
      </trkpt>
      <trkpt lat="43.4067" lon="5.51255">
        <ele>767.5</ele>
        <time>2023-10-15T08:40:26.000Z</time>
      </trkpt>
      <trkpt lat="43.4067" lon="5.51255">
        <ele>767.5</ele>
        <time>2023-10-15T08:40:28.000Z</time>
      </trkpt>
      <trkpt lat="43.40671" lon="5.51255">
        <ele>767.5</ele>
        <time>2023-10-15T08:40:31.000Z</time>
      </trkpt>
      <trkpt lat="43.40671" lon="5.51255">
        <ele>767.3</ele>
        <time>2023-10-15T08:40:40.000Z</time>
      </trkpt>
      <trkpt lat="43.40671" lon="5.51255">
        <ele>767.3</ele>
        <time>2023-10-15T08:40:41.000Z</time>
      </trkpt>
      <trkpt lat="43.40671" lon="5.51255">
        <ele>766.9</ele>
        <time>2023-10-15T08:40:56.000Z</time>
      </trkpt>
      <trkpt lat="43.40671" lon="5.51255">
        <ele>766.9</ele>
        <time>2023-10-15T08:40:57.000Z</time>
      </trkpt>
      <trkpt lat="43.40671" lon="5.51254">
        <ele>766.6</ele>
        <time>2023-10-15T08:41:40.000Z</time>
      </trkpt>
      <trkpt lat="43.40671" lon="5.51254">
        <ele>766.6</ele>
        <time>2023-10-15T08:41:41.000Z</time>
      </trkpt>
      <trkpt lat="43.40671" lon="5.51254">
        <ele>766.6</ele>
        <time>2023-10-15T08:41:43.000Z</time>
      </trkpt>
      <trkpt lat="43.40671" lon="5.51254">
        <ele>766.6</ele>
        <time>2023-10-15T08:41:44.000Z</time>
      </trkpt>
      <trkpt lat="43.40671" lon="5.51254">
        <ele>766.7</ele>
        <time>2023-10-15T08:41:58.000Z</time>
      </trkpt>
      <trkpt lat="43.40671" lon="5.51254">
        <ele>766.7</ele>
        <time>2023-10-15T08:41:59.000Z</time>
      </trkpt>
      <trkpt lat="43.40671" lon="5.51255">
        <ele>766.7</ele>
        <time>2023-10-15T08:42:00.000Z</time>
      </trkpt>
      <trkpt lat="43.40671" lon="5.51255">
        <ele>766.7</ele>
        <time>2023-10-15T08:42:02.000Z</time>
      </trkpt>
      <trkpt lat="43.40671" lon="5.51255">
        <ele>766.7</ele>
        <time>2023-10-15T08:42:20.000Z</time>
      </trkpt>
      <trkpt lat="43.40671" lon="5.51255">
        <ele>766.7</ele>
        <time>2023-10-15T08:42:21.000Z</time>
      </trkpt>
      <trkpt lat="43.40671" lon="5.51255">
        <ele>766.5</ele>
        <time>2023-10-15T08:42:51.000Z</time>
      </trkpt>
      <trkpt lat="43.40671" lon="5.51255">
        <ele>766.5</ele>
        <time>2023-10-15T08:42:53.000Z</time>
      </trkpt>
      <trkpt lat="43.40671" lon="5.51255">
        <ele>766.5</ele>
        <time>2023-10-15T08:42:55.000Z</time>
      </trkpt>
      <trkpt lat="43.40666" lon="5.51266">
        <ele>766.3</ele>
        <time>2023-10-15T08:43:09.000Z</time>
      </trkpt>
      <trkpt lat="43.40666" lon="5.51268">
        <ele>766.3</ele>
        <time>2023-10-15T08:43:13.000Z</time>
      </trkpt>
      <trkpt lat="43.40666" lon="5.51268">
        <ele>766.3</ele>
        <time>2023-10-15T08:43:21.000Z</time>
      </trkpt>
      <trkpt lat="43.40666" lon="5.51268">
        <ele>766.3</ele>
        <time>2023-10-15T08:43:22.000Z</time>
      </trkpt>
      <trkpt lat="43.40666" lon="5.51268">
        <ele>766.2</ele>
        <time>2023-10-15T08:43:38.000Z</time>
      </trkpt>
      <trkpt lat="43.40666" lon="5.51268">
        <ele>766.2</ele>
        <time>2023-10-15T08:43:39.000Z</time>
      </trkpt>
      <trkpt lat="43.40666" lon="5.51268">
        <ele>766.2</ele>
        <time>2023-10-15T08:43:41.000Z</time>
      </trkpt>
      <trkpt lat="43.40666" lon="5.51268">
        <ele>766.2</ele>
        <time>2023-10-15T08:43:42.000Z</time>
      </trkpt>
      <trkpt lat="43.40666" lon="5.51268">
        <ele>766.1</ele>
        <time>2023-10-15T08:44:33.000Z</time>
      </trkpt>
      <trkpt lat="43.40666" lon="5.51268">
        <ele>766.1</ele>
        <time>2023-10-15T08:44:34.000Z</time>
      </trkpt>
      <trkpt lat="43.40666" lon="5.51268">
        <ele>766.1</ele>
        <time>2023-10-15T08:44:45.000Z</time>
      </trkpt>
      <trkpt lat="43.40666" lon="5.51268">
        <ele>766.1</ele>
        <time>2023-10-15T08:44:46.000Z</time>
      </trkpt>
      <trkpt lat="43.40666" lon="5.51268">
        <ele>766.2</ele>
        <time>2023-10-15T08:45:05.000Z</time>
      </trkpt>
      <trkpt lat="43.40666" lon="5.51268">
        <ele>766.3</ele>
        <time>2023-10-15T08:45:06.000Z</time>
      </trkpt>
      <trkpt lat="43.40666" lon="5.51268">
        <ele>766.3</ele>
        <time>2023-10-15T08:45:29.000Z</time>
      </trkpt>
      <trkpt lat="43.40666" lon="5.51268">
        <ele>766.3</ele>
        <time>2023-10-15T08:45:31.000Z</time>
      </trkpt>
      <trkpt lat="43.40666" lon="5.51268">
        <ele>766.3</ele>
        <time>2023-10-15T08:45:50.000Z</time>
      </trkpt>
      <trkpt lat="43.40666" lon="5.51268">
        <ele>766.3</ele>
        <time>2023-10-15T08:45:51.000Z</time>
      </trkpt>
      <trkpt lat="43.40666" lon="5.51268">
        <ele>766.2</ele>
        <time>2023-10-15T08:46:07.000Z</time>
      </trkpt>
      <trkpt lat="43.40666" lon="5.51268">
        <ele>766.2</ele>
        <time>2023-10-15T08:46:08.000Z</time>
      </trkpt>
      <trkpt lat="43.40666" lon="5.51268">
        <ele>766.3</ele>
        <time>2023-10-15T08:46:22.000Z</time>
      </trkpt>
      <trkpt lat="43.40666" lon="5.51268">
        <ele>766.3</ele>
        <time>2023-10-15T08:46:23.000Z</time>
      </trkpt>
      <trkpt lat="43.40666" lon="5.51268">
        <ele>766.3</ele>
        <time>2023-10-15T08:46:28.000Z</time>
      </trkpt>
      <trkpt lat="43.40666" lon="5.51268">
        <ele>766.3</ele>
        <time>2023-10-15T08:46:29.000Z</time>
      </trkpt>
      <trkpt lat="43.40666" lon="5.51268">
        <ele>766.7</ele>
        <time>2023-10-15T08:47:24.000Z</time>
      </trkpt>
      <trkpt lat="43.40666" lon="5.51268">
        <ele>766.7</ele>
        <time>2023-10-15T08:47:26.000Z</time>
      </trkpt>
      <trkpt lat="43.40666" lon="5.51268">
        <ele>766.7</ele>
        <time>2023-10-15T08:47:27.000Z</time>
      </trkpt>
      <trkpt lat="43.40657" lon="5.51273">
        <ele>766.6</ele>
        <time>2023-10-15T08:47:38.000Z</time>
      </trkpt>
      <trkpt lat="43.40648" lon="5.51278">
        <ele>766.4</ele>
        <time>2023-10-15T08:47:46.000Z</time>
      </trkpt>
      <trkpt lat="43.40639" lon="5.51281">
        <ele>765.8</ele>
        <time>2023-10-15T08:47:54.000Z</time>
      </trkpt>
      <trkpt lat="43.4063" lon="5.51287">
        <ele>764.8</ele>
        <time>2023-10-15T08:48:05.000Z</time>
      </trkpt>
      <trkpt lat="43.40621" lon="5.51288">
        <ele>764.3</ele>
        <time>2023-10-15T08:48:12.000Z</time>
      </trkpt>
      <trkpt lat="43.40611" lon="5.51289">
        <ele>763.6</ele>
        <time>2023-10-15T08:48:20.000Z</time>
      </trkpt>
      <trkpt lat="43.40601" lon="5.51292">
        <ele>762.8</ele>
        <time>2023-10-15T08:48:30.000Z</time>
      </trkpt>
      <trkpt lat="43.40592" lon="5.51295">
        <ele>762.3</ele>
        <time>2023-10-15T08:48:38.000Z</time>
      </trkpt>
      <trkpt lat="43.40583" lon="5.5129">
        <ele>761.7</ele>
        <time>2023-10-15T08:48:49.000Z</time>
      </trkpt>
      <trkpt lat="43.40576" lon="5.51281">
        <ele>761.1</ele>
        <time>2023-10-15T08:48:58.000Z</time>
      </trkpt>
      <trkpt lat="43.40575" lon="5.51281">
        <ele>761</ele>
        <time>2023-10-15T08:49:03.000Z</time>
      </trkpt>
      <trkpt lat="43.40575" lon="5.51281">
        <ele>760.9</ele>
        <time>2023-10-15T08:49:05.000Z</time>
      </trkpt>
      <trkpt lat="43.40567" lon="5.51272">
        <ele>760.8</ele>
        <time>2023-10-15T08:49:18.000Z</time>
      </trkpt>
      <trkpt lat="43.4056" lon="5.51263">
        <ele>760.7</ele>
        <time>2023-10-15T08:49:29.000Z</time>
      </trkpt>
      <trkpt lat="43.40554" lon="5.51253">
        <ele>760.6</ele>
        <time>2023-10-15T08:49:39.000Z</time>
      </trkpt>
      <trkpt lat="43.40546" lon="5.51245">
        <ele>760.6</ele>
        <time>2023-10-15T08:49:50.000Z</time>
      </trkpt>
      <trkpt lat="43.4054" lon="5.51236">
        <ele>760.5</ele>
        <time>2023-10-15T08:50:03.000Z</time>
      </trkpt>
      <trkpt lat="43.40536" lon="5.51233">
        <ele>760.3</ele>
        <time>2023-10-15T08:50:20.000Z</time>
      </trkpt>
      <trkpt lat="43.40536" lon="5.51232">
        <ele>760.2</ele>
        <time>2023-10-15T08:50:25.000Z</time>
      </trkpt>
      <trkpt lat="43.4053" lon="5.51228">
        <ele>759.8</ele>
        <time>2023-10-15T08:50:45.000Z</time>
      </trkpt>
      <trkpt lat="43.4053" lon="5.51227">
        <ele>759.8</ele>
        <time>2023-10-15T08:50:47.000Z</time>
      </trkpt>
      <trkpt lat="43.4053" lon="5.51227">
        <ele>759.7</ele>
        <time>2023-10-15T08:50:50.000Z</time>
      </trkpt>
      <trkpt lat="43.4053" lon="5.51227">
        <ele>759.5</ele>
        <time>2023-10-15T08:51:06.000Z</time>
      </trkpt>
      <trkpt lat="43.4053" lon="5.51227">
        <ele>759.4</ele>
        <time>2023-10-15T08:51:07.000Z</time>
      </trkpt>
      <trkpt lat="43.4053" lon="5.51226">
        <ele>759.2</ele>
        <time>2023-10-15T08:51:23.000Z</time>
      </trkpt>
      <trkpt lat="43.4053" lon="5.51227">
        <ele>759.2</ele>
        <time>2023-10-15T08:51:25.000Z</time>
      </trkpt>
      <trkpt lat="43.4053" lon="5.51227">
        <ele>758.9</ele>
        <time>2023-10-15T08:51:36.000Z</time>
      </trkpt>
      <trkpt lat="43.40529" lon="5.51222">
        <ele>758.7</ele>
        <time>2023-10-15T08:51:46.000Z</time>
      </trkpt>
      <trkpt lat="43.4053" lon="5.51221">
        <ele>758.6</ele>
        <time>2023-10-15T08:52:03.000Z</time>
      </trkpt>
      <trkpt lat="43.40533" lon="5.51209">
        <ele>758.5</ele>
        <time>2023-10-15T08:52:12.000Z</time>
      </trkpt>
      <trkpt lat="43.40532" lon="5.51196">
        <ele>758</ele>
        <time>2023-10-15T08:52:22.000Z</time>
      </trkpt>
      <trkpt lat="43.40527" lon="5.51186">
        <ele>757.1</ele>
        <time>2023-10-15T08:52:31.000Z</time>
      </trkpt>
      <trkpt lat="43.4052" lon="5.51177">
        <ele>755.8</ele>
        <time>2023-10-15T08:52:39.000Z</time>
      </trkpt>
      <trkpt lat="43.40514" lon="5.51168">
        <ele>754.5</ele>
        <time>2023-10-15T08:52:50.000Z</time>
      </trkpt>
      <trkpt lat="43.40506" lon="5.51161">
        <ele>753.1</ele>
        <time>2023-10-15T08:53:04.000Z</time>
      </trkpt>
      <trkpt lat="43.40506" lon="5.51161">
        <ele>753</ele>
        <time>2023-10-15T08:53:07.000Z</time>
      </trkpt>
      <trkpt lat="43.40505" lon="5.51161">
        <ele>752.9</ele>
        <time>2023-10-15T08:53:08.000Z</time>
      </trkpt>
      <trkpt lat="43.40498" lon="5.51165">
        <ele>752.4</ele>
        <time>2023-10-15T08:53:24.000Z</time>
      </trkpt>
      <trkpt lat="43.40498" lon="5.51165">
        <ele>752.5</ele>
        <time>2023-10-15T08:53:29.000Z</time>
      </trkpt>
      <trkpt lat="43.40498" lon="5.51165">
        <ele>752.4</ele>
        <time>2023-10-15T08:53:30.000Z</time>
      </trkpt>
      <trkpt lat="43.40498" lon="5.51165">
        <ele>752.4</ele>
        <time>2023-10-15T08:53:35.000Z</time>
      </trkpt>
      <trkpt lat="43.40499" lon="5.51168">
        <ele>752.4</ele>
        <time>2023-10-15T08:53:45.000Z</time>
      </trkpt>
      <trkpt lat="43.40499" lon="5.51168">
        <ele>752.4</ele>
        <time>2023-10-15T08:53:51.000Z</time>
      </trkpt>
      <trkpt lat="43.40499" lon="5.5117">
        <ele>752.4</ele>
        <time>2023-10-15T08:53:55.000Z</time>
      </trkpt>
      <trkpt lat="43.40499" lon="5.5117">
        <ele>752.4</ele>
        <time>2023-10-15T08:54:00.000Z</time>
      </trkpt>
      <trkpt lat="43.40499" lon="5.5117">
        <ele>752.4</ele>
        <time>2023-10-15T08:54:02.000Z</time>
      </trkpt>
      <trkpt lat="43.40499" lon="5.5117">
        <ele>752.4</ele>
        <time>2023-10-15T08:54:05.000Z</time>
      </trkpt>
      <trkpt lat="43.40498" lon="5.5117">
        <ele>752.4</ele>
        <time>2023-10-15T08:54:07.000Z</time>
      </trkpt>
      <trkpt lat="43.40498" lon="5.5117">
        <ele>752.4</ele>
        <time>2023-10-15T08:54:09.000Z</time>
      </trkpt>
      <trkpt lat="43.40498" lon="5.5117">
        <ele>752.4</ele>
        <time>2023-10-15T08:54:10.000Z</time>
      </trkpt>
      <trkpt lat="43.40498" lon="5.5117">
        <ele>752.6</ele>
        <time>2023-10-15T08:54:25.000Z</time>
      </trkpt>
      <trkpt lat="43.40498" lon="5.5117">
        <ele>752.6</ele>
        <time>2023-10-15T08:54:26.000Z</time>
      </trkpt>
      <trkpt lat="43.40498" lon="5.5117">
        <ele>752.7</ele>
        <time>2023-10-15T08:54:32.000Z</time>
      </trkpt>
      <trkpt lat="43.40498" lon="5.51169">
        <ele>752.7</ele>
        <time>2023-10-15T08:54:34.000Z</time>
      </trkpt>
      <trkpt lat="43.40498" lon="5.51169">
        <ele>752.8</ele>
        <time>2023-10-15T08:54:41.000Z</time>
      </trkpt>
      <trkpt lat="43.40498" lon="5.5117">
        <ele>752.8</ele>
        <time>2023-10-15T08:54:42.000Z</time>
      </trkpt>
      <trkpt lat="43.40498" lon="5.5117">
        <ele>752.8</ele>
        <time>2023-10-15T08:54:46.000Z</time>
      </trkpt>
      <trkpt lat="43.40498" lon="5.5117">
        <ele>752.8</ele>
        <time>2023-10-15T08:54:47.000Z</time>
      </trkpt>
      <trkpt lat="43.40498" lon="5.5117">
        <ele>752.8</ele>
        <time>2023-10-15T08:54:51.000Z</time>
      </trkpt>
      <trkpt lat="43.40498" lon="5.5117">
        <ele>752.8</ele>
        <time>2023-10-15T08:54:52.000Z</time>
      </trkpt>
      <trkpt lat="43.40498" lon="5.5117">
        <ele>753.2</ele>
        <time>2023-10-15T08:56:03.000Z</time>
      </trkpt>
      <trkpt lat="43.40498" lon="5.5117">
        <ele>753.2</ele>
        <time>2023-10-15T08:56:04.000Z</time>
      </trkpt>
      <trkpt lat="43.40498" lon="5.5117">
        <ele>753.9</ele>
        <time>2023-10-15T08:57:34.000Z</time>
      </trkpt>
      <trkpt lat="43.40498" lon="5.5117">
        <ele>753.9</ele>
        <time>2023-10-15T08:57:35.000Z</time>
      </trkpt>
      <trkpt lat="43.40498" lon="5.5117">
        <ele>754.3</ele>
        <time>2023-10-15T08:58:30.000Z</time>
      </trkpt>
      <trkpt lat="43.40498" lon="5.5117">
        <ele>754.3</ele>
        <time>2023-10-15T08:58:31.000Z</time>
      </trkpt>
      <trkpt lat="43.40498" lon="5.5117">
        <ele>754.4</ele>
        <time>2023-10-15T08:58:34.000Z</time>
      </trkpt>
      <trkpt lat="43.40498" lon="5.5117">
        <ele>754.4</ele>
        <time>2023-10-15T08:58:36.000Z</time>
      </trkpt>
      <trkpt lat="43.40497" lon="5.5117">
        <ele>754.6</ele>
        <time>2023-10-15T08:59:11.000Z</time>
      </trkpt>
      <trkpt lat="43.40497" lon="5.5117">
        <ele>754.6</ele>
        <time>2023-10-15T08:59:12.000Z</time>
      </trkpt>
      <trkpt lat="43.40497" lon="5.5117">
        <ele>755.2</ele>
        <time>2023-10-15T09:00:13.000Z</time>
      </trkpt>
      <trkpt lat="43.40497" lon="5.5117">
        <ele>755.2</ele>
        <time>2023-10-15T09:00:15.000Z</time>
      </trkpt>
      <trkpt lat="43.40497" lon="5.5117">
        <ele>755.2</ele>
        <time>2023-10-15T09:00:47.000Z</time>
      </trkpt>
      <trkpt lat="43.40498" lon="5.51167">
        <ele>755.2</ele>
        <time>2023-10-15T09:00:55.000Z</time>
      </trkpt>
      <trkpt lat="43.40498" lon="5.51167">
        <ele>755.2</ele>
        <time>2023-10-15T09:00:56.000Z</time>
      </trkpt>
      <trkpt lat="43.405" lon="5.51165">
        <ele>755.2</ele>
        <time>2023-10-15T09:01:03.000Z</time>
      </trkpt>
      <trkpt lat="43.405" lon="5.51164">
        <ele>755.2</ele>
        <time>2023-10-15T09:01:04.000Z</time>
      </trkpt>
      <trkpt lat="43.40499" lon="5.51164">
        <ele>755.2</ele>
        <time>2023-10-15T09:01:07.000Z</time>
      </trkpt>
      <trkpt lat="43.40499" lon="5.51164">
        <ele>755.2</ele>
        <time>2023-10-15T09:01:15.000Z</time>
      </trkpt>
      <trkpt lat="43.40499" lon="5.51164">
        <ele>755.2</ele>
        <time>2023-10-15T09:01:16.000Z</time>
      </trkpt>
      <trkpt lat="43.405" lon="5.51164">
        <ele>755.2</ele>
        <time>2023-10-15T09:01:28.000Z</time>
      </trkpt>
      <trkpt lat="43.405" lon="5.51164">
        <ele>755.2</ele>
        <time>2023-10-15T09:01:29.000Z</time>
      </trkpt>
      <trkpt lat="43.40499" lon="5.51164">
        <ele>755.2</ele>
        <time>2023-10-15T09:01:31.000Z</time>
      </trkpt>
      <trkpt lat="43.405" lon="5.51165">
        <ele>755.2</ele>
        <time>2023-10-15T09:01:33.000Z</time>
      </trkpt>
      <trkpt lat="43.40499" lon="5.51164">
        <ele>755.2</ele>
        <time>2023-10-15T09:01:36.000Z</time>
      </trkpt>
      <trkpt lat="43.40499" lon="5.51164">
        <ele>755.2</ele>
        <time>2023-10-15T09:01:38.000Z</time>
      </trkpt>
      <trkpt lat="43.40499" lon="5.51164">
        <ele>755.3</ele>
        <time>2023-10-15T09:01:43.000Z</time>
      </trkpt>
      <trkpt lat="43.40499" lon="5.51164">
        <ele>755.3</ele>
        <time>2023-10-15T09:01:44.000Z</time>
      </trkpt>
      <trkpt lat="43.40499" lon="5.51164">
        <ele>755.3</ele>
        <time>2023-10-15T09:01:48.000Z</time>
      </trkpt>
      <trkpt lat="43.40506" lon="5.51155">
        <ele>755.2</ele>
        <time>2023-10-15T09:02:06.000Z</time>
      </trkpt>
      <trkpt lat="43.4051" lon="5.51143">
        <ele>754.7</ele>
        <time>2023-10-15T09:02:20.000Z</time>
      </trkpt>
      <trkpt lat="43.40509" lon="5.5113">
        <ele>753.5</ele>
        <time>2023-10-15T09:02:36.000Z</time>
      </trkpt>
      <trkpt lat="43.40506" lon="5.51117">
        <ele>752</ele>
        <time>2023-10-15T09:02:48.000Z</time>
      </trkpt>
      <trkpt lat="43.40504" lon="5.5111">
        <ele>750.9</ele>
        <time>2023-10-15T09:03:01.000Z</time>
      </trkpt>
      <trkpt lat="43.40505" lon="5.5111">
        <ele>750.8</ele>
        <time>2023-10-15T09:03:05.000Z</time>
      </trkpt>
      <trkpt lat="43.40505" lon="5.51109">
        <ele>750.8</ele>
        <time>2023-10-15T09:03:11.000Z</time>
      </trkpt>
      <trkpt lat="43.40506" lon="5.51109">
        <ele>750.7</ele>
        <time>2023-10-15T09:03:14.000Z</time>
      </trkpt>
      <trkpt lat="43.40506" lon="5.51109">
        <ele>750.7</ele>
        <time>2023-10-15T09:03:15.000Z</time>
      </trkpt>
      <trkpt lat="43.40506" lon="5.51109">
        <ele>750.8</ele>
        <time>2023-10-15T09:03:20.000Z</time>
      </trkpt>
      <trkpt lat="43.40505" lon="5.51105">
        <ele>750.7</ele>
        <time>2023-10-15T09:03:27.000Z</time>
      </trkpt>
      <trkpt lat="43.40505" lon="5.51105">
        <ele>750.7</ele>
        <time>2023-10-15T09:03:32.000Z</time>
      </trkpt>
      <trkpt lat="43.40505" lon="5.51106">
        <ele>750.7</ele>
        <time>2023-10-15T09:03:36.000Z</time>
      </trkpt>
      <trkpt lat="43.40506" lon="5.51106">
        <ele>750.6</ele>
        <time>2023-10-15T09:03:37.000Z</time>
      </trkpt>
      <trkpt lat="43.40502" lon="5.51094">
        <ele>750.1</ele>
        <time>2023-10-15T09:03:53.000Z</time>
      </trkpt>
      <trkpt lat="43.40493" lon="5.51089">
        <ele>748.5</ele>
        <time>2023-10-15T09:04:16.000Z</time>
      </trkpt>
      <trkpt lat="43.40494" lon="5.51089">
        <ele>747.9</ele>
        <time>2023-10-15T09:04:24.000Z</time>
      </trkpt>
      <trkpt lat="43.40494" lon="5.51088">
        <ele>747.7</ele>
        <time>2023-10-15T09:04:31.000Z</time>
      </trkpt>
      <trkpt lat="43.40493" lon="5.51088">
        <ele>747.7</ele>
        <time>2023-10-15T09:04:33.000Z</time>
      </trkpt>
      <trkpt lat="43.40493" lon="5.51089">
        <ele>747.7</ele>
        <time>2023-10-15T09:04:34.000Z</time>
      </trkpt>
      <trkpt lat="43.40493" lon="5.51089">
        <ele>747.6</ele>
        <time>2023-10-15T09:04:36.000Z</time>
      </trkpt>
      <trkpt lat="43.40493" lon="5.51089">
        <ele>747.6</ele>
        <time>2023-10-15T09:04:37.000Z</time>
      </trkpt>
      <trkpt lat="43.40493" lon="5.51089">
        <ele>747.6</ele>
        <time>2023-10-15T09:04:38.000Z</time>
      </trkpt>
      <trkpt lat="43.40493" lon="5.51089">
        <ele>747.5</ele>
        <time>2023-10-15T09:04:40.000Z</time>
      </trkpt>
      <trkpt lat="43.405" lon="5.51081">
        <ele>747.4</ele>
        <time>2023-10-15T09:04:56.000Z</time>
      </trkpt>
      <trkpt lat="43.40505" lon="5.5107">
        <ele>746.6</ele>
        <time>2023-10-15T09:05:17.000Z</time>
      </trkpt>
      <trkpt lat="43.40499" lon="5.5106">
        <ele>745.2</ele>
        <time>2023-10-15T09:05:31.000Z</time>
      </trkpt>
      <trkpt lat="43.40497" lon="5.51047">
        <ele>743.5</ele>
        <time>2023-10-15T09:05:46.000Z</time>
      </trkpt>
      <trkpt lat="43.405" lon="5.51036">
        <ele>742.6</ele>
        <time>2023-10-15T09:06:04.000Z</time>
      </trkpt>
      <trkpt lat="43.405" lon="5.51036">
        <ele>742.6</ele>
        <time>2023-10-15T09:06:05.000Z</time>
      </trkpt>
      <trkpt lat="43.405" lon="5.51036">
        <ele>742.6</ele>
        <time>2023-10-15T09:06:06.000Z</time>
      </trkpt>
      <trkpt lat="43.405" lon="5.51036">
        <ele>742.6</ele>
        <time>2023-10-15T09:06:07.000Z</time>
      </trkpt>
      <trkpt lat="43.40499" lon="5.51024">
        <ele>742.4</ele>
        <time>2023-10-15T09:06:21.000Z</time>
      </trkpt>
      <trkpt lat="43.40499" lon="5.51011">
        <ele>742.6</ele>
        <time>2023-10-15T09:06:33.000Z</time>
      </trkpt>
      <trkpt lat="43.40495" lon="5.51">
        <ele>742.8</ele>
        <time>2023-10-15T09:06:44.000Z</time>
      </trkpt>
      <trkpt lat="43.40496" lon="5.50986">
        <ele>742.7</ele>
        <time>2023-10-15T09:06:56.000Z</time>
      </trkpt>
      <trkpt lat="43.40491" lon="5.50975">
        <ele>742.7</ele>
        <time>2023-10-15T09:07:06.000Z</time>
      </trkpt>
      <trkpt lat="43.4049" lon="5.50962">
        <ele>742.7</ele>
        <time>2023-10-15T09:07:19.000Z</time>
      </trkpt>
      <trkpt lat="43.40487" lon="5.5095">
        <ele>742.9</ele>
        <time>2023-10-15T09:07:35.000Z</time>
      </trkpt>
      <trkpt lat="43.40489" lon="5.50945">
        <ele>742.9</ele>
        <time>2023-10-15T09:07:46.000Z</time>
      </trkpt>
      <trkpt lat="43.40489" lon="5.50945">
        <ele>742.9</ele>
        <time>2023-10-15T09:07:47.000Z</time>
      </trkpt>
      <trkpt lat="43.40491" lon="5.50932">
        <ele>742.3</ele>
        <time>2023-10-15T09:08:05.000Z</time>
      </trkpt>
      <trkpt lat="43.40491" lon="5.50929">
        <ele>742.1</ele>
        <time>2023-10-15T09:08:08.000Z</time>
      </trkpt>
      <trkpt lat="43.40491" lon="5.5093">
        <ele>742</ele>
        <time>2023-10-15T09:08:09.000Z</time>
      </trkpt>
      <trkpt lat="43.40485" lon="5.5092">
        <ele>741.8</ele>
        <time>2023-10-15T09:08:32.000Z</time>
      </trkpt>
      <trkpt lat="43.40486" lon="5.50908">
        <ele>740.9</ele>
        <time>2023-10-15T09:08:44.000Z</time>
      </trkpt>
      <trkpt lat="43.40485" lon="5.50901">
        <ele>740.1</ele>
        <time>2023-10-15T09:08:55.000Z</time>
      </trkpt>
      <trkpt lat="43.40485" lon="5.509">
        <ele>740</ele>
        <time>2023-10-15T09:08:56.000Z</time>
      </trkpt>
      <trkpt lat="43.40484" lon="5.50888">
        <ele>738.9</ele>
        <time>2023-10-15T09:09:06.000Z</time>
      </trkpt>
      <trkpt lat="43.40482" lon="5.50875">
        <ele>738.3</ele>
        <time>2023-10-15T09:09:16.000Z</time>
      </trkpt>
      <trkpt lat="43.40481" lon="5.50864">
        <ele>738.4</ele>
        <time>2023-10-15T09:09:31.000Z</time>
      </trkpt>
      <trkpt lat="43.40481" lon="5.50864">
        <ele>738.4</ele>
        <time>2023-10-15T09:09:34.000Z</time>
      </trkpt>
      <trkpt lat="43.40481" lon="5.50864">
        <ele>738.3</ele>
        <time>2023-10-15T09:09:35.000Z</time>
      </trkpt>
      <trkpt lat="43.40481" lon="5.50864">
        <ele>737.8</ele>
        <time>2023-10-15T09:09:38.000Z</time>
      </trkpt>
      <trkpt lat="43.40481" lon="5.50864">
        <ele>737.8</ele>
        <time>2023-10-15T09:09:39.000Z</time>
      </trkpt>
      <trkpt lat="43.40481" lon="5.50864">
        <ele>738</ele>
        <time>2023-10-15T09:09:44.000Z</time>
      </trkpt>
      <trkpt lat="43.40481" lon="5.50864">
        <ele>738</ele>
        <time>2023-10-15T09:09:45.000Z</time>
      </trkpt>
      <trkpt lat="43.40481" lon="5.50864">
        <ele>738.6</ele>
        <time>2023-10-15T09:09:56.000Z</time>
      </trkpt>
      <trkpt lat="43.40481" lon="5.50864">
        <ele>738.6</ele>
        <time>2023-10-15T09:09:57.000Z</time>
      </trkpt>
      <trkpt lat="43.4048" lon="5.50864">
        <ele>738.7</ele>
        <time>2023-10-15T09:09:59.000Z</time>
      </trkpt>
      <trkpt lat="43.40485" lon="5.50853">
        <ele>736.8</ele>
        <time>2023-10-15T09:10:20.000Z</time>
      </trkpt>
      <trkpt lat="43.40485" lon="5.50853">
        <ele>736.7</ele>
        <time>2023-10-15T09:10:21.000Z</time>
      </trkpt>
      <trkpt lat="43.40485" lon="5.50853">
        <ele>736.7</ele>
        <time>2023-10-15T09:10:22.000Z</time>
      </trkpt>
      <trkpt lat="43.40485" lon="5.50854">
        <ele>736.6</ele>
        <time>2023-10-15T09:10:23.000Z</time>
      </trkpt>
      <trkpt lat="43.40482" lon="5.50845">
        <ele>735.8</ele>
        <time>2023-10-15T09:10:33.000Z</time>
      </trkpt>
      <trkpt lat="43.40481" lon="5.50845">
        <ele>735.7</ele>
        <time>2023-10-15T09:10:35.000Z</time>
      </trkpt>
      <trkpt lat="43.40481" lon="5.50844">
        <ele>735.5</ele>
        <time>2023-10-15T09:10:40.000Z</time>
      </trkpt>
      <trkpt lat="43.4048" lon="5.50844">
        <ele>735.5</ele>
        <time>2023-10-15T09:10:41.000Z</time>
      </trkpt>
      <trkpt lat="43.40477" lon="5.50838">
        <ele>734</ele>
        <time>2023-10-15T09:10:58.000Z</time>
      </trkpt>
      <trkpt lat="43.40477" lon="5.50838">
        <ele>733.8</ele>
        <time>2023-10-15T09:11:00.000Z</time>
      </trkpt>
      <trkpt lat="43.40481" lon="5.50827">
        <ele>731.7</ele>
        <time>2023-10-15T09:11:20.000Z</time>
      </trkpt>
      <trkpt lat="43.40486" lon="5.50815">
        <ele>730.2</ele>
        <time>2023-10-15T09:11:32.000Z</time>
      </trkpt>
      <trkpt lat="43.40489" lon="5.50805">
        <ele>728.7</ele>
        <time>2023-10-15T09:11:44.000Z</time>
      </trkpt>
      <trkpt lat="43.40489" lon="5.50804">
        <ele>728.7</ele>
        <time>2023-10-15T09:11:45.000Z</time>
      </trkpt>
      <trkpt lat="43.40487" lon="5.50792">
        <ele>727.3</ele>
        <time>2023-10-15T09:12:03.000Z</time>
      </trkpt>
      <trkpt lat="43.40482" lon="5.50781">
        <ele>724.7</ele>
        <time>2023-10-15T09:12:24.000Z</time>
      </trkpt>
      <trkpt lat="43.40481" lon="5.50769">
        <ele>722.6</ele>
        <time>2023-10-15T09:12:39.000Z</time>
      </trkpt>
      <trkpt lat="43.40482" lon="5.50756">
        <ele>721.4</ele>
        <time>2023-10-15T09:12:52.000Z</time>
      </trkpt>
      <trkpt lat="43.40485" lon="5.50748">
        <ele>720.8</ele>
        <time>2023-10-15T09:13:03.000Z</time>
      </trkpt>
      <trkpt lat="43.40485" lon="5.50748">
        <ele>720.7</ele>
        <time>2023-10-15T09:13:04.000Z</time>
      </trkpt>
      <trkpt lat="43.40489" lon="5.50736">
        <ele>719.8</ele>
        <time>2023-10-15T09:13:18.000Z</time>
      </trkpt>
      <trkpt lat="43.40494" lon="5.50725">
        <ele>718.8</ele>
        <time>2023-10-15T09:13:30.000Z</time>
      </trkpt>
      <trkpt lat="43.40497" lon="5.50713">
        <ele>717.3</ele>
        <time>2023-10-15T09:13:45.000Z</time>
      </trkpt>
      <trkpt lat="43.40496" lon="5.507">
        <ele>716.1</ele>
        <time>2023-10-15T09:13:58.000Z</time>
      </trkpt>
      <trkpt lat="43.40494" lon="5.50688">
        <ele>714.6</ele>
        <time>2023-10-15T09:14:12.000Z</time>
      </trkpt>
      <trkpt lat="43.40492" lon="5.50675">
        <ele>713.7</ele>
        <time>2023-10-15T09:14:21.000Z</time>
      </trkpt>
      <trkpt lat="43.40493" lon="5.50662">
        <ele>713.3</ele>
        <time>2023-10-15T09:14:31.000Z</time>
      </trkpt>
      <trkpt lat="43.40492" lon="5.5065">
        <ele>713.1</ele>
        <time>2023-10-15T09:14:40.000Z</time>
      </trkpt>
      <trkpt lat="43.40488" lon="5.50642">
        <ele>713.1</ele>
        <time>2023-10-15T09:14:50.000Z</time>
      </trkpt>
      <trkpt lat="43.40488" lon="5.50643">
        <ele>713.2</ele>
        <time>2023-10-15T09:14:59.000Z</time>
      </trkpt>
      <trkpt lat="43.40488" lon="5.50643">
        <ele>713.2</ele>
        <time>2023-10-15T09:15:02.000Z</time>
      </trkpt>
      <trkpt lat="43.40488" lon="5.50643">
        <ele>713.4</ele>
        <time>2023-10-15T09:15:11.000Z</time>
      </trkpt>
      <trkpt lat="43.40488" lon="5.50643">
        <ele>713.4</ele>
        <time>2023-10-15T09:15:12.000Z</time>
      </trkpt>
      <trkpt lat="43.40488" lon="5.50644">
        <ele>713.6</ele>
        <time>2023-10-15T09:15:25.000Z</time>
      </trkpt>
      <trkpt lat="43.40488" lon="5.50644">
        <ele>713.6</ele>
        <time>2023-10-15T09:15:27.000Z</time>
      </trkpt>
      <trkpt lat="43.40488" lon="5.50644">
        <ele>713.6</ele>
        <time>2023-10-15T09:15:30.000Z</time>
      </trkpt>
      <trkpt lat="43.40488" lon="5.50644">
        <ele>713.6</ele>
        <time>2023-10-15T09:15:31.000Z</time>
      </trkpt>
      <trkpt lat="43.40487" lon="5.50644">
        <ele>713.6</ele>
        <time>2023-10-15T09:15:34.000Z</time>
      </trkpt>
      <trkpt lat="43.40488" lon="5.50643">
        <ele>713.6</ele>
        <time>2023-10-15T09:15:40.000Z</time>
      </trkpt>
      <trkpt lat="43.40487" lon="5.50642">
        <ele>713.8</ele>
        <time>2023-10-15T09:16:31.000Z</time>
      </trkpt>
      <trkpt lat="43.40487" lon="5.50642">
        <ele>713.9</ele>
        <time>2023-10-15T09:16:32.000Z</time>
      </trkpt>
      <trkpt lat="43.40488" lon="5.50642">
        <ele>713.9</ele>
        <time>2023-10-15T09:16:41.000Z</time>
      </trkpt>
      <trkpt lat="43.40488" lon="5.50642">
        <ele>714</ele>
        <time>2023-10-15T09:16:42.000Z</time>
      </trkpt>
      <trkpt lat="43.40487" lon="5.50642">
        <ele>714</ele>
        <time>2023-10-15T09:16:43.000Z</time>
      </trkpt>
      <trkpt lat="43.40487" lon="5.50642">
        <ele>714</ele>
        <time>2023-10-15T09:16:44.000Z</time>
      </trkpt>
      <trkpt lat="43.40487" lon="5.50641">
        <ele>714.1</ele>
        <time>2023-10-15T09:17:25.000Z</time>
      </trkpt>
      <trkpt lat="43.40487" lon="5.50641">
        <ele>714.1</ele>
        <time>2023-10-15T09:17:27.000Z</time>
      </trkpt>
      <trkpt lat="43.40487" lon="5.5064">
        <ele>714.1</ele>
        <time>2023-10-15T09:17:32.000Z</time>
      </trkpt>
      <trkpt lat="43.40485" lon="5.50628">
        <ele>714.5</ele>
        <time>2023-10-15T09:17:49.000Z</time>
      </trkpt>
      <trkpt lat="43.40485" lon="5.50615">
        <ele>715.1</ele>
        <time>2023-10-15T09:18:01.000Z</time>
      </trkpt>
      <trkpt lat="43.40479" lon="5.50604">
        <ele>716.4</ele>
        <time>2023-10-15T09:18:13.000Z</time>
      </trkpt>
      <trkpt lat="43.40479" lon="5.50591">
        <ele>718.2</ele>
        <time>2023-10-15T09:18:26.000Z</time>
      </trkpt>
      <trkpt lat="43.40477" lon="5.50578">
        <ele>720.1</ele>
        <time>2023-10-15T09:18:43.000Z</time>
      </trkpt>
      <trkpt lat="43.40474" lon="5.50566">
        <ele>721.7</ele>
        <time>2023-10-15T09:18:57.000Z</time>
      </trkpt>
      <trkpt lat="43.40471" lon="5.50555">
        <ele>723.6</ele>
        <time>2023-10-15T09:19:16.000Z</time>
      </trkpt>
      <trkpt lat="43.40469" lon="5.50552">
        <ele>724.3</ele>
        <time>2023-10-15T09:19:23.000Z</time>
      </trkpt>
      <trkpt lat="43.40469" lon="5.50551">
        <ele>724.5</ele>
        <time>2023-10-15T09:19:25.000Z</time>
      </trkpt>
      <trkpt lat="43.40469" lon="5.50538">
        <ele>727</ele>
        <time>2023-10-15T09:19:46.000Z</time>
      </trkpt>
      <trkpt lat="43.40464" lon="5.50527">
        <ele>727.9</ele>
        <time>2023-10-15T09:20:01.000Z</time>
      </trkpt>
      <trkpt lat="43.40461" lon="5.50515">
        <ele>727.8</ele>
        <time>2023-10-15T09:20:11.000Z</time>
      </trkpt>
      <trkpt lat="43.40462" lon="5.50504">
        <ele>727.6</ele>
        <time>2023-10-15T09:20:21.000Z</time>
      </trkpt>
      <trkpt lat="43.40462" lon="5.50504">
        <ele>727.6</ele>
        <time>2023-10-15T09:20:22.000Z</time>
      </trkpt>
      <trkpt lat="43.40462" lon="5.50504">
        <ele>727.6</ele>
        <time>2023-10-15T09:20:23.000Z</time>
      </trkpt>
      <trkpt lat="43.40462" lon="5.50504">
        <ele>727.5</ele>
        <time>2023-10-15T09:20:26.000Z</time>
      </trkpt>
      <trkpt lat="43.40461" lon="5.50504">
        <ele>727.4</ele>
        <time>2023-10-15T09:20:30.000Z</time>
      </trkpt>
      <trkpt lat="43.40461" lon="5.50504">
        <ele>727.4</ele>
        <time>2023-10-15T09:20:35.000Z</time>
      </trkpt>
      <trkpt lat="43.40465" lon="5.50492">
        <ele>727</ele>
        <time>2023-10-15T09:20:49.000Z</time>
      </trkpt>
      <trkpt lat="43.40462" lon="5.50479">
        <ele>726.4</ele>
        <time>2023-10-15T09:20:59.000Z</time>
      </trkpt>
      <trkpt lat="43.40464" lon="5.50473">
        <ele>726.1</ele>
        <time>2023-10-15T09:21:07.000Z</time>
      </trkpt>
      <trkpt lat="43.40465" lon="5.50473">
        <ele>726.1</ele>
        <time>2023-10-15T09:21:12.000Z</time>
      </trkpt>
      <trkpt lat="43.40469" lon="5.50462">
        <ele>726.4</ele>
        <time>2023-10-15T09:21:28.000Z</time>
      </trkpt>
      <trkpt lat="43.40469" lon="5.50449">
        <ele>727.7</ele>
        <time>2023-10-15T09:21:49.000Z</time>
      </trkpt>
      <trkpt lat="43.40467" lon="5.50436">
        <ele>728.6</ele>
        <time>2023-10-15T09:22:07.000Z</time>
      </trkpt>
      <trkpt lat="43.40467" lon="5.50436">
        <ele>728.7</ele>
        <time>2023-10-15T09:22:08.000Z</time>
      </trkpt>
      <trkpt lat="43.40467" lon="5.50436">
        <ele>728.8</ele>
        <time>2023-10-15T09:22:10.000Z</time>
      </trkpt>
      <trkpt lat="43.40465" lon="5.50424">
        <ele>729.5</ele>
        <time>2023-10-15T09:22:27.000Z</time>
      </trkpt>
      <trkpt lat="43.40467" lon="5.50412">
        <ele>730.3</ele>
        <time>2023-10-15T09:22:42.000Z</time>
      </trkpt>
      <trkpt lat="43.40465" lon="5.50408">
        <ele>730.3</ele>
        <time>2023-10-15T09:22:52.000Z</time>
      </trkpt>
      <trkpt lat="43.40465" lon="5.50408">
        <ele>730.3</ele>
        <time>2023-10-15T09:23:02.000Z</time>
      </trkpt>
      <trkpt lat="43.40464" lon="5.50404">
        <ele>730.5</ele>
        <time>2023-10-15T09:23:11.000Z</time>
      </trkpt>
      <trkpt lat="43.40464" lon="5.50404">
        <ele>730.6</ele>
        <time>2023-10-15T09:23:18.000Z</time>
      </trkpt>
      <trkpt lat="43.40461" lon="5.50395">
        <ele>730.8</ele>
        <time>2023-10-15T09:23:30.000Z</time>
      </trkpt>
      <trkpt lat="43.4046" lon="5.50395">
        <ele>730.9</ele>
        <time>2023-10-15T09:23:33.000Z</time>
      </trkpt>
      <trkpt lat="43.4046" lon="5.50395">
        <ele>730.9</ele>
        <time>2023-10-15T09:23:34.000Z</time>
      </trkpt>
      <trkpt lat="43.4046" lon="5.50395">
        <ele>731</ele>
        <time>2023-10-15T09:23:43.000Z</time>
      </trkpt>
      <trkpt lat="43.4046" lon="5.50395">
        <ele>731</ele>
        <time>2023-10-15T09:23:44.000Z</time>
      </trkpt>
      <trkpt lat="43.4046" lon="5.50395">
        <ele>731</ele>
        <time>2023-10-15T09:23:48.000Z</time>
      </trkpt>
      <trkpt lat="43.4046" lon="5.50395">
        <ele>731</ele>
        <time>2023-10-15T09:23:51.000Z</time>
      </trkpt>
      <trkpt lat="43.40459" lon="5.50394">
        <ele>731</ele>
        <time>2023-10-15T09:23:53.000Z</time>
      </trkpt>
      <trkpt lat="43.40459" lon="5.50394">
        <ele>731</ele>
        <time>2023-10-15T09:23:54.000Z</time>
      </trkpt>
      <trkpt lat="43.4046" lon="5.50394">
        <ele>731.1</ele>
        <time>2023-10-15T09:23:55.000Z</time>
      </trkpt>
      <trkpt lat="43.4046" lon="5.50394">
        <ele>731.1</ele>
        <time>2023-10-15T09:23:56.000Z</time>
      </trkpt>
      <trkpt lat="43.40459" lon="5.50394">
        <ele>731.1</ele>
        <time>2023-10-15T09:23:57.000Z</time>
      </trkpt>
      <trkpt lat="43.40459" lon="5.50392">
        <ele>731.1</ele>
        <time>2023-10-15T09:24:02.000Z</time>
      </trkpt>
      <trkpt lat="43.40459" lon="5.50392">
        <ele>731.1</ele>
        <time>2023-10-15T09:24:04.000Z</time>
      </trkpt>
      <trkpt lat="43.40459" lon="5.50392">
        <ele>731.1</ele>
        <time>2023-10-15T09:24:05.000Z</time>
      </trkpt>
      <trkpt lat="43.40459" lon="5.50391">
        <ele>731.1</ele>
        <time>2023-10-15T09:24:06.000Z</time>
      </trkpt>
      <trkpt lat="43.40457" lon="5.50389">
        <ele>730.9</ele>
        <time>2023-10-15T09:24:16.000Z</time>
      </trkpt>
      <trkpt lat="43.40457" lon="5.50389">
        <ele>730.9</ele>
        <time>2023-10-15T09:24:17.000Z</time>
      </trkpt>
      <trkpt lat="43.40457" lon="5.50389">
        <ele>730.9</ele>
        <time>2023-10-15T09:24:20.000Z</time>
      </trkpt>
      <trkpt lat="43.40457" lon="5.50389">
        <ele>730.7</ele>
        <time>2023-10-15T09:24:48.000Z</time>
      </trkpt>
      <trkpt lat="43.40456" lon="5.50388">
        <ele>730.6</ele>
        <time>2023-10-15T09:24:52.000Z</time>
      </trkpt>
      <trkpt lat="43.40456" lon="5.50387">
        <ele>730.5</ele>
        <time>2023-10-15T09:25:08.000Z</time>
      </trkpt>
      <trkpt lat="43.40455" lon="5.50386">
        <ele>730.4</ele>
        <time>2023-10-15T09:25:13.000Z</time>
      </trkpt>
      <trkpt lat="43.40455" lon="5.50386">
        <ele>730.3</ele>
        <time>2023-10-15T09:25:20.000Z</time>
      </trkpt>
      <trkpt lat="43.40455" lon="5.50386">
        <ele>730.3</ele>
        <time>2023-10-15T09:25:21.000Z</time>
      </trkpt>
      <trkpt lat="43.40455" lon="5.50386">
        <ele>730.3</ele>
        <time>2023-10-15T09:25:28.000Z</time>
      </trkpt>
      <trkpt lat="43.40454" lon="5.50385">
        <ele>730.3</ele>
        <time>2023-10-15T09:25:32.000Z</time>
      </trkpt>
      <trkpt lat="43.40454" lon="5.50386">
        <ele>730.4</ele>
        <time>2023-10-15T09:25:35.000Z</time>
      </trkpt>
      <trkpt lat="43.40454" lon="5.50385">
        <ele>730.4</ele>
        <time>2023-10-15T09:25:36.000Z</time>
      </trkpt>
      <trkpt lat="43.40454" lon="5.50385">
        <ele>730.4</ele>
        <time>2023-10-15T09:25:38.000Z</time>
      </trkpt>
      <trkpt lat="43.40455" lon="5.50383">
        <ele>730.3</ele>
        <time>2023-10-15T09:25:44.000Z</time>
      </trkpt>
      <trkpt lat="43.40455" lon="5.50383">
        <ele>730.3</ele>
        <time>2023-10-15T09:25:45.000Z</time>
      </trkpt>
      <trkpt lat="43.40455" lon="5.50383">
        <ele>730.3</ele>
        <time>2023-10-15T09:25:46.000Z</time>
      </trkpt>
      <trkpt lat="43.40454" lon="5.50383">
        <ele>730.3</ele>
        <time>2023-10-15T09:25:49.000Z</time>
      </trkpt>
      <trkpt lat="43.40454" lon="5.50383">
        <ele>730.3</ele>
        <time>2023-10-15T09:25:50.000Z</time>
      </trkpt>
      <trkpt lat="43.40455" lon="5.50382">
        <ele>730.3</ele>
        <time>2023-10-15T09:25:53.000Z</time>
      </trkpt>
      <trkpt lat="43.40454" lon="5.50383">
        <ele>730.2</ele>
        <time>2023-10-15T09:25:58.000Z</time>
      </trkpt>
      <trkpt lat="43.40454" lon="5.50382">
        <ele>730.2</ele>
        <time>2023-10-15T09:25:59.000Z</time>
      </trkpt>
      <trkpt lat="43.40454" lon="5.50382">
        <ele>729.9</ele>
        <time>2023-10-15T09:26:11.000Z</time>
      </trkpt>
      <trkpt lat="43.40454" lon="5.50383">
        <ele>729.7</ele>
        <time>2023-10-15T09:26:16.000Z</time>
      </trkpt>
      <trkpt lat="43.40453" lon="5.5038">
        <ele>729</ele>
        <time>2023-10-15T09:26:32.000Z</time>
      </trkpt>
      <trkpt lat="43.40453" lon="5.5038">
        <ele>729</ele>
        <time>2023-10-15T09:26:33.000Z</time>
      </trkpt>
      <trkpt lat="43.40451" lon="5.50376">
        <ele>727.8</ele>
        <time>2023-10-15T09:26:52.000Z</time>
      </trkpt>
      <trkpt lat="43.40452" lon="5.50376">
        <ele>727.7</ele>
        <time>2023-10-15T09:26:53.000Z</time>
      </trkpt>
      <trkpt lat="43.40452" lon="5.50376">
        <ele>727.4</ele>
        <time>2023-10-15T09:26:57.000Z</time>
      </trkpt>
      <trkpt lat="43.40452" lon="5.50377">
        <ele>727.3</ele>
        <time>2023-10-15T09:26:58.000Z</time>
      </trkpt>
      <trkpt lat="43.40452" lon="5.50377">
        <ele>727.2</ele>
        <time>2023-10-15T09:26:59.000Z</time>
      </trkpt>
      <trkpt lat="43.40452" lon="5.50377">
        <ele>727.2</ele>
        <time>2023-10-15T09:27:00.000Z</time>
      </trkpt>
      <trkpt lat="43.40453" lon="5.50364">
        <ele>725.9</ele>
        <time>2023-10-15T09:27:12.000Z</time>
      </trkpt>
      <trkpt lat="43.40455" lon="5.50351">
        <ele>725.1</ele>
        <time>2023-10-15T09:27:24.000Z</time>
      </trkpt>
      <trkpt lat="43.4046" lon="5.50339">
        <ele>724.3</ele>
        <time>2023-10-15T09:27:36.000Z</time>
      </trkpt>
      <trkpt lat="43.40462" lon="5.50327">
        <ele>723.6</ele>
        <time>2023-10-15T09:27:44.000Z</time>
      </trkpt>
      <trkpt lat="43.40461" lon="5.50314">
        <ele>723.7</ele>
        <time>2023-10-15T09:27:54.000Z</time>
      </trkpt>
      <trkpt lat="43.40457" lon="5.50303">
        <ele>724.4</ele>
        <time>2023-10-15T09:28:05.000Z</time>
      </trkpt>
      <trkpt lat="43.40458" lon="5.5029">
        <ele>725.5</ele>
        <time>2023-10-15T09:28:17.000Z</time>
      </trkpt>
      <trkpt lat="43.40458" lon="5.50286">
        <ele>725.7</ele>
        <time>2023-10-15T09:28:23.000Z</time>
      </trkpt>
      <trkpt lat="43.40458" lon="5.50286">
        <ele>725.7</ele>
        <time>2023-10-15T09:28:24.000Z</time>
      </trkpt>
      <trkpt lat="43.40458" lon="5.50286">
        <ele>725.7</ele>
        <time>2023-10-15T09:28:26.000Z</time>
      </trkpt>
      <trkpt lat="43.40458" lon="5.50285">
        <ele>725.7</ele>
        <time>2023-10-15T09:28:27.000Z</time>
      </trkpt>
      <trkpt lat="43.40463" lon="5.50273">
        <ele>725.4</ele>
        <time>2023-10-15T09:28:39.000Z</time>
      </trkpt>
      <trkpt lat="43.40466" lon="5.5026">
        <ele>725.2</ele>
        <time>2023-10-15T09:28:48.000Z</time>
      </trkpt>
      <trkpt lat="43.40465" lon="5.50248">
        <ele>725.3</ele>
        <time>2023-10-15T09:29:01.000Z</time>
      </trkpt>
      <trkpt lat="43.40465" lon="5.50248">
        <ele>725.4</ele>
        <time>2023-10-15T09:29:05.000Z</time>
      </trkpt>
      <trkpt lat="43.40465" lon="5.50248">
        <ele>725.4</ele>
        <time>2023-10-15T09:29:06.000Z</time>
      </trkpt>
      <trkpt lat="43.40465" lon="5.50249">
        <ele>725.9</ele>
        <time>2023-10-15T09:30:03.000Z</time>
      </trkpt>
      <trkpt lat="43.40465" lon="5.50249">
        <ele>725.9</ele>
        <time>2023-10-15T09:30:04.000Z</time>
      </trkpt>
      <trkpt lat="43.40465" lon="5.50248">
        <ele>725.8</ele>
        <time>2023-10-15T09:30:10.000Z</time>
      </trkpt>
      <trkpt lat="43.40466" lon="5.50246">
        <ele>725.9</ele>
        <time>2023-10-15T09:30:16.000Z</time>
      </trkpt>
      <trkpt lat="43.40466" lon="5.50246">
        <ele>725.9</ele>
        <time>2023-10-15T09:30:19.000Z</time>
      </trkpt>
      <trkpt lat="43.40466" lon="5.50247">
        <ele>725.9</ele>
        <time>2023-10-15T09:30:21.000Z</time>
      </trkpt>
      <trkpt lat="43.40466" lon="5.50247">
        <ele>726.2</ele>
        <time>2023-10-15T09:30:32.000Z</time>
      </trkpt>
      <trkpt lat="43.40466" lon="5.50247">
        <ele>726.2</ele>
        <time>2023-10-15T09:30:33.000Z</time>
      </trkpt>
      <trkpt lat="43.40466" lon="5.50246">
        <ele>726.3</ele>
        <time>2023-10-15T09:30:42.000Z</time>
      </trkpt>
      <trkpt lat="43.4047" lon="5.50234">
        <ele>726.5</ele>
        <time>2023-10-15T09:30:54.000Z</time>
      </trkpt>
      <trkpt lat="43.40471" lon="5.50221">
        <ele>726.7</ele>
        <time>2023-10-15T09:31:04.000Z</time>
      </trkpt>
      <trkpt lat="43.40474" lon="5.50209">
        <ele>727.2</ele>
        <time>2023-10-15T09:31:16.000Z</time>
      </trkpt>
      <trkpt lat="43.40473" lon="5.50197">
        <ele>727.2</ele>
        <time>2023-10-15T09:31:33.000Z</time>
      </trkpt>
      <trkpt lat="43.40473" lon="5.50196">
        <ele>727.2</ele>
        <time>2023-10-15T09:31:34.000Z</time>
      </trkpt>
      <trkpt lat="43.40474" lon="5.50183">
        <ele>726.4</ele>
        <time>2023-10-15T09:31:56.000Z</time>
      </trkpt>
      <trkpt lat="43.4048" lon="5.50173">
        <ele>725.5</ele>
        <time>2023-10-15T09:32:07.000Z</time>
      </trkpt>
      <trkpt lat="43.40484" lon="5.50161">
        <ele>723.5</ele>
        <time>2023-10-15T09:32:19.000Z</time>
      </trkpt>
      <trkpt lat="43.40489" lon="5.50151">
        <ele>721.7</ele>
        <time>2023-10-15T09:32:35.000Z</time>
      </trkpt>
      <trkpt lat="43.40485" lon="5.50147">
        <ele>720.7</ele>
        <time>2023-10-15T09:32:50.000Z</time>
      </trkpt>
      <trkpt lat="43.40484" lon="5.50147">
        <ele>720.6</ele>
        <time>2023-10-15T09:32:52.000Z</time>
      </trkpt>
      <trkpt lat="43.40489" lon="5.50137">
        <ele>720</ele>
        <time>2023-10-15T09:33:07.000Z</time>
      </trkpt>
      <trkpt lat="43.40493" lon="5.50125">
        <ele>719.6</ele>
        <time>2023-10-15T09:33:18.000Z</time>
      </trkpt>
      <trkpt lat="43.40498" lon="5.50114">
        <ele>719.1</ele>
        <time>2023-10-15T09:33:26.000Z</time>
      </trkpt>
      <trkpt lat="43.40499" lon="5.501">
        <ele>718.7</ele>
        <time>2023-10-15T09:33:33.000Z</time>
      </trkpt>
      <trkpt lat="43.405" lon="5.50087">
        <ele>718.5</ele>
        <time>2023-10-15T09:33:41.000Z</time>
      </trkpt>
      <trkpt lat="43.40501" lon="5.50074">
        <ele>718.4</ele>
        <time>2023-10-15T09:33:51.000Z</time>
      </trkpt>
      <trkpt lat="43.40502" lon="5.50061">
        <ele>718.3</ele>
        <time>2023-10-15T09:34:00.000Z</time>
      </trkpt>
      <trkpt lat="43.40504" lon="5.50048">
        <ele>718.4</ele>
        <time>2023-10-15T09:34:09.000Z</time>
      </trkpt>
      <trkpt lat="43.40505" lon="5.50035">
        <ele>718.7</ele>
        <time>2023-10-15T09:34:19.000Z</time>
      </trkpt>
      <trkpt lat="43.40508" lon="5.50023">
        <ele>719.1</ele>
        <time>2023-10-15T09:34:29.000Z</time>
      </trkpt>
      <trkpt lat="43.40509" lon="5.50011">
        <ele>720.8</ele>
        <time>2023-10-15T09:34:43.000Z</time>
      </trkpt>
      <trkpt lat="43.40509" lon="5.49997">
        <ele>722.3</ele>
        <time>2023-10-15T09:34:52.000Z</time>
      </trkpt>
      <trkpt lat="43.4051" lon="5.49984">
        <ele>723.6</ele>
        <time>2023-10-15T09:35:03.000Z</time>
      </trkpt>
      <trkpt lat="43.4051" lon="5.49971">
        <ele>725.8</ele>
        <time>2023-10-15T09:35:18.000Z</time>
      </trkpt>
      <trkpt lat="43.40509" lon="5.49958">
        <ele>727</ele>
        <time>2023-10-15T09:35:34.000Z</time>
      </trkpt>
      <trkpt lat="43.40509" lon="5.49944">
        <ele>727.9</ele>
        <time>2023-10-15T09:35:45.000Z</time>
      </trkpt>
      <trkpt lat="43.40508" lon="5.49932">
        <ele>728.5</ele>
        <time>2023-10-15T09:35:55.000Z</time>
      </trkpt>
      <trkpt lat="43.40508" lon="5.49931">
        <ele>728.6</ele>
        <time>2023-10-15T09:35:58.000Z</time>
      </trkpt>
      <trkpt lat="43.40509" lon="5.49931">
        <ele>728.6</ele>
        <time>2023-10-15T09:35:59.000Z</time>
      </trkpt>
      <trkpt lat="43.40513" lon="5.49919">
        <ele>728.7</ele>
        <time>2023-10-15T09:36:08.000Z</time>
      </trkpt>
      <trkpt lat="43.40514" lon="5.49906">
        <ele>729</ele>
        <time>2023-10-15T09:36:19.000Z</time>
      </trkpt>
      <trkpt lat="43.40517" lon="5.49894">
        <ele>729.9</ele>
        <time>2023-10-15T09:36:31.000Z</time>
      </trkpt>
      <trkpt lat="43.40522" lon="5.49883">
        <ele>731.7</ele>
        <time>2023-10-15T09:36:45.000Z</time>
      </trkpt>
      <trkpt lat="43.40522" lon="5.49883">
        <ele>731.9</ele>
        <time>2023-10-15T09:36:46.000Z</time>
      </trkpt>
      <trkpt lat="43.40522" lon="5.49883">
        <ele>732.2</ele>
        <time>2023-10-15T09:36:56.000Z</time>
      </trkpt>
      <trkpt lat="43.40522" lon="5.49884">
        <ele>732.2</ele>
        <time>2023-10-15T09:36:58.000Z</time>
      </trkpt>
      <trkpt lat="43.40522" lon="5.49884">
        <ele>732.2</ele>
        <time>2023-10-15T09:37:00.000Z</time>
      </trkpt>
      <trkpt lat="43.40522" lon="5.49884">
        <ele>732.2</ele>
        <time>2023-10-15T09:37:02.000Z</time>
      </trkpt>
      <trkpt lat="43.40522" lon="5.49884">
        <ele>732.1</ele>
        <time>2023-10-15T09:37:05.000Z</time>
      </trkpt>
      <trkpt lat="43.40522" lon="5.49884">
        <ele>732.1</ele>
        <time>2023-10-15T09:37:06.000Z</time>
      </trkpt>
      <trkpt lat="43.40522" lon="5.49883">
        <ele>732.1</ele>
        <time>2023-10-15T09:37:08.000Z</time>
      </trkpt>
      <trkpt lat="43.40528" lon="5.49872">
        <ele>732</ele>
        <time>2023-10-15T09:37:20.000Z</time>
      </trkpt>
      <trkpt lat="43.40536" lon="5.49865">
        <ele>731.9</ele>
        <time>2023-10-15T09:37:33.000Z</time>
      </trkpt>
      <trkpt lat="43.40536" lon="5.49862">
        <ele>731.9</ele>
        <time>2023-10-15T09:37:41.000Z</time>
      </trkpt>
      <trkpt lat="43.40537" lon="5.49861">
        <ele>731.8</ele>
        <time>2023-10-15T09:37:47.000Z</time>
      </trkpt>
      <trkpt lat="43.40542" lon="5.4985">
        <ele>731.7</ele>
        <time>2023-10-15T09:37:57.000Z</time>
      </trkpt>
      <trkpt lat="43.40547" lon="5.49839">
        <ele>731.6</ele>
        <time>2023-10-15T09:38:06.000Z</time>
      </trkpt>
      <trkpt lat="43.40549" lon="5.49839">
        <ele>731.5</ele>
        <time>2023-10-15T09:38:12.000Z</time>
      </trkpt>
      <trkpt lat="43.40549" lon="5.49839">
        <ele>731.4</ele>
        <time>2023-10-15T09:38:19.000Z</time>
      </trkpt>
      <trkpt lat="43.40547" lon="5.49835">
        <ele>731.3</ele>
        <time>2023-10-15T09:38:25.000Z</time>
      </trkpt>
      <trkpt lat="43.40547" lon="5.49835">
        <ele>731.2</ele>
        <time>2023-10-15T09:38:26.000Z</time>
      </trkpt>
      <trkpt lat="43.40554" lon="5.49826">
        <ele>730.2</ele>
        <time>2023-10-15T09:38:41.000Z</time>
      </trkpt>
      <trkpt lat="43.40558" lon="5.49821">
        <ele>728.5</ele>
        <time>2023-10-15T09:38:52.000Z</time>
      </trkpt>
      <trkpt lat="43.40558" lon="5.49821">
        <ele>728.4</ele>
        <time>2023-10-15T09:38:53.000Z</time>
      </trkpt>
      <trkpt lat="43.40565" lon="5.49812">
        <ele>725.5</ele>
        <time>2023-10-15T09:39:08.000Z</time>
      </trkpt>
      <trkpt lat="43.40573" lon="5.49803">
        <ele>722.9</ele>
        <time>2023-10-15T09:39:21.000Z</time>
      </trkpt>
      <trkpt lat="43.40581" lon="5.49798">
        <ele>721.5</ele>
        <time>2023-10-15T09:39:31.000Z</time>
      </trkpt>
      <trkpt lat="43.40587" lon="5.49788">
        <ele>721.4</ele>
        <time>2023-10-15T09:39:45.000Z</time>
      </trkpt>
      <trkpt lat="43.40591" lon="5.49777">
        <ele>721.8</ele>
        <time>2023-10-15T09:39:55.000Z</time>
      </trkpt>
      <trkpt lat="43.40599" lon="5.49769">
        <ele>722.5</ele>
        <time>2023-10-15T09:40:08.000Z</time>
      </trkpt>
      <trkpt lat="43.40602" lon="5.49757">
        <ele>725.4</ele>
        <time>2023-10-15T09:40:26.000Z</time>
      </trkpt>
      <trkpt lat="43.40603" lon="5.49753">
        <ele>726.7</ele>
        <time>2023-10-15T09:40:40.000Z</time>
      </trkpt>
      <trkpt lat="43.40604" lon="5.49753">
        <ele>726.7</ele>
        <time>2023-10-15T09:40:41.000Z</time>
      </trkpt>
      <trkpt lat="43.40604" lon="5.49753">
        <ele>726.8</ele>
        <time>2023-10-15T09:40:42.000Z</time>
      </trkpt>
      <trkpt lat="43.40604" lon="5.49753">
        <ele>726.8</ele>
        <time>2023-10-15T09:40:44.000Z</time>
      </trkpt>
      <trkpt lat="43.40604" lon="5.49753">
        <ele>726.8</ele>
        <time>2023-10-15T09:40:45.000Z</time>
      </trkpt>
      <trkpt lat="43.40604" lon="5.49753">
        <ele>726.6</ele>
        <time>2023-10-15T09:41:01.000Z</time>
      </trkpt>
      <trkpt lat="43.40604" lon="5.49752">
        <ele>726.6</ele>
        <time>2023-10-15T09:41:04.000Z</time>
      </trkpt>
      <trkpt lat="43.40605" lon="5.49752">
        <ele>726.5</ele>
        <time>2023-10-15T09:41:07.000Z</time>
      </trkpt>
      <trkpt lat="43.40613" lon="5.49756">
        <ele>727.2</ele>
        <time>2023-10-15T09:41:27.000Z</time>
      </trkpt>
      <trkpt lat="43.40617" lon="5.49758">
        <ele>728.9</ele>
        <time>2023-10-15T09:41:43.000Z</time>
      </trkpt>
      <trkpt lat="43.40617" lon="5.49757">
        <ele>729</ele>
        <time>2023-10-15T09:41:44.000Z</time>
      </trkpt>
      <trkpt lat="43.40616" lon="5.49757">
        <ele>729.2</ele>
        <time>2023-10-15T09:41:47.000Z</time>
      </trkpt>
      <trkpt lat="43.40616" lon="5.49757">
        <ele>729.3</ele>
        <time>2023-10-15T09:41:48.000Z</time>
      </trkpt>
      <trkpt lat="43.40616" lon="5.49757">
        <ele>729.4</ele>
        <time>2023-10-15T09:41:51.000Z</time>
      </trkpt>
      <trkpt lat="43.40616" lon="5.49757">
        <ele>729.5</ele>
        <time>2023-10-15T09:41:53.000Z</time>
      </trkpt>
      <trkpt lat="43.40616" lon="5.49757">
        <ele>729.5</ele>
        <time>2023-10-15T09:41:54.000Z</time>
      </trkpt>
      <trkpt lat="43.40616" lon="5.49757">
        <ele>729.6</ele>
        <time>2023-10-15T09:41:55.000Z</time>
      </trkpt>
      <trkpt lat="43.40617" lon="5.49757">
        <ele>729.7</ele>
        <time>2023-10-15T09:41:57.000Z</time>
      </trkpt>
      <trkpt lat="43.40617" lon="5.49757">
        <ele>730.2</ele>
        <time>2023-10-15T09:42:19.000Z</time>
      </trkpt>
      <trkpt lat="43.40617" lon="5.49757">
        <ele>730.3</ele>
        <time>2023-10-15T09:42:20.000Z</time>
      </trkpt>
      <trkpt lat="43.40617" lon="5.49757">
        <ele>730.3</ele>
        <time>2023-10-15T09:42:22.000Z</time>
      </trkpt>
      <trkpt lat="43.40617" lon="5.49757">
        <ele>730.3</ele>
        <time>2023-10-15T09:42:24.000Z</time>
      </trkpt>
      <trkpt lat="43.40616" lon="5.49757">
        <ele>730.3</ele>
        <time>2023-10-15T09:42:25.000Z</time>
      </trkpt>
      <trkpt lat="43.40616" lon="5.49757">
        <ele>730.2</ele>
        <time>2023-10-15T09:42:30.000Z</time>
      </trkpt>
      <trkpt lat="43.40616" lon="5.49757">
        <ele>730.2</ele>
        <time>2023-10-15T09:42:32.000Z</time>
      </trkpt>
      <trkpt lat="43.40616" lon="5.49757">
        <ele>730.1</ele>
        <time>2023-10-15T09:42:35.000Z</time>
      </trkpt>
      <trkpt lat="43.40616" lon="5.49757">
        <ele>730.1</ele>
        <time>2023-10-15T09:42:36.000Z</time>
      </trkpt>
      <trkpt lat="43.40615" lon="5.49756">
        <ele>730.1</ele>
        <time>2023-10-15T09:42:46.000Z</time>
      </trkpt>
      <trkpt lat="43.40614" lon="5.49756">
        <ele>730.1</ele>
        <time>2023-10-15T09:42:48.000Z</time>
      </trkpt>
      <trkpt lat="43.40614" lon="5.49756">
        <ele>730.1</ele>
        <time>2023-10-15T09:42:49.000Z</time>
      </trkpt>
      <trkpt lat="43.40615" lon="5.49756">
        <ele>730.3</ele>
        <time>2023-10-15T09:43:00.000Z</time>
      </trkpt>
      <trkpt lat="43.40615" lon="5.49756">
        <ele>730.3</ele>
        <time>2023-10-15T09:43:02.000Z</time>
      </trkpt>
      <trkpt lat="43.40615" lon="5.49756">
        <ele>730.3</ele>
        <time>2023-10-15T09:43:06.000Z</time>
      </trkpt>
      <trkpt lat="43.40616" lon="5.49756">
        <ele>730.3</ele>
        <time>2023-10-15T09:43:12.000Z</time>
      </trkpt>
      <trkpt lat="43.40615" lon="5.49756">
        <ele>730.2</ele>
        <time>2023-10-15T09:43:36.000Z</time>
      </trkpt>
      <trkpt lat="43.40616" lon="5.49757">
        <ele>730.2</ele>
        <time>2023-10-15T09:43:40.000Z</time>
      </trkpt>
      <trkpt lat="43.40616" lon="5.49757">
        <ele>730.2</ele>
        <time>2023-10-15T09:43:41.000Z</time>
      </trkpt>
      <trkpt lat="43.40616" lon="5.49757">
        <ele>730.2</ele>
        <time>2023-10-15T09:43:43.000Z</time>
      </trkpt>
      <trkpt lat="43.40616" lon="5.49757">
        <ele>730.3</ele>
        <time>2023-10-15T09:44:21.000Z</time>
      </trkpt>
      <trkpt lat="43.40617" lon="5.49757">
        <ele>730.3</ele>
        <time>2023-10-15T09:44:26.000Z</time>
      </trkpt>
      <trkpt lat="43.40617" lon="5.49757">
        <ele>730.3</ele>
        <time>2023-10-15T09:44:46.000Z</time>
      </trkpt>
      <trkpt lat="43.40617" lon="5.49757">
        <ele>730.3</ele>
        <time>2023-10-15T09:44:47.000Z</time>
      </trkpt>
      <trkpt lat="43.40616" lon="5.49757">
        <ele>730.3</ele>
        <time>2023-10-15T09:44:56.000Z</time>
      </trkpt>
      <trkpt lat="43.40616" lon="5.49757">
        <ele>730.3</ele>
        <time>2023-10-15T09:44:57.000Z</time>
      </trkpt>
      <trkpt lat="43.40616" lon="5.49757">
        <ele>730.3</ele>
        <time>2023-10-15T09:44:58.000Z</time>
      </trkpt>
      <trkpt lat="43.40616" lon="5.49757">
        <ele>730.3</ele>
        <time>2023-10-15T09:44:59.000Z</time>
      </trkpt>
      <trkpt lat="43.40616" lon="5.49757">
        <ele>730.3</ele>
        <time>2023-10-15T09:45:06.000Z</time>
      </trkpt>
      <trkpt lat="43.40616" lon="5.49756">
        <ele>730.3</ele>
        <time>2023-10-15T09:45:08.000Z</time>
      </trkpt>
      <trkpt lat="43.40616" lon="5.49756">
        <ele>730.3</ele>
        <time>2023-10-15T09:45:27.000Z</time>
      </trkpt>
      <trkpt lat="43.40615" lon="5.49755">
        <ele>730.3</ele>
        <time>2023-10-15T09:45:31.000Z</time>
      </trkpt>
      <trkpt lat="43.40615" lon="5.49755">
        <ele>730.3</ele>
        <time>2023-10-15T09:45:48.000Z</time>
      </trkpt>
      <trkpt lat="43.40615" lon="5.49755">
        <ele>730.2</ele>
        <time>2023-10-15T09:45:52.000Z</time>
      </trkpt>
      <trkpt lat="43.40614" lon="5.49755">
        <ele>730.2</ele>
        <time>2023-10-15T09:45:57.000Z</time>
      </trkpt>
      <trkpt lat="43.40614" lon="5.49755">
        <ele>730.2</ele>
        <time>2023-10-15T09:45:58.000Z</time>
      </trkpt>
      <trkpt lat="43.40614" lon="5.49755">
        <ele>730</ele>
        <time>2023-10-15T09:46:09.000Z</time>
      </trkpt>
      <trkpt lat="43.40614" lon="5.49755">
        <ele>730</ele>
        <time>2023-10-15T09:46:10.000Z</time>
      </trkpt>
      <trkpt lat="43.40614" lon="5.49754">
        <ele>729.9</ele>
        <time>2023-10-15T09:46:38.000Z</time>
      </trkpt>
      <trkpt lat="43.40614" lon="5.49754">
        <ele>729.8</ele>
        <time>2023-10-15T09:46:39.000Z</time>
      </trkpt>
      <trkpt lat="43.40614" lon="5.49754">
        <ele>729.8</ele>
        <time>2023-10-15T09:46:50.000Z</time>
      </trkpt>
      <trkpt lat="43.40614" lon="5.49754">
        <ele>729.8</ele>
        <time>2023-10-15T09:46:51.000Z</time>
      </trkpt>
      <trkpt lat="43.40614" lon="5.49754">
        <ele>729.7</ele>
        <time>2023-10-15T09:47:12.000Z</time>
      </trkpt>
      <trkpt lat="43.40613" lon="5.49754">
        <ele>729.7</ele>
        <time>2023-10-15T09:47:14.000Z</time>
      </trkpt>
      <trkpt lat="43.40613" lon="5.49754">
        <ele>729.7</ele>
        <time>2023-10-15T09:47:15.000Z</time>
      </trkpt>
      <trkpt lat="43.40613" lon="5.49754">
        <ele>729.7</ele>
        <time>2023-10-15T09:47:18.000Z</time>
      </trkpt>
      <trkpt lat="43.40613" lon="5.49754">
        <ele>729.7</ele>
        <time>2023-10-15T09:47:21.000Z</time>
      </trkpt>
      <trkpt lat="43.40613" lon="5.49754">
        <ele>729.7</ele>
        <time>2023-10-15T09:47:24.000Z</time>
      </trkpt>
      <trkpt lat="43.40612" lon="5.49754">
        <ele>729.8</ele>
        <time>2023-10-15T09:47:34.000Z</time>
      </trkpt>
      <trkpt lat="43.40612" lon="5.49754">
        <ele>729.8</ele>
        <time>2023-10-15T09:47:35.000Z</time>
      </trkpt>
      <trkpt lat="43.40613" lon="5.49753">
        <ele>729.7</ele>
        <time>2023-10-15T09:47:47.000Z</time>
      </trkpt>
      <trkpt lat="43.40613" lon="5.49753">
        <ele>729.7</ele>
        <time>2023-10-15T09:47:49.000Z</time>
      </trkpt>
      <trkpt lat="43.40613" lon="5.49753">
        <ele>729.7</ele>
        <time>2023-10-15T09:48:03.000Z</time>
      </trkpt>
      <trkpt lat="43.40613" lon="5.49753">
        <ele>729.6</ele>
        <time>2023-10-15T09:48:04.000Z</time>
      </trkpt>
      <trkpt lat="43.40613" lon="5.49753">
        <ele>729.7</ele>
        <time>2023-10-15T09:48:15.000Z</time>
      </trkpt>
      <trkpt lat="43.40613" lon="5.49753">
        <ele>729.7</ele>
        <time>2023-10-15T09:48:16.000Z</time>
      </trkpt>
      <trkpt lat="43.40613" lon="5.49754">
        <ele>729.6</ele>
        <time>2023-10-15T09:48:40.000Z</time>
      </trkpt>
      <trkpt lat="43.40613" lon="5.49754">
        <ele>729.6</ele>
        <time>2023-10-15T09:48:42.000Z</time>
      </trkpt>
      <trkpt lat="43.40613" lon="5.49754">
        <ele>729.6</ele>
        <time>2023-10-15T09:48:43.000Z</time>
      </trkpt>
      <trkpt lat="43.40613" lon="5.49754">
        <ele>729.6</ele>
        <time>2023-10-15T09:48:45.000Z</time>
      </trkpt>
      <trkpt lat="43.40613" lon="5.49754">
        <ele>729.6</ele>
        <time>2023-10-15T09:48:48.000Z</time>
      </trkpt>
      <trkpt lat="43.40613" lon="5.49754">
        <ele>729.6</ele>
        <time>2023-10-15T09:48:49.000Z</time>
      </trkpt>
      <trkpt lat="43.40614" lon="5.49754">
        <ele>729.6</ele>
        <time>2023-10-15T09:48:51.000Z</time>
      </trkpt>
      <trkpt lat="43.40614" lon="5.49754">
        <ele>729.6</ele>
        <time>2023-10-15T09:48:52.000Z</time>
      </trkpt>
      <trkpt lat="43.40614" lon="5.49754">
        <ele>729.6</ele>
        <time>2023-10-15T09:48:53.000Z</time>
      </trkpt>
      <trkpt lat="43.40614" lon="5.49754">
        <ele>729.6</ele>
        <time>2023-10-15T09:48:54.000Z</time>
      </trkpt>
      <trkpt lat="43.40614" lon="5.49754">
        <ele>729.6</ele>
        <time>2023-10-15T09:48:58.000Z</time>
      </trkpt>
      <trkpt lat="43.40613" lon="5.49753">
        <ele>729.6</ele>
        <time>2023-10-15T09:49:00.000Z</time>
      </trkpt>
      <trkpt lat="43.40614" lon="5.49753">
        <ele>729.6</ele>
        <time>2023-10-15T09:49:01.000Z</time>
      </trkpt>
      <trkpt lat="43.40615" lon="5.49756">
        <ele>729.6</ele>
        <time>2023-10-15T09:49:08.000Z</time>
      </trkpt>
      <trkpt lat="43.40615" lon="5.49757">
        <ele>729.6</ele>
        <time>2023-10-15T09:49:11.000Z</time>
      </trkpt>
      <trkpt lat="43.40619" lon="5.49758">
        <ele>729.8</ele>
        <time>2023-10-15T09:49:24.000Z</time>
      </trkpt>
      <trkpt lat="43.40619" lon="5.49757">
        <ele>730.6</ele>
        <time>2023-10-15T09:49:39.000Z</time>
      </trkpt>
      <trkpt lat="43.40618" lon="5.49758">
        <ele>730.9</ele>
        <time>2023-10-15T09:49:43.000Z</time>
      </trkpt>
      <trkpt lat="43.40618" lon="5.49758">
        <ele>730.9</ele>
        <time>2023-10-15T09:49:45.000Z</time>
      </trkpt>
      <trkpt lat="43.40618" lon="5.49758">
        <ele>730.9</ele>
        <time>2023-10-15T09:49:46.000Z</time>
      </trkpt>
      <trkpt lat="43.40618" lon="5.49758">
        <ele>731</ele>
        <time>2023-10-15T09:49:48.000Z</time>
      </trkpt>
      <trkpt lat="43.40618" lon="5.49758">
        <ele>731</ele>
        <time>2023-10-15T09:49:49.000Z</time>
      </trkpt>
      <trkpt lat="43.40618" lon="5.49758">
        <ele>731.1</ele>
        <time>2023-10-15T09:49:51.000Z</time>
      </trkpt>
      <trkpt lat="43.40618" lon="5.49758">
        <ele>731.2</ele>
        <time>2023-10-15T09:49:52.000Z</time>
      </trkpt>
      <trkpt lat="43.40618" lon="5.49758">
        <ele>731.4</ele>
        <time>2023-10-15T09:49:56.000Z</time>
      </trkpt>
      <trkpt lat="43.40618" lon="5.49758">
        <ele>731.5</ele>
        <time>2023-10-15T09:49:57.000Z</time>
      </trkpt>
      <trkpt lat="43.40618" lon="5.49758">
        <ele>731.6</ele>
        <time>2023-10-15T09:50:04.000Z</time>
      </trkpt>
      <trkpt lat="43.40618" lon="5.49758">
        <ele>731.6</ele>
        <time>2023-10-15T09:50:05.000Z</time>
      </trkpt>
      <trkpt lat="43.40618" lon="5.49758">
        <ele>731.5</ele>
        <time>2023-10-15T09:50:16.000Z</time>
      </trkpt>
      <trkpt lat="43.40618" lon="5.49758">
        <ele>731.5</ele>
        <time>2023-10-15T09:50:17.000Z</time>
      </trkpt>
      <trkpt lat="43.40618" lon="5.49758">
        <ele>731.5</ele>
        <time>2023-10-15T09:50:18.000Z</time>
      </trkpt>
      <trkpt lat="43.40618" lon="5.49758">
        <ele>731.5</ele>
        <time>2023-10-15T09:50:19.000Z</time>
      </trkpt>
      <trkpt lat="43.40618" lon="5.49758">
        <ele>731.4</ele>
        <time>2023-10-15T09:50:29.000Z</time>
      </trkpt>
      <trkpt lat="43.40618" lon="5.49758">
        <ele>731.4</ele>
        <time>2023-10-15T09:50:30.000Z</time>
      </trkpt>
      <trkpt lat="43.40618" lon="5.49758">
        <ele>731.7</ele>
        <time>2023-10-15T09:50:35.000Z</time>
      </trkpt>
      <trkpt lat="43.40618" lon="5.49759">
        <ele>732</ele>
        <time>2023-10-15T09:50:43.000Z</time>
      </trkpt>
      <trkpt lat="43.40618" lon="5.49759">
        <ele>732</ele>
        <time>2023-10-15T09:50:45.000Z</time>
      </trkpt>
      <trkpt lat="43.40618" lon="5.4976">
        <ele>731.9</ele>
        <time>2023-10-15T09:50:48.000Z</time>
      </trkpt>
      <trkpt lat="43.40618" lon="5.4976">
        <ele>731.8</ele>
        <time>2023-10-15T09:50:50.000Z</time>
      </trkpt>
      <trkpt lat="43.40613" lon="5.49758">
        <ele>730.9</ele>
        <time>2023-10-15T09:51:07.000Z</time>
      </trkpt>
      <trkpt lat="43.40613" lon="5.49758">
        <ele>730.8</ele>
        <time>2023-10-15T09:51:08.000Z</time>
      </trkpt>
      <trkpt lat="43.40605" lon="5.4975">
        <ele>729.1</ele>
        <time>2023-10-15T09:51:21.000Z</time>
      </trkpt>
      <trkpt lat="43.40603" lon="5.4975">
        <ele>728</ele>
        <time>2023-10-15T09:51:27.000Z</time>
      </trkpt>
      <trkpt lat="43.40603" lon="5.49749">
        <ele>727.3</ele>
        <time>2023-10-15T09:51:31.000Z</time>
      </trkpt>
      <trkpt lat="43.40603" lon="5.4974">
        <ele>725.7</ele>
        <time>2023-10-15T09:51:44.000Z</time>
      </trkpt>
      <trkpt lat="43.40603" lon="5.4974">
        <ele>725.3</ele>
        <time>2023-10-15T09:51:51.000Z</time>
      </trkpt>
      <trkpt lat="43.40603" lon="5.4974">
        <ele>725.3</ele>
        <time>2023-10-15T09:51:54.000Z</time>
      </trkpt>
      <trkpt lat="43.40603" lon="5.4974">
        <ele>725</ele>
        <time>2023-10-15T09:52:07.000Z</time>
      </trkpt>
      <trkpt lat="43.40603" lon="5.4974">
        <ele>725</ele>
        <time>2023-10-15T09:52:08.000Z</time>
      </trkpt>
      <trkpt lat="43.40604" lon="5.4974">
        <ele>724.9</ele>
        <time>2023-10-15T09:52:29.000Z</time>
      </trkpt>
      <trkpt lat="43.40604" lon="5.4974">
        <ele>724.9</ele>
        <time>2023-10-15T09:52:30.000Z</time>
      </trkpt>
      <trkpt lat="43.40604" lon="5.4974">
        <ele>724.8</ele>
        <time>2023-10-15T09:52:37.000Z</time>
      </trkpt>
      <trkpt lat="43.40604" lon="5.4974">
        <ele>724.8</ele>
        <time>2023-10-15T09:52:39.000Z</time>
      </trkpt>
      <trkpt lat="43.40605" lon="5.4974">
        <ele>724.8</ele>
        <time>2023-10-15T09:52:49.000Z</time>
      </trkpt>
      <trkpt lat="43.40605" lon="5.49739">
        <ele>724.9</ele>
        <time>2023-10-15T09:52:52.000Z</time>
      </trkpt>
      <trkpt lat="43.40606" lon="5.49739">
        <ele>724.9</ele>
        <time>2023-10-15T09:52:54.000Z</time>
      </trkpt>
      <trkpt lat="43.40606" lon="5.49739">
        <ele>724.9</ele>
        <time>2023-10-15T09:52:55.000Z</time>
      </trkpt>
      <trkpt lat="43.40606" lon="5.49739">
        <ele>724.9</ele>
        <time>2023-10-15T09:52:56.000Z</time>
      </trkpt>
      <trkpt lat="43.40606" lon="5.49738">
        <ele>724.9</ele>
        <time>2023-10-15T09:52:58.000Z</time>
      </trkpt>
      <trkpt lat="43.40606" lon="5.49738">
        <ele>724.9</ele>
        <time>2023-10-15T09:53:02.000Z</time>
      </trkpt>
      <trkpt lat="43.40606" lon="5.49738">
        <ele>724.9</ele>
        <time>2023-10-15T09:53:03.000Z</time>
      </trkpt>
      <trkpt lat="43.40607" lon="5.49738">
        <ele>725</ele>
        <time>2023-10-15T09:53:05.000Z</time>
      </trkpt>
      <trkpt lat="43.40607" lon="5.49738">
        <ele>725</ele>
        <time>2023-10-15T09:53:06.000Z</time>
      </trkpt>
      <trkpt lat="43.40607" lon="5.49738">
        <ele>725</ele>
        <time>2023-10-15T09:53:08.000Z</time>
      </trkpt>
      <trkpt lat="43.40607" lon="5.49738">
        <ele>725</ele>
        <time>2023-10-15T09:53:11.000Z</time>
      </trkpt>
      <trkpt lat="43.40607" lon="5.49738">
        <ele>725.4</ele>
        <time>2023-10-15T09:53:38.000Z</time>
      </trkpt>
      <trkpt lat="43.40614" lon="5.4973">
        <ele>725.2</ele>
        <time>2023-10-15T09:53:53.000Z</time>
      </trkpt>
      <trkpt lat="43.40619" lon="5.49719">
        <ele>724.6</ele>
        <time>2023-10-15T09:54:05.000Z</time>
      </trkpt>
      <trkpt lat="43.40622" lon="5.49707">
        <ele>723.9</ele>
        <time>2023-10-15T09:54:19.000Z</time>
      </trkpt>
      <trkpt lat="43.40626" lon="5.497">
        <ele>723.9</ele>
        <time>2023-10-15T09:54:32.000Z</time>
      </trkpt>
      <trkpt lat="43.40627" lon="5.497">
        <ele>724</ele>
        <time>2023-10-15T09:54:38.000Z</time>
      </trkpt>
      <trkpt lat="43.40628" lon="5.49696">
        <ele>724</ele>
        <time>2023-10-15T09:54:44.000Z</time>
      </trkpt>
      <trkpt lat="43.40628" lon="5.49697">
        <ele>724.1</ele>
        <time>2023-10-15T09:54:46.000Z</time>
      </trkpt>
      <trkpt lat="43.40628" lon="5.49696">
        <ele>724.1</ele>
        <time>2023-10-15T09:54:50.000Z</time>
      </trkpt>
      <trkpt lat="43.40627" lon="5.49696">
        <ele>724.1</ele>
        <time>2023-10-15T09:54:52.000Z</time>
      </trkpt>
      <trkpt lat="43.40629" lon="5.49697">
        <ele>724.2</ele>
        <time>2023-10-15T09:54:56.000Z</time>
      </trkpt>
      <trkpt lat="43.40629" lon="5.49696">
        <ele>724.5</ele>
        <time>2023-10-15T09:55:05.000Z</time>
      </trkpt>
      <trkpt lat="43.40632" lon="5.49684">
        <ele>724.8</ele>
        <time>2023-10-15T09:55:15.000Z</time>
      </trkpt>
      <trkpt lat="43.40634" lon="5.49671">
        <ele>725.1</ele>
        <time>2023-10-15T09:55:23.000Z</time>
      </trkpt>
      <trkpt lat="43.40641" lon="5.49662">
        <ele>725.3</ele>
        <time>2023-10-15T09:55:30.000Z</time>
      </trkpt>
      <trkpt lat="43.40646" lon="5.49651">
        <ele>725.7</ele>
        <time>2023-10-15T09:55:38.000Z</time>
      </trkpt>
      <trkpt lat="43.40648" lon="5.49638">
        <ele>725.7</ele>
        <time>2023-10-15T09:55:47.000Z</time>
      </trkpt>
      <trkpt lat="43.4065" lon="5.49625">
        <ele>725.4</ele>
        <time>2023-10-15T09:55:55.000Z</time>
      </trkpt>
      <trkpt lat="43.4065" lon="5.49613">
        <ele>724.8</ele>
        <time>2023-10-15T09:56:02.000Z</time>
      </trkpt>
      <trkpt lat="43.40653" lon="5.49601">
        <ele>723.2</ele>
        <time>2023-10-15T09:56:12.000Z</time>
      </trkpt>
      <trkpt lat="43.40657" lon="5.49589">
        <ele>721.4</ele>
        <time>2023-10-15T09:56:26.000Z</time>
      </trkpt>
      <trkpt lat="43.40661" lon="5.49578">
        <ele>720.8</ele>
        <time>2023-10-15T09:56:36.000Z</time>
      </trkpt>
      <trkpt lat="43.40668" lon="5.49568">
        <ele>721.1</ele>
        <time>2023-10-15T09:56:48.000Z</time>
      </trkpt>
      <trkpt lat="43.40673" lon="5.49557">
        <ele>721.3</ele>
        <time>2023-10-15T09:57:02.000Z</time>
      </trkpt>
      <trkpt lat="43.40678" lon="5.49547">
        <ele>721.2</ele>
        <time>2023-10-15T09:57:14.000Z</time>
      </trkpt>
      <trkpt lat="43.40686" lon="5.49538">
        <ele>721.8</ele>
        <time>2023-10-15T09:57:27.000Z</time>
      </trkpt>
      <trkpt lat="43.40691" lon="5.49528">
        <ele>722.8</ele>
        <time>2023-10-15T09:57:40.000Z</time>
      </trkpt>
      <trkpt lat="43.40697" lon="5.49518">
        <ele>724.1</ele>
        <time>2023-10-15T09:57:52.000Z</time>
      </trkpt>
      <trkpt lat="43.40705" lon="5.4951">
        <ele>724.4</ele>
        <time>2023-10-15T09:58:02.000Z</time>
      </trkpt>
      <trkpt lat="43.4071" lon="5.49498">
        <ele>725.1</ele>
        <time>2023-10-15T09:58:15.000Z</time>
      </trkpt>
      <trkpt lat="43.40713" lon="5.49486">
        <ele>725.2</ele>
        <time>2023-10-15T09:58:25.000Z</time>
      </trkpt>
      <trkpt lat="43.40721" lon="5.49479">
        <ele>725.3</ele>
        <time>2023-10-15T09:58:36.000Z</time>
      </trkpt>
      <trkpt lat="43.40727" lon="5.4947">
        <ele>725.6</ele>
        <time>2023-10-15T09:58:48.000Z</time>
      </trkpt>
      <trkpt lat="43.40731" lon="5.49458">
        <ele>725.8</ele>
        <time>2023-10-15T09:59:01.000Z</time>
      </trkpt>
      <trkpt lat="43.40738" lon="5.49449">
        <ele>725.9</ele>
        <time>2023-10-15T09:59:15.000Z</time>
      </trkpt>
      <trkpt lat="43.40739" lon="5.49446">
        <ele>726.2</ele>
        <time>2023-10-15T09:59:21.000Z</time>
      </trkpt>
      <trkpt lat="43.4074" lon="5.49446">
        <ele>726.3</ele>
        <time>2023-10-15T09:59:22.000Z</time>
      </trkpt>
      <trkpt lat="43.4074" lon="5.49447">
        <ele>726.3</ele>
        <time>2023-10-15T09:59:23.000Z</time>
      </trkpt>
      <trkpt lat="43.4074" lon="5.49447">
        <ele>726.9</ele>
        <time>2023-10-15T09:59:33.000Z</time>
      </trkpt>
      <trkpt lat="43.4074" lon="5.49447">
        <ele>726.9</ele>
        <time>2023-10-15T09:59:34.000Z</time>
      </trkpt>
      <trkpt lat="43.4074" lon="5.49446">
        <ele>727</ele>
        <time>2023-10-15T09:59:36.000Z</time>
      </trkpt>
      <trkpt lat="43.40747" lon="5.49438">
        <ele>728</ele>
        <time>2023-10-15T09:59:54.000Z</time>
      </trkpt>
      <trkpt lat="43.40752" lon="5.49428">
        <ele>729.2</ele>
        <time>2023-10-15T10:00:04.000Z</time>
      </trkpt>
      <trkpt lat="43.40756" lon="5.49416">
        <ele>729.9</ele>
        <time>2023-10-15T10:00:13.000Z</time>
      </trkpt>
      <trkpt lat="43.4076" lon="5.49404">
        <ele>730.1</ele>
        <time>2023-10-15T10:00:23.000Z</time>
      </trkpt>
      <trkpt lat="43.40765" lon="5.49393">
        <ele>730.1</ele>
        <time>2023-10-15T10:00:34.000Z</time>
      </trkpt>
      <trkpt lat="43.40767" lon="5.49381">
        <ele>730.1</ele>
        <time>2023-10-15T10:00:44.000Z</time>
      </trkpt>
      <trkpt lat="43.40767" lon="5.49367">
        <ele>729.8</ele>
        <time>2023-10-15T10:00:53.000Z</time>
      </trkpt>
      <trkpt lat="43.40769" lon="5.49355">
        <ele>729.6</ele>
        <time>2023-10-15T10:01:01.000Z</time>
      </trkpt>
      <trkpt lat="43.40772" lon="5.49342">
        <ele>729.3</ele>
        <time>2023-10-15T10:01:09.000Z</time>
      </trkpt>
      <trkpt lat="43.40774" lon="5.49329">
        <ele>729.4</ele>
        <time>2023-10-15T10:01:18.000Z</time>
      </trkpt>
      <trkpt lat="43.40776" lon="5.49316">
        <ele>729.1</ele>
        <time>2023-10-15T10:01:29.000Z</time>
      </trkpt>
      <trkpt lat="43.40777" lon="5.49303">
        <ele>728.9</ele>
        <time>2023-10-15T10:01:38.000Z</time>
      </trkpt>
      <trkpt lat="43.40775" lon="5.4929">
        <ele>728.3</ele>
        <time>2023-10-15T10:01:50.000Z</time>
      </trkpt>
      <trkpt lat="43.40773" lon="5.49284">
        <ele>727.6</ele>
        <time>2023-10-15T10:02:02.000Z</time>
      </trkpt>
      <trkpt lat="43.40773" lon="5.49284">
        <ele>727.6</ele>
        <time>2023-10-15T10:02:04.000Z</time>
      </trkpt>
      <trkpt lat="43.40774" lon="5.49271">
        <ele>727.1</ele>
        <time>2023-10-15T10:02:18.000Z</time>
      </trkpt>
      <trkpt lat="43.40774" lon="5.49257">
        <ele>724.6</ele>
        <time>2023-10-15T10:02:31.000Z</time>
      </trkpt>
      <trkpt lat="43.40775" lon="5.49248">
        <ele>721.5</ele>
        <time>2023-10-15T10:02:47.000Z</time>
      </trkpt>
      <trkpt lat="43.40776" lon="5.49248">
        <ele>721.4</ele>
        <time>2023-10-15T10:02:48.000Z</time>
      </trkpt>
      <trkpt lat="43.40775" lon="5.49234">
        <ele>721</ele>
        <time>2023-10-15T10:03:01.000Z</time>
      </trkpt>
      <trkpt lat="43.40775" lon="5.49222">
        <ele>719.4</ele>
        <time>2023-10-15T10:03:11.000Z</time>
      </trkpt>
      <trkpt lat="43.40776" lon="5.49222">
        <ele>719</ele>
        <time>2023-10-15T10:03:13.000Z</time>
      </trkpt>
      <trkpt lat="43.40775" lon="5.49222">
        <ele>718.9</ele>
        <time>2023-10-15T10:03:14.000Z</time>
      </trkpt>
      <trkpt lat="43.40775" lon="5.49222">
        <ele>718.8</ele>
        <time>2023-10-15T10:03:15.000Z</time>
      </trkpt>
      <trkpt lat="43.40775" lon="5.49222">
        <ele>718.6</ele>
        <time>2023-10-15T10:03:16.000Z</time>
      </trkpt>
      <trkpt lat="43.40772" lon="5.4921">
        <ele>717.6</ele>
        <time>2023-10-15T10:03:25.000Z</time>
      </trkpt>
      <trkpt lat="43.40769" lon="5.49197">
        <ele>716.1</ele>
        <time>2023-10-15T10:03:36.000Z</time>
      </trkpt>
      <trkpt lat="43.40771" lon="5.49185">
        <ele>714.6</ele>
        <time>2023-10-15T10:03:51.000Z</time>
      </trkpt>
      <trkpt lat="43.40772" lon="5.49183">
        <ele>714.2</ele>
        <time>2023-10-15T10:03:55.000Z</time>
      </trkpt>
      <trkpt lat="43.40773" lon="5.49183">
        <ele>714.2</ele>
        <time>2023-10-15T10:03:56.000Z</time>
      </trkpt>
      <trkpt lat="43.40773" lon="5.49183">
        <ele>714.1</ele>
        <time>2023-10-15T10:03:57.000Z</time>
      </trkpt>
      <trkpt lat="43.40772" lon="5.49182">
        <ele>713.6</ele>
        <time>2023-10-15T10:04:16.000Z</time>
      </trkpt>
      <trkpt lat="43.40772" lon="5.49169">
        <ele>713.1</ele>
        <time>2023-10-15T10:04:29.000Z</time>
      </trkpt>
      <trkpt lat="43.40769" lon="5.49163">
        <ele>711.7</ele>
        <time>2023-10-15T10:04:41.000Z</time>
      </trkpt>
      <trkpt lat="43.40769" lon="5.49163">
        <ele>711.3</ele>
        <time>2023-10-15T10:04:49.000Z</time>
      </trkpt>
      <trkpt lat="43.40768" lon="5.4915">
        <ele>709.5</ele>
        <time>2023-10-15T10:05:02.000Z</time>
      </trkpt>
      <trkpt lat="43.40769" lon="5.49137">
        <ele>707</ele>
        <time>2023-10-15T10:05:13.000Z</time>
      </trkpt>
      <trkpt lat="43.40772" lon="5.49125">
        <ele>704.7</ele>
        <time>2023-10-15T10:05:24.000Z</time>
      </trkpt>
      <trkpt lat="43.40773" lon="5.49112">
        <ele>701.9</ele>
        <time>2023-10-15T10:05:38.000Z</time>
      </trkpt>
      <trkpt lat="43.40778" lon="5.491">
        <ele>701.1</ele>
        <time>2023-10-15T10:05:50.000Z</time>
      </trkpt>
      <trkpt lat="43.40782" lon="5.49088">
        <ele>700.3</ele>
        <time>2023-10-15T10:06:02.000Z</time>
      </trkpt>
      <trkpt lat="43.40783" lon="5.49076">
        <ele>699.3</ele>
        <time>2023-10-15T10:06:16.000Z</time>
      </trkpt>
      <trkpt lat="43.40788" lon="5.49064">
        <ele>698.3</ele>
        <time>2023-10-15T10:06:28.000Z</time>
      </trkpt>
      <trkpt lat="43.4079" lon="5.49051">
        <ele>696.2</ele>
        <time>2023-10-15T10:06:49.000Z</time>
      </trkpt>
      <trkpt lat="43.4079" lon="5.49051">
        <ele>696.1</ele>
        <time>2023-10-15T10:06:51.000Z</time>
      </trkpt>
      <trkpt lat="43.4079" lon="5.49051">
        <ele>695.7</ele>
        <time>2023-10-15T10:06:56.000Z</time>
      </trkpt>
      <trkpt lat="43.40796" lon="5.49041">
        <ele>695.5</ele>
        <time>2023-10-15T10:07:13.000Z</time>
      </trkpt>
      <trkpt lat="43.40795" lon="5.49041">
        <ele>695.5</ele>
        <time>2023-10-15T10:07:16.000Z</time>
      </trkpt>
      <trkpt lat="43.40795" lon="5.49041">
        <ele>695.5</ele>
        <time>2023-10-15T10:07:17.000Z</time>
      </trkpt>
      <trkpt lat="43.40796" lon="5.49032">
        <ele>694.4</ele>
        <time>2023-10-15T10:07:41.000Z</time>
      </trkpt>
      <trkpt lat="43.40796" lon="5.49032">
        <ele>694.1</ele>
        <time>2023-10-15T10:07:50.000Z</time>
      </trkpt>
      <trkpt lat="43.40799" lon="5.4902">
        <ele>693.6</ele>
        <time>2023-10-15T10:08:06.000Z</time>
      </trkpt>
      <trkpt lat="43.408" lon="5.49008">
        <ele>692.7</ele>
        <time>2023-10-15T10:08:21.000Z</time>
      </trkpt>
      <trkpt lat="43.40803" lon="5.48995">
        <ele>691</ele>
        <time>2023-10-15T10:08:33.000Z</time>
      </trkpt>
      <trkpt lat="43.40807" lon="5.48984">
        <ele>690</ele>
        <time>2023-10-15T10:08:46.000Z</time>
      </trkpt>
      <trkpt lat="43.40813" lon="5.48974">
        <ele>689.3</ele>
        <time>2023-10-15T10:09:02.000Z</time>
      </trkpt>
      <trkpt lat="43.40812" lon="5.4897">
        <ele>689</ele>
        <time>2023-10-15T10:09:15.000Z</time>
      </trkpt>
      <trkpt lat="43.40812" lon="5.4897">
        <ele>688.9</ele>
        <time>2023-10-15T10:09:20.000Z</time>
      </trkpt>
      <trkpt lat="43.40811" lon="5.48969">
        <ele>688.7</ele>
        <time>2023-10-15T10:09:25.000Z</time>
      </trkpt>
      <trkpt lat="43.40811" lon="5.48969">
        <ele>688.3</ele>
        <time>2023-10-15T10:09:34.000Z</time>
      </trkpt>
      <trkpt lat="43.40811" lon="5.48969">
        <ele>688.3</ele>
        <time>2023-10-15T10:09:35.000Z</time>
      </trkpt>
      <trkpt lat="43.40811" lon="5.48968">
        <ele>688.3</ele>
        <time>2023-10-15T10:09:36.000Z</time>
      </trkpt>
      <trkpt lat="43.40811" lon="5.48968">
        <ele>688.2</ele>
        <time>2023-10-15T10:09:37.000Z</time>
      </trkpt>
      <trkpt lat="43.40812" lon="5.48968">
        <ele>688.1</ele>
        <time>2023-10-15T10:09:39.000Z</time>
      </trkpt>
      <trkpt lat="43.40812" lon="5.48967">
        <ele>688</ele>
        <time>2023-10-15T10:09:43.000Z</time>
      </trkpt>
      <trkpt lat="43.40812" lon="5.48967">
        <ele>687.9</ele>
        <time>2023-10-15T10:09:45.000Z</time>
      </trkpt>
      <trkpt lat="43.40811" lon="5.48962">
        <ele>687</ele>
        <time>2023-10-15T10:09:59.000Z</time>
      </trkpt>
      <trkpt lat="43.40811" lon="5.48961">
        <ele>686.8</ele>
        <time>2023-10-15T10:10:03.000Z</time>
      </trkpt>
      <trkpt lat="43.40812" lon="5.4896">
        <ele>686.7</ele>
        <time>2023-10-15T10:10:08.000Z</time>
      </trkpt>
      <trkpt lat="43.40812" lon="5.48959">
        <ele>686.5</ele>
        <time>2023-10-15T10:10:11.000Z</time>
      </trkpt>
      <trkpt lat="43.4081" lon="5.48958">
        <ele>686.2</ele>
        <time>2023-10-15T10:10:19.000Z</time>
      </trkpt>
      <trkpt lat="43.4081" lon="5.48958">
        <ele>686.1</ele>
        <time>2023-10-15T10:10:20.000Z</time>
      </trkpt>
      <trkpt lat="43.4081" lon="5.48958">
        <ele>686.1</ele>
        <time>2023-10-15T10:10:21.000Z</time>
      </trkpt>
      <trkpt lat="43.4081" lon="5.48957">
        <ele>685.9</ele>
        <time>2023-10-15T10:10:23.000Z</time>
      </trkpt>
      <trkpt lat="43.40812" lon="5.48948">
        <ele>684.9</ele>
        <time>2023-10-15T10:10:35.000Z</time>
      </trkpt>
      <trkpt lat="43.40812" lon="5.48948">
        <ele>684.4</ele>
        <time>2023-10-15T10:10:41.000Z</time>
      </trkpt>
      <trkpt lat="43.40812" lon="5.48948">
        <ele>684.3</ele>
        <time>2023-10-15T10:10:42.000Z</time>
      </trkpt>
      <trkpt lat="43.40812" lon="5.48948">
        <ele>684.3</ele>
        <time>2023-10-15T10:10:43.000Z</time>
      </trkpt>
      <trkpt lat="43.40811" lon="5.48944">
        <ele>683.4</ele>
        <time>2023-10-15T10:10:53.000Z</time>
      </trkpt>
      <trkpt lat="43.40811" lon="5.48943">
        <ele>683.2</ele>
        <time>2023-10-15T10:10:56.000Z</time>
      </trkpt>
      <trkpt lat="43.40811" lon="5.48943">
        <ele>683.2</ele>
        <time>2023-10-15T10:10:57.000Z</time>
      </trkpt>
      <trkpt lat="43.40811" lon="5.48943">
        <ele>683</ele>
        <time>2023-10-15T10:10:59.000Z</time>
      </trkpt>
      <trkpt lat="43.4081" lon="5.4894">
        <ele>682.4</ele>
        <time>2023-10-15T10:11:04.000Z</time>
      </trkpt>
      <trkpt lat="43.4081" lon="5.48939">
        <ele>682.2</ele>
        <time>2023-10-15T10:11:05.000Z</time>
      </trkpt>
      <trkpt lat="43.4081" lon="5.48936">
        <ele>681.3</ele>
        <time>2023-10-15T10:11:13.000Z</time>
      </trkpt>
      <trkpt lat="43.4081" lon="5.48935">
        <ele>681</ele>
        <time>2023-10-15T10:11:16.000Z</time>
      </trkpt>
      <trkpt lat="43.4081" lon="5.48935">
        <ele>680.7</ele>
        <time>2023-10-15T10:11:19.000Z</time>
      </trkpt>
      <trkpt lat="43.4081" lon="5.48934">
        <ele>680.6</ele>
        <time>2023-10-15T10:11:20.000Z</time>
      </trkpt>
      <trkpt lat="43.40809" lon="5.48929">
        <ele>679.6</ele>
        <time>2023-10-15T10:11:31.000Z</time>
      </trkpt>
      <trkpt lat="43.40809" lon="5.48928">
        <ele>679.4</ele>
        <time>2023-10-15T10:11:33.000Z</time>
      </trkpt>
      <trkpt lat="43.40809" lon="5.48925">
        <ele>678.7</ele>
        <time>2023-10-15T10:11:40.000Z</time>
      </trkpt>
      <trkpt lat="43.40809" lon="5.48925">
        <ele>678.3</ele>
        <time>2023-10-15T10:11:44.000Z</time>
      </trkpt>
      <trkpt lat="43.4081" lon="5.48921">
        <ele>677.5</ele>
        <time>2023-10-15T10:11:52.000Z</time>
      </trkpt>
      <trkpt lat="43.4081" lon="5.48921">
        <ele>677.4</ele>
        <time>2023-10-15T10:11:53.000Z</time>
      </trkpt>
      <trkpt lat="43.40809" lon="5.4892">
        <ele>677</ele>
        <time>2023-10-15T10:11:56.000Z</time>
      </trkpt>
      <trkpt lat="43.40809" lon="5.4892">
        <ele>676.9</ele>
        <time>2023-10-15T10:11:57.000Z</time>
      </trkpt>
      <trkpt lat="43.40812" lon="5.48908">
        <ele>675.8</ele>
        <time>2023-10-15T10:12:18.000Z</time>
      </trkpt>
      <trkpt lat="43.40812" lon="5.48905">
        <ele>675.6</ele>
        <time>2023-10-15T10:12:26.000Z</time>
      </trkpt>
      <trkpt lat="43.40813" lon="5.48905">
        <ele>675.5</ele>
        <time>2023-10-15T10:12:28.000Z</time>
      </trkpt>
      <trkpt lat="43.40813" lon="5.48905">
        <ele>675.5</ele>
        <time>2023-10-15T10:12:29.000Z</time>
      </trkpt>
      <trkpt lat="43.40813" lon="5.48905">
        <ele>675.4</ele>
        <time>2023-10-15T10:12:31.000Z</time>
      </trkpt>
      <trkpt lat="43.40813" lon="5.48895">
        <ele>674.4</ele>
        <time>2023-10-15T10:12:53.000Z</time>
      </trkpt>
      <trkpt lat="43.40813" lon="5.48895">
        <ele>674.4</ele>
        <time>2023-10-15T10:12:54.000Z</time>
      </trkpt>
      <trkpt lat="43.40813" lon="5.48895">
        <ele>674.4</ele>
        <time>2023-10-15T10:12:55.000Z</time>
      </trkpt>
      <trkpt lat="43.40813" lon="5.48895">
        <ele>674.3</ele>
        <time>2023-10-15T10:12:57.000Z</time>
      </trkpt>
      <trkpt lat="43.40815" lon="5.48886">
        <ele>673.1</ele>
        <time>2023-10-15T10:13:16.000Z</time>
      </trkpt>
      <trkpt lat="43.40815" lon="5.48885">
        <ele>672.6</ele>
        <time>2023-10-15T10:13:23.000Z</time>
      </trkpt>
      <trkpt lat="43.40815" lon="5.48884">
        <ele>672.6</ele>
        <time>2023-10-15T10:13:26.000Z</time>
      </trkpt>
      <trkpt lat="43.40815" lon="5.48884">
        <ele>672.6</ele>
        <time>2023-10-15T10:13:27.000Z</time>
      </trkpt>
      <trkpt lat="43.40812" lon="5.48874">
        <ele>671</ele>
        <time>2023-10-15T10:13:54.000Z</time>
      </trkpt>
      <trkpt lat="43.40812" lon="5.48874">
        <ele>670.9</ele>
        <time>2023-10-15T10:13:55.000Z</time>
      </trkpt>
      <trkpt lat="43.40813" lon="5.48874">
        <ele>670.7</ele>
        <time>2023-10-15T10:13:57.000Z</time>
      </trkpt>
      <trkpt lat="43.40813" lon="5.48874">
        <ele>670.6</ele>
        <time>2023-10-15T10:13:58.000Z</time>
      </trkpt>
      <trkpt lat="43.40813" lon="5.48874">
        <ele>670.3</ele>
        <time>2023-10-15T10:14:03.000Z</time>
      </trkpt>
      <trkpt lat="43.40813" lon="5.48873">
        <ele>670.1</ele>
        <time>2023-10-15T10:14:05.000Z</time>
      </trkpt>
      <trkpt lat="43.40813" lon="5.48873">
        <ele>670.1</ele>
        <time>2023-10-15T10:14:06.000Z</time>
      </trkpt>
      <trkpt lat="43.40813" lon="5.48873">
        <ele>670</ele>
        <time>2023-10-15T10:14:11.000Z</time>
      </trkpt>
      <trkpt lat="43.40813" lon="5.48872">
        <ele>669.9</ele>
        <time>2023-10-15T10:14:15.000Z</time>
      </trkpt>
      <trkpt lat="43.40813" lon="5.48871">
        <ele>669.9</ele>
        <time>2023-10-15T10:14:16.000Z</time>
      </trkpt>
      <trkpt lat="43.40815" lon="5.48859">
        <ele>668.5</ele>
        <time>2023-10-15T10:14:32.000Z</time>
      </trkpt>
      <trkpt lat="43.40816" lon="5.48855">
        <ele>667.4</ele>
        <time>2023-10-15T10:14:42.000Z</time>
      </trkpt>
      <trkpt lat="43.40815" lon="5.48855">
        <ele>667.2</ele>
        <time>2023-10-15T10:14:43.000Z</time>
      </trkpt>
      <trkpt lat="43.40815" lon="5.48854">
        <ele>666.8</ele>
        <time>2023-10-15T10:14:46.000Z</time>
      </trkpt>
      <trkpt lat="43.40815" lon="5.48854">
        <ele>666.5</ele>
        <time>2023-10-15T10:14:51.000Z</time>
      </trkpt>
      <trkpt lat="43.40815" lon="5.48854">
        <ele>666.4</ele>
        <time>2023-10-15T10:14:52.000Z</time>
      </trkpt>
      <trkpt lat="43.40815" lon="5.48854">
        <ele>666.1</ele>
        <time>2023-10-15T10:14:58.000Z</time>
      </trkpt>
      <trkpt lat="43.40813" lon="5.48853">
        <ele>665.7</ele>
        <time>2023-10-15T10:15:03.000Z</time>
      </trkpt>
      <trkpt lat="43.40813" lon="5.48853">
        <ele>665.7</ele>
        <time>2023-10-15T10:15:04.000Z</time>
      </trkpt>
      <trkpt lat="43.40813" lon="5.48844">
        <ele>665.1</ele>
        <time>2023-10-15T10:15:18.000Z</time>
      </trkpt>
      <trkpt lat="43.40813" lon="5.48844">
        <ele>664.8</ele>
        <time>2023-10-15T10:15:21.000Z</time>
      </trkpt>
      <trkpt lat="43.40817" lon="5.48834">
        <ele>663.7</ele>
        <time>2023-10-15T10:15:38.000Z</time>
      </trkpt>
      <trkpt lat="43.40817" lon="5.48834">
        <ele>663.8</ele>
        <time>2023-10-15T10:15:42.000Z</time>
      </trkpt>
      <trkpt lat="43.40819" lon="5.48822">
        <ele>662.4</ele>
        <time>2023-10-15T10:16:05.000Z</time>
      </trkpt>
      <trkpt lat="43.40818" lon="5.48819">
        <ele>661.5</ele>
        <time>2023-10-15T10:16:12.000Z</time>
      </trkpt>
      <trkpt lat="43.40818" lon="5.48818">
        <ele>661.2</ele>
        <time>2023-10-15T10:16:18.000Z</time>
      </trkpt>
      <trkpt lat="43.40818" lon="5.48818">
        <ele>661.2</ele>
        <time>2023-10-15T10:16:19.000Z</time>
      </trkpt>
      <trkpt lat="43.40818" lon="5.48817">
        <ele>661</ele>
        <time>2023-10-15T10:16:23.000Z</time>
      </trkpt>
      <trkpt lat="43.40818" lon="5.48817">
        <ele>661</ele>
        <time>2023-10-15T10:16:24.000Z</time>
      </trkpt>
      <trkpt lat="43.40818" lon="5.48817">
        <ele>660.7</ele>
        <time>2023-10-15T10:16:27.000Z</time>
      </trkpt>
      <trkpt lat="43.40817" lon="5.48817">
        <ele>660.5</ele>
        <time>2023-10-15T10:16:29.000Z</time>
      </trkpt>
      <trkpt lat="43.40817" lon="5.48816">
        <ele>660</ele>
        <time>2023-10-15T10:16:35.000Z</time>
      </trkpt>
      <trkpt lat="43.40816" lon="5.48813">
        <ele>659.2</ele>
        <time>2023-10-15T10:16:45.000Z</time>
      </trkpt>
      <trkpt lat="43.40816" lon="5.48813">
        <ele>659</ele>
        <time>2023-10-15T10:16:48.000Z</time>
      </trkpt>
      <trkpt lat="43.40816" lon="5.48807">
        <ele>658.1</ele>
        <time>2023-10-15T10:17:02.000Z</time>
      </trkpt>
      <trkpt lat="43.40816" lon="5.48807">
        <ele>658</ele>
        <time>2023-10-15T10:17:03.000Z</time>
      </trkpt>
      <trkpt lat="43.40816" lon="5.48806">
        <ele>657.6</ele>
        <time>2023-10-15T10:17:08.000Z</time>
      </trkpt>
      <trkpt lat="43.40816" lon="5.48805">
        <ele>657.5</ele>
        <time>2023-10-15T10:17:09.000Z</time>
      </trkpt>
      <trkpt lat="43.40816" lon="5.48805">
        <ele>657.4</ele>
        <time>2023-10-15T10:17:11.000Z</time>
      </trkpt>
      <trkpt lat="43.40816" lon="5.48805">
        <ele>657.4</ele>
        <time>2023-10-15T10:17:12.000Z</time>
      </trkpt>
      <trkpt lat="43.40816" lon="5.48804">
        <ele>657</ele>
        <time>2023-10-15T10:17:18.000Z</time>
      </trkpt>
      <trkpt lat="43.40816" lon="5.48804">
        <ele>657</ele>
        <time>2023-10-15T10:17:19.000Z</time>
      </trkpt>
      <trkpt lat="43.40816" lon="5.48804">
        <ele>656.9</ele>
        <time>2023-10-15T10:17:20.000Z</time>
      </trkpt>
      <trkpt lat="43.40815" lon="5.48803">
        <ele>656.8</ele>
        <time>2023-10-15T10:17:23.000Z</time>
      </trkpt>
      <trkpt lat="43.4081" lon="5.488">
        <ele>654.6</ele>
        <time>2023-10-15T10:17:47.000Z</time>
      </trkpt>
      <trkpt lat="43.4081" lon="5.48799">
        <ele>654.5</ele>
        <time>2023-10-15T10:17:48.000Z</time>
      </trkpt>
      <trkpt lat="43.4081" lon="5.48799">
        <ele>654.3</ele>
        <time>2023-10-15T10:17:50.000Z</time>
      </trkpt>
      <trkpt lat="43.4081" lon="5.48799">
        <ele>654.2</ele>
        <time>2023-10-15T10:17:51.000Z</time>
      </trkpt>
      <trkpt lat="43.4081" lon="5.48798">
        <ele>654</ele>
        <time>2023-10-15T10:17:53.000Z</time>
      </trkpt>
      <trkpt lat="43.4081" lon="5.48798">
        <ele>653.9</ele>
        <time>2023-10-15T10:17:54.000Z</time>
      </trkpt>
      <trkpt lat="43.4081" lon="5.48798">
        <ele>653.8</ele>
        <time>2023-10-15T10:17:55.000Z</time>
      </trkpt>
      <trkpt lat="43.4081" lon="5.48798">
        <ele>653.4</ele>
        <time>2023-10-15T10:18:00.000Z</time>
      </trkpt>
      <trkpt lat="43.4081" lon="5.48798">
        <ele>653.3</ele>
        <time>2023-10-15T10:18:01.000Z</time>
      </trkpt>
      <trkpt lat="43.40811" lon="5.48797">
        <ele>653.2</ele>
        <time>2023-10-15T10:18:02.000Z</time>
      </trkpt>
      <trkpt lat="43.40811" lon="5.48797">
        <ele>652.8</ele>
        <time>2023-10-15T10:18:06.000Z</time>
      </trkpt>
      <trkpt lat="43.40811" lon="5.48796">
        <ele>652.7</ele>
        <time>2023-10-15T10:18:07.000Z</time>
      </trkpt>
      <trkpt lat="43.40812" lon="5.48796">
        <ele>652.3</ele>
        <time>2023-10-15T10:18:10.000Z</time>
      </trkpt>
      <trkpt lat="43.40812" lon="5.48795">
        <ele>652.3</ele>
        <time>2023-10-15T10:18:11.000Z</time>
      </trkpt>
      <trkpt lat="43.40811" lon="5.48794">
        <ele>652.2</ele>
        <time>2023-10-15T10:18:18.000Z</time>
      </trkpt>
      <trkpt lat="43.40812" lon="5.48793">
        <ele>652.4</ele>
        <time>2023-10-15T10:18:21.000Z</time>
      </trkpt>
      <trkpt lat="43.40812" lon="5.48793">
        <ele>652.5</ele>
        <time>2023-10-15T10:18:22.000Z</time>
      </trkpt>
      <trkpt lat="43.40811" lon="5.48793">
        <ele>652.6</ele>
        <time>2023-10-15T10:18:24.000Z</time>
      </trkpt>
      <trkpt lat="43.40811" lon="5.48793">
        <ele>652.7</ele>
        <time>2023-10-15T10:18:25.000Z</time>
      </trkpt>
      <trkpt lat="43.40811" lon="5.48793">
        <ele>652.8</ele>
        <time>2023-10-15T10:18:27.000Z</time>
      </trkpt>
      <trkpt lat="43.4081" lon="5.48792">
        <ele>653</ele>
        <time>2023-10-15T10:18:30.000Z</time>
      </trkpt>
      <trkpt lat="43.40811" lon="5.48792">
        <ele>653</ele>
        <time>2023-10-15T10:18:32.000Z</time>
      </trkpt>
      <trkpt lat="43.40811" lon="5.48792">
        <ele>652.9</ele>
        <time>2023-10-15T10:18:33.000Z</time>
      </trkpt>
      <trkpt lat="43.4081" lon="5.48792">
        <ele>652.9</ele>
        <time>2023-10-15T10:18:34.000Z</time>
      </trkpt>
      <trkpt lat="43.40811" lon="5.4879">
        <ele>652.5</ele>
        <time>2023-10-15T10:18:41.000Z</time>
      </trkpt>
      <trkpt lat="43.40811" lon="5.48789">
        <ele>651.3</ele>
        <time>2023-10-15T10:18:54.000Z</time>
      </trkpt>
      <trkpt lat="43.40811" lon="5.48789">
        <ele>651.2</ele>
        <time>2023-10-15T10:18:55.000Z</time>
      </trkpt>
      <trkpt lat="43.40811" lon="5.48789">
        <ele>651.1</ele>
        <time>2023-10-15T10:18:57.000Z</time>
      </trkpt>
      <trkpt lat="43.40811" lon="5.48788">
        <ele>650.9</ele>
        <time>2023-10-15T10:19:00.000Z</time>
      </trkpt>
      <trkpt lat="43.40811" lon="5.48789">
        <ele>650.6</ele>
        <time>2023-10-15T10:19:03.000Z</time>
      </trkpt>
      <trkpt lat="43.40811" lon="5.48789">
        <ele>650.5</ele>
        <time>2023-10-15T10:19:04.000Z</time>
      </trkpt>
      <trkpt lat="43.4081" lon="5.48789">
        <ele>650.2</ele>
        <time>2023-10-15T10:19:09.000Z</time>
      </trkpt>
      <trkpt lat="43.4081" lon="5.48788">
        <ele>650.1</ele>
        <time>2023-10-15T10:19:12.000Z</time>
      </trkpt>
      <trkpt lat="43.4081" lon="5.48788">
        <ele>650.1</ele>
        <time>2023-10-15T10:19:14.000Z</time>
      </trkpt>
      <trkpt lat="43.40809" lon="5.48787">
        <ele>649.9</ele>
        <time>2023-10-15T10:19:19.000Z</time>
      </trkpt>
      <trkpt lat="43.40809" lon="5.48787">
        <ele>649.8</ele>
        <time>2023-10-15T10:19:20.000Z</time>
      </trkpt>
      <trkpt lat="43.40809" lon="5.48786">
        <ele>649.7</ele>
        <time>2023-10-15T10:19:22.000Z</time>
      </trkpt>
      <trkpt lat="43.40809" lon="5.48786">
        <ele>649.7</ele>
        <time>2023-10-15T10:19:23.000Z</time>
      </trkpt>
      <trkpt lat="43.40809" lon="5.48786">
        <ele>649.7</ele>
        <time>2023-10-15T10:19:24.000Z</time>
      </trkpt>
      <trkpt lat="43.40809" lon="5.48786">
        <ele>649.6</ele>
        <time>2023-10-15T10:19:26.000Z</time>
      </trkpt>
      <trkpt lat="43.40809" lon="5.48786">
        <ele>649.6</ele>
        <time>2023-10-15T10:19:27.000Z</time>
      </trkpt>
      <trkpt lat="43.40809" lon="5.48785">
        <ele>649.5</ele>
        <time>2023-10-15T10:19:28.000Z</time>
      </trkpt>
      <trkpt lat="43.40809" lon="5.48785">
        <ele>649.4</ele>
        <time>2023-10-15T10:19:31.000Z</time>
      </trkpt>
      <trkpt lat="43.40809" lon="5.48785">
        <ele>649.3</ele>
        <time>2023-10-15T10:19:32.000Z</time>
      </trkpt>
      <trkpt lat="43.40809" lon="5.48783">
        <ele>648.6</ele>
        <time>2023-10-15T10:19:41.000Z</time>
      </trkpt>
      <trkpt lat="43.40809" lon="5.48783">
        <ele>648.3</ele>
        <time>2023-10-15T10:19:49.000Z</time>
      </trkpt>
      <trkpt lat="43.40809" lon="5.48782">
        <ele>648.2</ele>
        <time>2023-10-15T10:19:51.000Z</time>
      </trkpt>
      <trkpt lat="43.40809" lon="5.48782">
        <ele>648.1</ele>
        <time>2023-10-15T10:19:57.000Z</time>
      </trkpt>
      <trkpt lat="43.4081" lon="5.48782">
        <ele>648</ele>
        <time>2023-10-15T10:20:00.000Z</time>
      </trkpt>
      <trkpt lat="43.4081" lon="5.48782">
        <ele>648</ele>
        <time>2023-10-15T10:20:03.000Z</time>
      </trkpt>
      <trkpt lat="43.4081" lon="5.48782">
        <ele>647.9</ele>
        <time>2023-10-15T10:20:04.000Z</time>
      </trkpt>
      <trkpt lat="43.4081" lon="5.48782">
        <ele>647.8</ele>
        <time>2023-10-15T10:20:11.000Z</time>
      </trkpt>
      <trkpt lat="43.4081" lon="5.48781">
        <ele>647.6</ele>
        <time>2023-10-15T10:20:15.000Z</time>
      </trkpt>
      <trkpt lat="43.4081" lon="5.48781">
        <ele>647.5</ele>
        <time>2023-10-15T10:20:18.000Z</time>
      </trkpt>
      <trkpt lat="43.40809" lon="5.48781">
        <ele>647.3</ele>
        <time>2023-10-15T10:20:23.000Z</time>
      </trkpt>
      <trkpt lat="43.40809" lon="5.48781">
        <ele>647.2</ele>
        <time>2023-10-15T10:20:24.000Z</time>
      </trkpt>
      <trkpt lat="43.40804" lon="5.48778">
        <ele>646.7</ele>
        <time>2023-10-15T10:20:36.000Z</time>
      </trkpt>
      <trkpt lat="43.40804" lon="5.48778">
        <ele>646.5</ele>
        <time>2023-10-15T10:20:39.000Z</time>
      </trkpt>
      <trkpt lat="43.40804" lon="5.48779">
        <ele>646.3</ele>
        <time>2023-10-15T10:20:43.000Z</time>
      </trkpt>
      <trkpt lat="43.40803" lon="5.48779">
        <ele>646.2</ele>
        <time>2023-10-15T10:20:45.000Z</time>
      </trkpt>
      <trkpt lat="43.40804" lon="5.48779">
        <ele>646.2</ele>
        <time>2023-10-15T10:20:47.000Z</time>
      </trkpt>
      <trkpt lat="43.40803" lon="5.48779">
        <ele>646.1</ele>
        <time>2023-10-15T10:20:49.000Z</time>
      </trkpt>
      <trkpt lat="43.40803" lon="5.48779">
        <ele>645.9</ele>
        <time>2023-10-15T10:20:52.000Z</time>
      </trkpt>
      <trkpt lat="43.40803" lon="5.48779">
        <ele>645.8</ele>
        <time>2023-10-15T10:20:55.000Z</time>
      </trkpt>
      <trkpt lat="43.40803" lon="5.48779">
        <ele>645.7</ele>
        <time>2023-10-15T10:20:56.000Z</time>
      </trkpt>
      <trkpt lat="43.40803" lon="5.48778">
        <ele>645.3</ele>
        <time>2023-10-15T10:21:01.000Z</time>
      </trkpt>
      <trkpt lat="43.40802" lon="5.48779">
        <ele>645</ele>
        <time>2023-10-15T10:21:04.000Z</time>
      </trkpt>
      <trkpt lat="43.40803" lon="5.48779">
        <ele>644.9</ele>
        <time>2023-10-15T10:21:05.000Z</time>
      </trkpt>
      <trkpt lat="43.40802" lon="5.4878">
        <ele>644.7</ele>
        <time>2023-10-15T10:21:08.000Z</time>
      </trkpt>
      <trkpt lat="43.40802" lon="5.4878">
        <ele>644.6</ele>
        <time>2023-10-15T10:21:09.000Z</time>
      </trkpt>
      <trkpt lat="43.40802" lon="5.4878">
        <ele>644.4</ele>
        <time>2023-10-15T10:21:11.000Z</time>
      </trkpt>
      <trkpt lat="43.40802" lon="5.48781">
        <ele>644</ele>
        <time>2023-10-15T10:21:19.000Z</time>
      </trkpt>
      <trkpt lat="43.40803" lon="5.48782">
        <ele>643.9</ele>
        <time>2023-10-15T10:21:21.000Z</time>
      </trkpt>
      <trkpt lat="43.40802" lon="5.48782">
        <ele>643.8</ele>
        <time>2023-10-15T10:21:22.000Z</time>
      </trkpt>
      <trkpt lat="43.40802" lon="5.48783">
        <ele>643.6</ele>
        <time>2023-10-15T10:21:26.000Z</time>
      </trkpt>
      <trkpt lat="43.40802" lon="5.48783">
        <ele>643.4</ele>
        <time>2023-10-15T10:21:30.000Z</time>
      </trkpt>
      <trkpt lat="43.40802" lon="5.48783">
        <ele>643.1</ele>
        <time>2023-10-15T10:21:33.000Z</time>
      </trkpt>
      <trkpt lat="43.40802" lon="5.48782">
        <ele>643</ele>
        <time>2023-10-15T10:21:34.000Z</time>
      </trkpt>
      <trkpt lat="43.40803" lon="5.48781">
        <ele>642.8</ele>
        <time>2023-10-15T10:21:37.000Z</time>
      </trkpt>
      <trkpt lat="43.40803" lon="5.48781">
        <ele>642.7</ele>
        <time>2023-10-15T10:21:38.000Z</time>
      </trkpt>
      <trkpt lat="43.40803" lon="5.48781">
        <ele>642.7</ele>
        <time>2023-10-15T10:21:39.000Z</time>
      </trkpt>
      <trkpt lat="43.40803" lon="5.48781">
        <ele>642.3</ele>
        <time>2023-10-15T10:21:44.000Z</time>
      </trkpt>
      <trkpt lat="43.40803" lon="5.4878">
        <ele>642</ele>
        <time>2023-10-15T10:21:46.000Z</time>
      </trkpt>
      <trkpt lat="43.40803" lon="5.4878">
        <ele>641.9</ele>
        <time>2023-10-15T10:21:47.000Z</time>
      </trkpt>
      <trkpt lat="43.40803" lon="5.4878">
        <ele>641.4</ele>
        <time>2023-10-15T10:21:51.000Z</time>
      </trkpt>
      <trkpt lat="43.40804" lon="5.4878">
        <ele>641.1</ele>
        <time>2023-10-15T10:21:54.000Z</time>
      </trkpt>
      <trkpt lat="43.40804" lon="5.4878">
        <ele>641</ele>
        <time>2023-10-15T10:21:55.000Z</time>
      </trkpt>
      <trkpt lat="43.40804" lon="5.48779">
        <ele>640.5</ele>
        <time>2023-10-15T10:22:01.000Z</time>
      </trkpt>
      <trkpt lat="43.40804" lon="5.48779">
        <ele>640.4</ele>
        <time>2023-10-15T10:22:02.000Z</time>
      </trkpt>
      <trkpt lat="43.40803" lon="5.48778">
        <ele>640.3</ele>
        <time>2023-10-15T10:22:04.000Z</time>
      </trkpt>
      <trkpt lat="43.40803" lon="5.48778">
        <ele>640.3</ele>
        <time>2023-10-15T10:22:05.000Z</time>
      </trkpt>
      <trkpt lat="43.40803" lon="5.48778">
        <ele>640.2</ele>
        <time>2023-10-15T10:22:06.000Z</time>
      </trkpt>
      <trkpt lat="43.40803" lon="5.48778">
        <ele>640.2</ele>
        <time>2023-10-15T10:22:07.000Z</time>
      </trkpt>
      <trkpt lat="43.40803" lon="5.48778">
        <ele>640.2</ele>
        <time>2023-10-15T10:22:10.000Z</time>
      </trkpt>
      <trkpt lat="43.40803" lon="5.48778">
        <ele>640.2</ele>
        <time>2023-10-15T10:22:11.000Z</time>
      </trkpt>
      <trkpt lat="43.40803" lon="5.48778">
        <ele>640.1</ele>
        <time>2023-10-15T10:22:14.000Z</time>
      </trkpt>
      <trkpt lat="43.40803" lon="5.48778">
        <ele>640.1</ele>
        <time>2023-10-15T10:22:15.000Z</time>
      </trkpt>
      <trkpt lat="43.40803" lon="5.48778">
        <ele>640.1</ele>
        <time>2023-10-15T10:22:16.000Z</time>
      </trkpt>
      <trkpt lat="43.40802" lon="5.48778">
        <ele>640.1</ele>
        <time>2023-10-15T10:22:18.000Z</time>
      </trkpt>
      <trkpt lat="43.40803" lon="5.48777">
        <ele>640.1</ele>
        <time>2023-10-15T10:22:19.000Z</time>
      </trkpt>
      <trkpt lat="43.40803" lon="5.48777">
        <ele>640</ele>
        <time>2023-10-15T10:22:21.000Z</time>
      </trkpt>
      <trkpt lat="43.40803" lon="5.48777">
        <ele>639.9</ele>
        <time>2023-10-15T10:22:22.000Z</time>
      </trkpt>
      <trkpt lat="43.40802" lon="5.48776">
        <ele>639.4</ele>
        <time>2023-10-15T10:22:29.000Z</time>
      </trkpt>
      <trkpt lat="43.40802" lon="5.48775">
        <ele>639.3</ele>
        <time>2023-10-15T10:22:30.000Z</time>
      </trkpt>
      <trkpt lat="43.40802" lon="5.48774">
        <ele>638.9</ele>
        <time>2023-10-15T10:22:33.000Z</time>
      </trkpt>
      <trkpt lat="43.40802" lon="5.48774">
        <ele>638.7</ele>
        <time>2023-10-15T10:22:35.000Z</time>
      </trkpt>
      <trkpt lat="43.40801" lon="5.48771">
        <ele>637.7</ele>
        <time>2023-10-15T10:22:41.000Z</time>
      </trkpt>
      <trkpt lat="43.40802" lon="5.48771">
        <ele>637.6</ele>
        <time>2023-10-15T10:22:42.000Z</time>
      </trkpt>
      <trkpt lat="43.40802" lon="5.48771">
        <ele>637.2</ele>
        <time>2023-10-15T10:22:45.000Z</time>
      </trkpt>
      <trkpt lat="43.40803" lon="5.48771">
        <ele>637</ele>
        <time>2023-10-15T10:22:47.000Z</time>
      </trkpt>
      <trkpt lat="43.40803" lon="5.4877">
        <ele>636.6</ele>
        <time>2023-10-15T10:22:52.000Z</time>
      </trkpt>
      <trkpt lat="43.40803" lon="5.4877">
        <ele>636.5</ele>
        <time>2023-10-15T10:22:53.000Z</time>
      </trkpt>
      <trkpt lat="43.40803" lon="5.4877">
        <ele>636.4</ele>
        <time>2023-10-15T10:22:54.000Z</time>
      </trkpt>
      <trkpt lat="43.40803" lon="5.4877">
        <ele>636.3</ele>
        <time>2023-10-15T10:22:55.000Z</time>
      </trkpt>
      <trkpt lat="43.40803" lon="5.4877">
        <ele>636.3</ele>
        <time>2023-10-15T10:22:56.000Z</time>
      </trkpt>
      <trkpt lat="43.40803" lon="5.4877">
        <ele>635.8</ele>
        <time>2023-10-15T10:23:04.000Z</time>
      </trkpt>
      <trkpt lat="43.40803" lon="5.48769">
        <ele>635.7</ele>
        <time>2023-10-15T10:23:09.000Z</time>
      </trkpt>
      <trkpt lat="43.40803" lon="5.48769">
        <ele>635.7</ele>
        <time>2023-10-15T10:23:11.000Z</time>
      </trkpt>
      <trkpt lat="43.40802" lon="5.48769">
        <ele>635.6</ele>
        <time>2023-10-15T10:23:14.000Z</time>
      </trkpt>
      <trkpt lat="43.40802" lon="5.48768">
        <ele>635.5</ele>
        <time>2023-10-15T10:23:17.000Z</time>
      </trkpt>
      <trkpt lat="43.40802" lon="5.48768">
        <ele>635.5</ele>
        <time>2023-10-15T10:23:18.000Z</time>
      </trkpt>
      <trkpt lat="43.40802" lon="5.48768">
        <ele>635.4</ele>
        <time>2023-10-15T10:23:21.000Z</time>
      </trkpt>
      <trkpt lat="43.40801" lon="5.48767">
        <ele>635.1</ele>
        <time>2023-10-15T10:23:27.000Z</time>
      </trkpt>
      <trkpt lat="43.40801" lon="5.48767">
        <ele>635</ele>
        <time>2023-10-15T10:23:28.000Z</time>
      </trkpt>
      <trkpt lat="43.40801" lon="5.48766">
        <ele>635</ele>
        <time>2023-10-15T10:23:30.000Z</time>
      </trkpt>
      <trkpt lat="43.40801" lon="5.48766">
        <ele>634.9</ele>
        <time>2023-10-15T10:23:32.000Z</time>
      </trkpt>
      <trkpt lat="43.40801" lon="5.48766">
        <ele>634.7</ele>
        <time>2023-10-15T10:23:35.000Z</time>
      </trkpt>
      <trkpt lat="43.408" lon="5.48766">
        <ele>634.7</ele>
        <time>2023-10-15T10:23:37.000Z</time>
      </trkpt>
      <trkpt lat="43.408" lon="5.48766">
        <ele>634.6</ele>
        <time>2023-10-15T10:23:38.000Z</time>
      </trkpt>
      <trkpt lat="43.408" lon="5.48765">
        <ele>634.6</ele>
        <time>2023-10-15T10:23:39.000Z</time>
      </trkpt>
      <trkpt lat="43.40799" lon="5.48765">
        <ele>634.3</ele>
        <time>2023-10-15T10:23:44.000Z</time>
      </trkpt>
      <trkpt lat="43.40799" lon="5.48764">
        <ele>633.9</ele>
        <time>2023-10-15T10:23:49.000Z</time>
      </trkpt>
      <trkpt lat="43.40798" lon="5.48764">
        <ele>633.8</ele>
        <time>2023-10-15T10:23:51.000Z</time>
      </trkpt>
      <trkpt lat="43.40798" lon="5.48764">
        <ele>633.6</ele>
        <time>2023-10-15T10:23:55.000Z</time>
      </trkpt>
      <trkpt lat="43.40798" lon="5.48764">
        <ele>633.6</ele>
        <time>2023-10-15T10:23:56.000Z</time>
      </trkpt>
      <trkpt lat="43.40798" lon="5.48764">
        <ele>633.4</ele>
        <time>2023-10-15T10:24:00.000Z</time>
      </trkpt>
      <trkpt lat="43.40798" lon="5.48764">
        <ele>633.3</ele>
        <time>2023-10-15T10:24:01.000Z</time>
      </trkpt>
      <trkpt lat="43.40798" lon="5.48764">
        <ele>633.3</ele>
        <time>2023-10-15T10:24:02.000Z</time>
      </trkpt>
      <trkpt lat="43.408" lon="5.48762">
        <ele>632.9</ele>
        <time>2023-10-15T10:24:10.000Z</time>
      </trkpt>
      <trkpt lat="43.408" lon="5.48762">
        <ele>632.8</ele>
        <time>2023-10-15T10:24:12.000Z</time>
      </trkpt>
      <trkpt lat="43.408" lon="5.48761">
        <ele>632.7</ele>
        <time>2023-10-15T10:24:14.000Z</time>
      </trkpt>
      <trkpt lat="43.408" lon="5.48761">
        <ele>632.6</ele>
        <time>2023-10-15T10:24:15.000Z</time>
      </trkpt>
      <trkpt lat="43.408" lon="5.4876">
        <ele>632.3</ele>
        <time>2023-10-15T10:24:20.000Z</time>
      </trkpt>
      <trkpt lat="43.408" lon="5.4876">
        <ele>632</ele>
        <time>2023-10-15T10:24:24.000Z</time>
      </trkpt>
      <trkpt lat="43.408" lon="5.48759">
        <ele>631.7</ele>
        <time>2023-10-15T10:24:28.000Z</time>
      </trkpt>
      <trkpt lat="43.408" lon="5.48759">
        <ele>631.7</ele>
        <time>2023-10-15T10:24:29.000Z</time>
      </trkpt>
      <trkpt lat="43.408" lon="5.48759">
        <ele>631.6</ele>
        <time>2023-10-15T10:24:30.000Z</time>
      </trkpt>
      <trkpt lat="43.408" lon="5.48759">
        <ele>631.5</ele>
        <time>2023-10-15T10:24:31.000Z</time>
      </trkpt>
      <trkpt lat="43.408" lon="5.48758">
        <ele>631.4</ele>
        <time>2023-10-15T10:24:33.000Z</time>
      </trkpt>
      <trkpt lat="43.40799" lon="5.48758">
        <ele>631</ele>
        <time>2023-10-15T10:24:37.000Z</time>
      </trkpt>
      <trkpt lat="43.408" lon="5.48756">
        <ele>630.4</ele>
        <time>2023-10-15T10:24:44.000Z</time>
      </trkpt>
      <trkpt lat="43.408" lon="5.48756">
        <ele>630.4</ele>
        <time>2023-10-15T10:24:45.000Z</time>
      </trkpt>
      <trkpt lat="43.40798" lon="5.48755">
        <ele>629.8</ele>
        <time>2023-10-15T10:24:51.000Z</time>
      </trkpt>
      <trkpt lat="43.40798" lon="5.48755">
        <ele>629.4</ele>
        <time>2023-10-15T10:24:57.000Z</time>
      </trkpt>
      <trkpt lat="43.40798" lon="5.48755">
        <ele>629.3</ele>
        <time>2023-10-15T10:24:58.000Z</time>
      </trkpt>
      <trkpt lat="43.40798" lon="5.48755">
        <ele>629.2</ele>
        <time>2023-10-15T10:25:00.000Z</time>
      </trkpt>
      <trkpt lat="43.40799" lon="5.48752">
        <ele>628.8</ele>
        <time>2023-10-15T10:25:10.000Z</time>
      </trkpt>
      <trkpt lat="43.40799" lon="5.48752">
        <ele>628.8</ele>
        <time>2023-10-15T10:25:11.000Z</time>
      </trkpt>
      <trkpt lat="43.40799" lon="5.48752">
        <ele>628.7</ele>
        <time>2023-10-15T10:25:12.000Z</time>
      </trkpt>
      <trkpt lat="43.40799" lon="5.48752">
        <ele>628.7</ele>
        <time>2023-10-15T10:25:14.000Z</time>
      </trkpt>
      <trkpt lat="43.40799" lon="5.48752">
        <ele>628.6</ele>
        <time>2023-10-15T10:25:15.000Z</time>
      </trkpt>
      <trkpt lat="43.40798" lon="5.48751">
        <ele>628.5</ele>
        <time>2023-10-15T10:25:18.000Z</time>
      </trkpt>
      <trkpt lat="43.40798" lon="5.48751">
        <ele>628.5</ele>
        <time>2023-10-15T10:25:19.000Z</time>
      </trkpt>
      <trkpt lat="43.40799" lon="5.48751">
        <ele>628.4</ele>
        <time>2023-10-15T10:25:21.000Z</time>
      </trkpt>
      <trkpt lat="43.40799" lon="5.48751">
        <ele>628.3</ele>
        <time>2023-10-15T10:25:23.000Z</time>
      </trkpt>
      <trkpt lat="43.40799" lon="5.4875">
        <ele>628.3</ele>
        <time>2023-10-15T10:25:24.000Z</time>
      </trkpt>
      <trkpt lat="43.40799" lon="5.48751">
        <ele>628.2</ele>
        <time>2023-10-15T10:25:25.000Z</time>
      </trkpt>
      <trkpt lat="43.40798" lon="5.4875">
        <ele>628.2</ele>
        <time>2023-10-15T10:25:26.000Z</time>
      </trkpt>
      <trkpt lat="43.40798" lon="5.4875">
        <ele>628.1</ele>
        <time>2023-10-15T10:25:28.000Z</time>
      </trkpt>
      <trkpt lat="43.40797" lon="5.4875">
        <ele>628</ele>
        <time>2023-10-15T10:25:29.000Z</time>
      </trkpt>
      <trkpt lat="43.40797" lon="5.4875">
        <ele>627.9</ele>
        <time>2023-10-15T10:25:32.000Z</time>
      </trkpt>
      <trkpt lat="43.40797" lon="5.4875">
        <ele>627.7</ele>
        <time>2023-10-15T10:25:36.000Z</time>
      </trkpt>
      <trkpt lat="43.40797" lon="5.4875">
        <ele>627.6</ele>
        <time>2023-10-15T10:25:37.000Z</time>
      </trkpt>
      <trkpt lat="43.40797" lon="5.4875">
        <ele>627.6</ele>
        <time>2023-10-15T10:25:38.000Z</time>
      </trkpt>
      <trkpt lat="43.40797" lon="5.48749">
        <ele>627.4</ele>
        <time>2023-10-15T10:25:41.000Z</time>
      </trkpt>
      <trkpt lat="43.40797" lon="5.48749">
        <ele>627.2</ele>
        <time>2023-10-15T10:25:44.000Z</time>
      </trkpt>
      <trkpt lat="43.40797" lon="5.48749">
        <ele>627.2</ele>
        <time>2023-10-15T10:25:45.000Z</time>
      </trkpt>
      <trkpt lat="43.40797" lon="5.48748">
        <ele>627.1</ele>
        <time>2023-10-15T10:25:47.000Z</time>
      </trkpt>
      <trkpt lat="43.40797" lon="5.48748">
        <ele>627</ele>
        <time>2023-10-15T10:25:48.000Z</time>
      </trkpt>
      <trkpt lat="43.40797" lon="5.48748">
        <ele>626.9</ele>
        <time>2023-10-15T10:25:50.000Z</time>
      </trkpt>
      <trkpt lat="43.40797" lon="5.48747">
        <ele>626.8</ele>
        <time>2023-10-15T10:25:52.000Z</time>
      </trkpt>
      <trkpt lat="43.40798" lon="5.48747">
        <ele>626.7</ele>
        <time>2023-10-15T10:25:53.000Z</time>
      </trkpt>
      <trkpt lat="43.40797" lon="5.48744">
        <ele>625.9</ele>
        <time>2023-10-15T10:26:04.000Z</time>
      </trkpt>
      <trkpt lat="43.40796" lon="5.48744">
        <ele>625.8</ele>
        <time>2023-10-15T10:26:05.000Z</time>
      </trkpt>
      <trkpt lat="43.40796" lon="5.48743">
        <ele>625.2</ele>
        <time>2023-10-15T10:26:15.000Z</time>
      </trkpt>
      <trkpt lat="43.40796" lon="5.48743">
        <ele>625.1</ele>
        <time>2023-10-15T10:26:16.000Z</time>
      </trkpt>
      <trkpt lat="43.40796" lon="5.48743">
        <ele>625.1</ele>
        <time>2023-10-15T10:26:17.000Z</time>
      </trkpt>
      <trkpt lat="43.40796" lon="5.48743">
        <ele>625</ele>
        <time>2023-10-15T10:26:18.000Z</time>
      </trkpt>
      <trkpt lat="43.40796" lon="5.48742">
        <ele>624.9</ele>
        <time>2023-10-15T10:26:20.000Z</time>
      </trkpt>
      <trkpt lat="43.40796" lon="5.48742">
        <ele>624.7</ele>
        <time>2023-10-15T10:26:24.000Z</time>
      </trkpt>
      <trkpt lat="43.40796" lon="5.48741">
        <ele>624.3</ele>
        <time>2023-10-15T10:26:31.000Z</time>
      </trkpt>
      <trkpt lat="43.40796" lon="5.4874">
        <ele>624.2</ele>
        <time>2023-10-15T10:26:32.000Z</time>
      </trkpt>
      <trkpt lat="43.40796" lon="5.48738">
        <ele>623.4</ele>
        <time>2023-10-15T10:26:44.000Z</time>
      </trkpt>
      <trkpt lat="43.40796" lon="5.48737">
        <ele>623</ele>
        <time>2023-10-15T10:26:50.000Z</time>
      </trkpt>
      <trkpt lat="43.40796" lon="5.48736">
        <ele>622.9</ele>
        <time>2023-10-15T10:26:53.000Z</time>
      </trkpt>
      <trkpt lat="43.40796" lon="5.48736">
        <ele>622.7</ele>
        <time>2023-10-15T10:26:58.000Z</time>
      </trkpt>
      <trkpt lat="43.40796" lon="5.48736">
        <ele>622.6</ele>
        <time>2023-10-15T10:27:00.000Z</time>
      </trkpt>
      <trkpt lat="43.40796" lon="5.48735">
        <ele>622.4</ele>
        <time>2023-10-15T10:27:04.000Z</time>
      </trkpt>
      <trkpt lat="43.40796" lon="5.48735">
        <ele>622.3</ele>
        <time>2023-10-15T10:27:05.000Z</time>
      </trkpt>
      <trkpt lat="43.40796" lon="5.48735">
        <ele>622.3</ele>
        <time>2023-10-15T10:27:06.000Z</time>
      </trkpt>
      <trkpt lat="43.40796" lon="5.48735">
        <ele>622.1</ele>
        <time>2023-10-15T10:27:09.000Z</time>
      </trkpt>
      <trkpt lat="43.40795" lon="5.48734">
        <ele>621.9</ele>
        <time>2023-10-15T10:27:13.000Z</time>
      </trkpt>
      <trkpt lat="43.40795" lon="5.48734">
        <ele>621.9</ele>
        <time>2023-10-15T10:27:14.000Z</time>
      </trkpt>
      <trkpt lat="43.40795" lon="5.48734">
        <ele>621.8</ele>
        <time>2023-10-15T10:27:16.000Z</time>
      </trkpt>
      <trkpt lat="43.40795" lon="5.48732">
        <ele>621.6</ele>
        <time>2023-10-15T10:27:22.000Z</time>
      </trkpt>
      <trkpt lat="43.40795" lon="5.48732">
        <ele>621.5</ele>
        <time>2023-10-15T10:27:24.000Z</time>
      </trkpt>
      <trkpt lat="43.40795" lon="5.4873">
        <ele>621.2</ele>
        <time>2023-10-15T10:27:30.000Z</time>
      </trkpt>
      <trkpt lat="43.40796" lon="5.4873">
        <ele>621.1</ele>
        <time>2023-10-15T10:27:32.000Z</time>
      </trkpt>
      <trkpt lat="43.40795" lon="5.48722">
        <ele>619.1</ele>
        <time>2023-10-15T10:27:53.000Z</time>
      </trkpt>
      <trkpt lat="43.40795" lon="5.48722">
        <ele>618.7</ele>
        <time>2023-10-15T10:27:56.000Z</time>
      </trkpt>
      <trkpt lat="43.40792" lon="5.48712">
        <ele>617.5</ele>
        <time>2023-10-15T10:28:12.000Z</time>
      </trkpt>
      <trkpt lat="43.40792" lon="5.48712">
        <ele>617.3</ele>
        <time>2023-10-15T10:28:14.000Z</time>
      </trkpt>
      <trkpt lat="43.40795" lon="5.48702">
        <ele>615.1</ele>
        <time>2023-10-15T10:28:42.000Z</time>
      </trkpt>
      <trkpt lat="43.40794" lon="5.48701">
        <ele>615.1</ele>
        <time>2023-10-15T10:28:43.000Z</time>
      </trkpt>
      <trkpt lat="43.40794" lon="5.48701">
        <ele>615</ele>
        <time>2023-10-15T10:28:46.000Z</time>
      </trkpt>
      <trkpt lat="43.40795" lon="5.48701">
        <ele>615</ele>
        <time>2023-10-15T10:28:48.000Z</time>
      </trkpt>
      <trkpt lat="43.40794" lon="5.48696">
        <ele>614.7</ele>
        <time>2023-10-15T10:28:59.000Z</time>
      </trkpt>
      <trkpt lat="43.40794" lon="5.48696">
        <ele>614.7</ele>
        <time>2023-10-15T10:29:00.000Z</time>
      </trkpt>
      <trkpt lat="43.40794" lon="5.48696">
        <ele>614.7</ele>
        <time>2023-10-15T10:29:01.000Z</time>
      </trkpt>
      <trkpt lat="43.40795" lon="5.48696">
        <ele>614.6</ele>
        <time>2023-10-15T10:29:03.000Z</time>
      </trkpt>
      <trkpt lat="43.4079" lon="5.48693">
        <ele>613.9</ele>
        <time>2023-10-15T10:29:16.000Z</time>
      </trkpt>
      <trkpt lat="43.4079" lon="5.48693">
        <ele>613.8</ele>
        <time>2023-10-15T10:29:17.000Z</time>
      </trkpt>
      <trkpt lat="43.40781" lon="5.4869">
        <ele>611</ele>
        <time>2023-10-15T10:29:38.000Z</time>
      </trkpt>
      <trkpt lat="43.40781" lon="5.48689">
        <ele>610.7</ele>
        <time>2023-10-15T10:29:40.000Z</time>
      </trkpt>
      <trkpt lat="43.4078" lon="5.48689">
        <ele>610.1</ele>
        <time>2023-10-15T10:29:45.000Z</time>
      </trkpt>
      <trkpt lat="43.4078" lon="5.48688">
        <ele>609.7</ele>
        <time>2023-10-15T10:29:48.000Z</time>
      </trkpt>
      <trkpt lat="43.40779" lon="5.48688">
        <ele>609.6</ele>
        <time>2023-10-15T10:29:49.000Z</time>
      </trkpt>
      <trkpt lat="43.40778" lon="5.48687">
        <ele>609</ele>
        <time>2023-10-15T10:29:54.000Z</time>
      </trkpt>
      <trkpt lat="43.40778" lon="5.48687">
        <ele>608.9</ele>
        <time>2023-10-15T10:29:55.000Z</time>
      </trkpt>
      <trkpt lat="43.40769" lon="5.48689">
        <ele>606.4</ele>
        <time>2023-10-15T10:30:23.000Z</time>
      </trkpt>
      <trkpt lat="43.40769" lon="5.48689">
        <ele>606.3</ele>
        <time>2023-10-15T10:30:24.000Z</time>
      </trkpt>
      <trkpt lat="43.40769" lon="5.48689">
        <ele>606.1</ele>
        <time>2023-10-15T10:30:26.000Z</time>
      </trkpt>
      <trkpt lat="43.40769" lon="5.48689">
        <ele>606</ele>
        <time>2023-10-15T10:30:27.000Z</time>
      </trkpt>
      <trkpt lat="43.40769" lon="5.4869">
        <ele>605.7</ele>
        <time>2023-10-15T10:30:31.000Z</time>
      </trkpt>
      <trkpt lat="43.40769" lon="5.4869">
        <ele>605.4</ele>
        <time>2023-10-15T10:30:34.000Z</time>
      </trkpt>
      <trkpt lat="43.40768" lon="5.48689">
        <ele>605.3</ele>
        <time>2023-10-15T10:30:35.000Z</time>
      </trkpt>
      <trkpt lat="43.40761" lon="5.48691">
        <ele>603.2</ele>
        <time>2023-10-15T10:30:55.000Z</time>
      </trkpt>
      <trkpt lat="43.40761" lon="5.48691">
        <ele>602.7</ele>
        <time>2023-10-15T10:31:00.000Z</time>
      </trkpt>
      <trkpt lat="43.40752" lon="5.48694">
        <ele>600.6</ele>
        <time>2023-10-15T10:31:21.000Z</time>
      </trkpt>
      <trkpt lat="43.40744" lon="5.48699">
        <ele>598.3</ele>
        <time>2023-10-15T10:31:39.000Z</time>
      </trkpt>
      <trkpt lat="43.40738" lon="5.48702">
        <ele>596.2</ele>
        <time>2023-10-15T10:31:57.000Z</time>
      </trkpt>
      <trkpt lat="43.40738" lon="5.48702">
        <ele>596.1</ele>
        <time>2023-10-15T10:31:58.000Z</time>
      </trkpt>
      <trkpt lat="43.40738" lon="5.48702">
        <ele>595.9</ele>
        <time>2023-10-15T10:31:59.000Z</time>
      </trkpt>
      <trkpt lat="43.40738" lon="5.48702">
        <ele>595.8</ele>
        <time>2023-10-15T10:32:00.000Z</time>
      </trkpt>
      <trkpt lat="43.40729" lon="5.48706">
        <ele>593.1</ele>
        <time>2023-10-15T10:32:25.000Z</time>
      </trkpt>
      <trkpt lat="43.40726" lon="5.48707">
        <ele>592.3</ele>
        <time>2023-10-15T10:32:37.000Z</time>
      </trkpt>
      <trkpt lat="43.40726" lon="5.48707">
        <ele>592.1</ele>
        <time>2023-10-15T10:32:39.000Z</time>
      </trkpt>
      <trkpt lat="43.40724" lon="5.48709">
        <ele>591.3</ele>
        <time>2023-10-15T10:32:50.000Z</time>
      </trkpt>
      <trkpt lat="43.40724" lon="5.48709">
        <ele>590.7</ele>
        <time>2023-10-15T10:32:55.000Z</time>
      </trkpt>
      <trkpt lat="43.40715" lon="5.48713">
        <ele>588.4</ele>
        <time>2023-10-15T10:33:25.000Z</time>
      </trkpt>
      <trkpt lat="43.40714" lon="5.48714">
        <ele>587.9</ele>
        <time>2023-10-15T10:33:32.000Z</time>
      </trkpt>
      <trkpt lat="43.40713" lon="5.48713">
        <ele>587.8</ele>
        <time>2023-10-15T10:33:33.000Z</time>
      </trkpt>
      <trkpt lat="43.40713" lon="5.48713">
        <ele>587.7</ele>
        <time>2023-10-15T10:33:34.000Z</time>
      </trkpt>
      <trkpt lat="43.40713" lon="5.48713">
        <ele>587.5</ele>
        <time>2023-10-15T10:33:38.000Z</time>
      </trkpt>
      <trkpt lat="43.40713" lon="5.48713">
        <ele>587.4</ele>
        <time>2023-10-15T10:33:41.000Z</time>
      </trkpt>
      <trkpt lat="43.40713" lon="5.48713">
        <ele>587.3</ele>
        <time>2023-10-15T10:33:42.000Z</time>
      </trkpt>
      <trkpt lat="43.40713" lon="5.48713">
        <ele>587.3</ele>
        <time>2023-10-15T10:33:43.000Z</time>
      </trkpt>
      <trkpt lat="43.40713" lon="5.48712">
        <ele>587.2</ele>
        <time>2023-10-15T10:33:47.000Z</time>
      </trkpt>
      <trkpt lat="43.40711" lon="5.48712">
        <ele>586.8</ele>
        <time>2023-10-15T10:33:55.000Z</time>
      </trkpt>
      <trkpt lat="43.4071" lon="5.48712">
        <ele>586.7</ele>
        <time>2023-10-15T10:33:56.000Z</time>
      </trkpt>
      <trkpt lat="43.4071" lon="5.48711">
        <ele>586.6</ele>
        <time>2023-10-15T10:33:58.000Z</time>
      </trkpt>
      <trkpt lat="43.4071" lon="5.4871">
        <ele>586.5</ele>
        <time>2023-10-15T10:34:02.000Z</time>
      </trkpt>
      <trkpt lat="43.4071" lon="5.4871">
        <ele>586.3</ele>
        <time>2023-10-15T10:34:06.000Z</time>
      </trkpt>
      <trkpt lat="43.40709" lon="5.4871">
        <ele>586.2</ele>
        <time>2023-10-15T10:34:07.000Z</time>
      </trkpt>
      <trkpt lat="43.40709" lon="5.4871">
        <ele>586.2</ele>
        <time>2023-10-15T10:34:08.000Z</time>
      </trkpt>
      <trkpt lat="43.40709" lon="5.48709">
        <ele>586.1</ele>
        <time>2023-10-15T10:34:09.000Z</time>
      </trkpt>
      <trkpt lat="43.40709" lon="5.48709">
        <ele>586</ele>
        <time>2023-10-15T10:34:11.000Z</time>
      </trkpt>
      <trkpt lat="43.40709" lon="5.4871">
        <ele>586</ele>
        <time>2023-10-15T10:34:12.000Z</time>
      </trkpt>
      <trkpt lat="43.40708" lon="5.4871">
        <ele>585.4</ele>
        <time>2023-10-15T10:34:19.000Z</time>
      </trkpt>
      <trkpt lat="43.40707" lon="5.4871">
        <ele>585.3</ele>
        <time>2023-10-15T10:34:20.000Z</time>
      </trkpt>
      <trkpt lat="43.40707" lon="5.4871">
        <ele>585</ele>
        <time>2023-10-15T10:34:23.000Z</time>
      </trkpt>
      <trkpt lat="43.40707" lon="5.4871">
        <ele>584.9</ele>
        <time>2023-10-15T10:34:24.000Z</time>
      </trkpt>
      <trkpt lat="43.40703" lon="5.48709">
        <ele>583.1</ele>
        <time>2023-10-15T10:34:39.000Z</time>
      </trkpt>
      <trkpt lat="43.40704" lon="5.48709">
        <ele>583</ele>
        <time>2023-10-15T10:34:41.000Z</time>
      </trkpt>
      <trkpt lat="43.40704" lon="5.48708">
        <ele>582.6</ele>
        <time>2023-10-15T10:34:46.000Z</time>
      </trkpt>
      <trkpt lat="43.40704" lon="5.48708">
        <ele>582.5</ele>
        <time>2023-10-15T10:34:47.000Z</time>
      </trkpt>
      <trkpt lat="43.40704" lon="5.48708">
        <ele>582.3</ele>
        <time>2023-10-15T10:34:49.000Z</time>
      </trkpt>
      <trkpt lat="43.40703" lon="5.48708">
        <ele>582.2</ele>
        <time>2023-10-15T10:34:50.000Z</time>
      </trkpt>
      <trkpt lat="43.40703" lon="5.48708">
        <ele>582</ele>
        <time>2023-10-15T10:34:52.000Z</time>
      </trkpt>
      <trkpt lat="43.40703" lon="5.48708">
        <ele>581.9</ele>
        <time>2023-10-15T10:34:53.000Z</time>
      </trkpt>
      <trkpt lat="43.40703" lon="5.48708">
        <ele>581.8</ele>
        <time>2023-10-15T10:34:54.000Z</time>
      </trkpt>
      <trkpt lat="43.40703" lon="5.48707">
        <ele>581.6</ele>
        <time>2023-10-15T10:34:55.000Z</time>
      </trkpt>
      <trkpt lat="43.40693" lon="5.48708">
        <ele>579.7</ele>
        <time>2023-10-15T10:35:12.000Z</time>
      </trkpt>
      <trkpt lat="43.40694" lon="5.48703">
        <ele>578.1</ele>
        <time>2023-10-15T10:35:33.000Z</time>
      </trkpt>
      <trkpt lat="43.40695" lon="5.48703">
        <ele>578</ele>
        <time>2023-10-15T10:35:34.000Z</time>
      </trkpt>
      <trkpt lat="43.40695" lon="5.487">
        <ele>577.2</ele>
        <time>2023-10-15T10:35:42.000Z</time>
      </trkpt>
      <trkpt lat="43.40695" lon="5.487">
        <ele>577.1</ele>
        <time>2023-10-15T10:35:43.000Z</time>
      </trkpt>
      <trkpt lat="43.40695" lon="5.487">
        <ele>577</ele>
        <time>2023-10-15T10:35:46.000Z</time>
      </trkpt>
      <trkpt lat="43.40695" lon="5.487">
        <ele>577</ele>
        <time>2023-10-15T10:35:48.000Z</time>
      </trkpt>
      <trkpt lat="43.40695" lon="5.487">
        <ele>576.9</ele>
        <time>2023-10-15T10:35:50.000Z</time>
      </trkpt>
      <trkpt lat="43.40695" lon="5.487">
        <ele>576.7</ele>
        <time>2023-10-15T10:36:03.000Z</time>
      </trkpt>
      <trkpt lat="43.40695" lon="5.48699">
        <ele>576.6</ele>
        <time>2023-10-15T10:36:07.000Z</time>
      </trkpt>
      <trkpt lat="43.40695" lon="5.48699">
        <ele>576.4</ele>
        <time>2023-10-15T10:36:21.000Z</time>
      </trkpt>
      <trkpt lat="43.40695" lon="5.487">
        <ele>576.4</ele>
        <time>2023-10-15T10:36:32.000Z</time>
      </trkpt>
      <trkpt lat="43.40694" lon="5.487">
        <ele>576.4</ele>
        <time>2023-10-15T10:36:33.000Z</time>
      </trkpt>
      <trkpt lat="43.40694" lon="5.48701">
        <ele>576.4</ele>
        <time>2023-10-15T10:36:37.000Z</time>
      </trkpt>
      <trkpt lat="43.40693" lon="5.48701">
        <ele>576.4</ele>
        <time>2023-10-15T10:36:38.000Z</time>
      </trkpt>
      <trkpt lat="43.40695" lon="5.48699">
        <ele>576.3</ele>
        <time>2023-10-15T10:36:47.000Z</time>
      </trkpt>
      <trkpt lat="43.40695" lon="5.487">
        <ele>576.4</ele>
        <time>2023-10-15T10:36:52.000Z</time>
      </trkpt>
      <trkpt lat="43.40694" lon="5.487">
        <ele>576.4</ele>
        <time>2023-10-15T10:36:54.000Z</time>
      </trkpt>
      <trkpt lat="43.40694" lon="5.487">
        <ele>576.4</ele>
        <time>2023-10-15T10:36:56.000Z</time>
      </trkpt>
      <trkpt lat="43.40694" lon="5.487">
        <ele>576.4</ele>
        <time>2023-10-15T10:36:58.000Z</time>
      </trkpt>
      <trkpt lat="43.40694" lon="5.487">
        <ele>576.4</ele>
        <time>2023-10-15T10:36:59.000Z</time>
      </trkpt>
      <trkpt lat="43.40694" lon="5.487">
        <ele>576.4</ele>
        <time>2023-10-15T10:37:00.000Z</time>
      </trkpt>
      <trkpt lat="43.40693" lon="5.487">
        <ele>576.4</ele>
        <time>2023-10-15T10:37:17.000Z</time>
      </trkpt>
      <trkpt lat="43.40693" lon="5.487">
        <ele>576.4</ele>
        <time>2023-10-15T10:37:18.000Z</time>
      </trkpt>
      <trkpt lat="43.40693" lon="5.487">
        <ele>576.4</ele>
        <time>2023-10-15T10:37:20.000Z</time>
      </trkpt>
      <trkpt lat="43.40693" lon="5.487">
        <ele>576.4</ele>
        <time>2023-10-15T10:37:21.000Z</time>
      </trkpt>
      <trkpt lat="43.40693" lon="5.487">
        <ele>576.4</ele>
        <time>2023-10-15T10:37:23.000Z</time>
      </trkpt>
      <trkpt lat="43.40694" lon="5.48699">
        <ele>576.4</ele>
        <time>2023-10-15T10:37:26.000Z</time>
      </trkpt>
      <trkpt lat="43.40694" lon="5.48699">
        <ele>576.4</ele>
        <time>2023-10-15T10:37:31.000Z</time>
      </trkpt>
      <trkpt lat="43.40694" lon="5.48699">
        <ele>576.4</ele>
        <time>2023-10-15T10:37:34.000Z</time>
      </trkpt>
      <trkpt lat="43.40694" lon="5.48698">
        <ele>576.4</ele>
        <time>2023-10-15T10:37:35.000Z</time>
      </trkpt>
      <trkpt lat="43.40694" lon="5.48698">
        <ele>576.4</ele>
        <time>2023-10-15T10:37:36.000Z</time>
      </trkpt>
      <trkpt lat="43.40694" lon="5.48698">
        <ele>576.4</ele>
        <time>2023-10-15T10:37:37.000Z</time>
      </trkpt>
      <trkpt lat="43.40694" lon="5.48698">
        <ele>576.4</ele>
        <time>2023-10-15T10:37:38.000Z</time>
      </trkpt>
      <trkpt lat="43.40694" lon="5.48698">
        <ele>576.4</ele>
        <time>2023-10-15T10:37:43.000Z</time>
      </trkpt>
      <trkpt lat="43.40694" lon="5.48699">
        <ele>576.4</ele>
        <time>2023-10-15T10:37:46.000Z</time>
      </trkpt>
      <trkpt lat="43.40694" lon="5.48699">
        <ele>576.4</ele>
        <time>2023-10-15T10:37:48.000Z</time>
      </trkpt>
      <trkpt lat="43.40694" lon="5.48699">
        <ele>576.4</ele>
        <time>2023-10-15T10:37:49.000Z</time>
      </trkpt>
      <trkpt lat="43.40694" lon="5.48699">
        <ele>576.4</ele>
        <time>2023-10-15T10:37:52.000Z</time>
      </trkpt>
      <trkpt lat="43.40694" lon="5.48698">
        <ele>576.4</ele>
        <time>2023-10-15T10:37:56.000Z</time>
      </trkpt>
      <trkpt lat="43.40694" lon="5.48698">
        <ele>576.4</ele>
        <time>2023-10-15T10:38:04.000Z</time>
      </trkpt>
      <trkpt lat="43.40694" lon="5.48698">
        <ele>576.4</ele>
        <time>2023-10-15T10:38:06.000Z</time>
      </trkpt>
      <trkpt lat="43.40695" lon="5.48699">
        <ele>576.4</ele>
        <time>2023-10-15T10:38:07.000Z</time>
      </trkpt>
      <trkpt lat="43.40695" lon="5.48699">
        <ele>576.3</ele>
        <time>2023-10-15T10:38:08.000Z</time>
      </trkpt>
      <trkpt lat="43.40695" lon="5.48699">
        <ele>576.3</ele>
        <time>2023-10-15T10:38:11.000Z</time>
      </trkpt>
      <trkpt lat="43.40694" lon="5.48698">
        <ele>576.3</ele>
        <time>2023-10-15T10:38:17.000Z</time>
      </trkpt>
      <trkpt lat="43.40695" lon="5.48698">
        <ele>576.4</ele>
        <time>2023-10-15T10:38:23.000Z</time>
      </trkpt>
      <trkpt lat="43.40695" lon="5.48698">
        <ele>576.4</ele>
        <time>2023-10-15T10:38:24.000Z</time>
      </trkpt>
      <trkpt lat="43.40695" lon="5.48698">
        <ele>576.4</ele>
        <time>2023-10-15T10:38:26.000Z</time>
      </trkpt>
      <trkpt lat="43.40695" lon="5.48698">
        <ele>576.4</ele>
        <time>2023-10-15T10:38:27.000Z</time>
      </trkpt>
      <trkpt lat="43.40695" lon="5.48698">
        <ele>576.5</ele>
        <time>2023-10-15T10:38:31.000Z</time>
      </trkpt>
      <trkpt lat="43.40701" lon="5.48688">
        <ele>576.5</ele>
        <time>2023-10-15T10:38:41.000Z</time>
      </trkpt>
      <trkpt lat="43.40704" lon="5.48683">
        <ele>576.5</ele>
        <time>2023-10-15T10:38:47.000Z</time>
      </trkpt>
      <trkpt lat="43.40704" lon="5.48683">
        <ele>576.5</ele>
        <time>2023-10-15T10:38:48.000Z</time>
      </trkpt>
      <trkpt lat="43.40704" lon="5.48683">
        <ele>576.6</ele>
        <time>2023-10-15T10:38:49.000Z</time>
      </trkpt>
      <trkpt lat="43.40704" lon="5.48683">
        <ele>576.6</ele>
        <time>2023-10-15T10:38:51.000Z</time>
      </trkpt>
      <trkpt lat="43.4071" lon="5.48673">
        <ele>576.7</ele>
        <time>2023-10-15T10:38:59.000Z</time>
      </trkpt>
      <trkpt lat="43.40717" lon="5.48663">
        <ele>576.9</ele>
        <time>2023-10-15T10:39:08.000Z</time>
      </trkpt>
      <trkpt lat="43.40722" lon="5.48652">
        <ele>577.3</ele>
        <time>2023-10-15T10:39:16.000Z</time>
      </trkpt>
      <trkpt lat="43.40726" lon="5.4864">
        <ele>577.6</ele>
        <time>2023-10-15T10:39:25.000Z</time>
      </trkpt>
      <trkpt lat="43.40732" lon="5.48631">
        <ele>577.9</ele>
        <time>2023-10-15T10:39:32.000Z</time>
      </trkpt>
      <trkpt lat="43.40738" lon="5.48621">
        <ele>578.2</ele>
        <time>2023-10-15T10:39:41.000Z</time>
      </trkpt>
      <trkpt lat="43.4074" lon="5.48608">
        <ele>578.3</ele>
        <time>2023-10-15T10:39:50.000Z</time>
      </trkpt>
      <trkpt lat="43.40743" lon="5.48595">
        <ele>578.3</ele>
        <time>2023-10-15T10:39:58.000Z</time>
      </trkpt>
      <trkpt lat="43.40746" lon="5.48582">
        <ele>578.3</ele>
        <time>2023-10-15T10:40:06.000Z</time>
      </trkpt>
      <trkpt lat="43.40748" lon="5.4857">
        <ele>578.4</ele>
        <time>2023-10-15T10:40:14.000Z</time>
      </trkpt>
      <trkpt lat="43.40749" lon="5.48557">
        <ele>578.6</ele>
        <time>2023-10-15T10:40:24.000Z</time>
      </trkpt>
      <trkpt lat="43.40752" lon="5.48544">
        <ele>578.8</ele>
        <time>2023-10-15T10:40:33.000Z</time>
      </trkpt>
      <trkpt lat="43.40756" lon="5.48531">
        <ele>579.1</ele>
        <time>2023-10-15T10:40:42.000Z</time>
      </trkpt>
      <trkpt lat="43.40759" lon="5.48519">
        <ele>579.3</ele>
        <time>2023-10-15T10:40:50.000Z</time>
      </trkpt>
      <trkpt lat="43.40761" lon="5.48506">
        <ele>579.9</ele>
        <time>2023-10-15T10:41:00.000Z</time>
      </trkpt>
      <trkpt lat="43.40767" lon="5.48498">
        <ele>580.4</ele>
        <time>2023-10-15T10:41:08.000Z</time>
      </trkpt>
      <trkpt lat="43.40774" lon="5.48487">
        <ele>580.9</ele>
        <time>2023-10-15T10:41:16.000Z</time>
      </trkpt>
      <trkpt lat="43.40778" lon="5.48477">
        <ele>581.5</ele>
        <time>2023-10-15T10:41:25.000Z</time>
      </trkpt>
      <trkpt lat="43.40782" lon="5.48465">
        <ele>582.3</ele>
        <time>2023-10-15T10:41:34.000Z</time>
      </trkpt>
      <trkpt lat="43.40787" lon="5.48453">
        <ele>583.3</ele>
        <time>2023-10-15T10:41:44.000Z</time>
      </trkpt>
      <trkpt lat="43.40792" lon="5.48441">
        <ele>584.4</ele>
        <time>2023-10-15T10:41:54.000Z</time>
      </trkpt>
      <trkpt lat="43.40798" lon="5.48431">
        <ele>584.9</ele>
        <time>2023-10-15T10:42:02.000Z</time>
      </trkpt>
      <trkpt lat="43.40805" lon="5.48423">
        <ele>585.3</ele>
        <time>2023-10-15T10:42:09.000Z</time>
      </trkpt>
      <trkpt lat="43.4081" lon="5.48412">
        <ele>585.6</ele>
        <time>2023-10-15T10:42:18.000Z</time>
      </trkpt>
      <trkpt lat="43.40816" lon="5.48401">
        <ele>586.4</ele>
        <time>2023-10-15T10:42:28.000Z</time>
      </trkpt>
      <trkpt lat="43.40819" lon="5.48396">
        <ele>587</ele>
        <time>2023-10-15T10:42:36.000Z</time>
      </trkpt>
      <trkpt lat="43.40819" lon="5.48395">
        <ele>587</ele>
        <time>2023-10-15T10:42:37.000Z</time>
      </trkpt>
      <trkpt lat="43.40819" lon="5.48395">
        <ele>587.2</ele>
        <time>2023-10-15T10:42:39.000Z</time>
      </trkpt>
      <trkpt lat="43.40819" lon="5.48395">
        <ele>587.3</ele>
        <time>2023-10-15T10:42:42.000Z</time>
      </trkpt>
      <trkpt lat="43.40819" lon="5.48394">
        <ele>587.5</ele>
        <time>2023-10-15T10:42:46.000Z</time>
      </trkpt>
      <trkpt lat="43.4082" lon="5.48394">
        <ele>587.5</ele>
        <time>2023-10-15T10:42:47.000Z</time>
      </trkpt>
      <trkpt lat="43.4082" lon="5.48394">
        <ele>587.5</ele>
        <time>2023-10-15T10:42:48.000Z</time>
      </trkpt>
      <trkpt lat="43.4082" lon="5.48394">
        <ele>587.7</ele>
        <time>2023-10-15T10:42:51.000Z</time>
      </trkpt>
      <trkpt lat="43.40822" lon="5.48389">
        <ele>587.9</ele>
        <time>2023-10-15T10:42:57.000Z</time>
      </trkpt>
      <trkpt lat="43.40821" lon="5.48389">
        <ele>588</ele>
        <time>2023-10-15T10:42:59.000Z</time>
      </trkpt>
      <trkpt lat="43.40821" lon="5.48389">
        <ele>588</ele>
        <time>2023-10-15T10:43:00.000Z</time>
      </trkpt>
      <trkpt lat="43.40822" lon="5.48388">
        <ele>588.1</ele>
        <time>2023-10-15T10:43:01.000Z</time>
      </trkpt>
      <trkpt lat="43.40823" lon="5.48383">
        <ele>588.2</ele>
        <time>2023-10-15T10:43:09.000Z</time>
      </trkpt>
      <trkpt lat="43.40824" lon="5.48382">
        <ele>588.4</ele>
        <time>2023-10-15T10:43:14.000Z</time>
      </trkpt>
      <trkpt lat="43.40825" lon="5.48369">
        <ele>588.9</ele>
        <time>2023-10-15T10:43:25.000Z</time>
      </trkpt>
      <trkpt lat="43.40828" lon="5.48356">
        <ele>589.9</ele>
        <time>2023-10-15T10:43:39.000Z</time>
      </trkpt>
      <trkpt lat="43.40829" lon="5.48356">
        <ele>590.1</ele>
        <time>2023-10-15T10:43:42.000Z</time>
      </trkpt>
      <trkpt lat="43.40829" lon="5.48355">
        <ele>590.3</ele>
        <time>2023-10-15T10:43:49.000Z</time>
      </trkpt>
      <trkpt lat="43.40829" lon="5.48355">
        <ele>590.5</ele>
        <time>2023-10-15T10:43:51.000Z</time>
      </trkpt>
      <trkpt lat="43.4083" lon="5.48356">
        <ele>591</ele>
        <time>2023-10-15T10:43:58.000Z</time>
      </trkpt>
      <trkpt lat="43.40838" lon="5.48351">
        <ele>591</ele>
        <time>2023-10-15T10:44:12.000Z</time>
      </trkpt>
      <trkpt lat="43.40839" lon="5.4835">
        <ele>591.1</ele>
        <time>2023-10-15T10:44:15.000Z</time>
      </trkpt>
      <trkpt lat="43.40839" lon="5.4835">
        <ele>591.1</ele>
        <time>2023-10-15T10:44:22.000Z</time>
      </trkpt>
      <trkpt lat="43.40836" lon="5.48351">
        <ele>591.1</ele>
        <time>2023-10-15T10:44:30.000Z</time>
      </trkpt>
      <trkpt lat="43.40836" lon="5.48351">
        <ele>591.1</ele>
        <time>2023-10-15T10:44:31.000Z</time>
      </trkpt>
      <trkpt lat="43.40836" lon="5.48351">
        <ele>591.1</ele>
        <time>2023-10-15T10:44:32.000Z</time>
      </trkpt>
      <trkpt lat="43.40835" lon="5.48351">
        <ele>591.1</ele>
        <time>2023-10-15T10:44:36.000Z</time>
      </trkpt>
      <trkpt lat="43.40828" lon="5.48349">
        <ele>591.1</ele>
        <time>2023-10-15T10:44:50.000Z</time>
      </trkpt>
      <trkpt lat="43.40828" lon="5.48349">
        <ele>591.1</ele>
        <time>2023-10-15T10:44:56.000Z</time>
      </trkpt>
      <trkpt lat="43.40826" lon="5.48349">
        <ele>591.2</ele>
        <time>2023-10-15T10:45:03.000Z</time>
      </trkpt>
      <trkpt lat="43.40827" lon="5.48349">
        <ele>591.2</ele>
        <time>2023-10-15T10:45:20.000Z</time>
      </trkpt>
      <trkpt lat="43.40826" lon="5.48349">
        <ele>591.2</ele>
        <time>2023-10-15T10:45:25.000Z</time>
      </trkpt>
      <trkpt lat="43.40826" lon="5.48349">
        <ele>591.2</ele>
        <time>2023-10-15T10:45:26.000Z</time>
      </trkpt>
      <trkpt lat="43.40826" lon="5.48349">
        <ele>591.1</ele>
        <time>2023-10-15T10:45:28.000Z</time>
      </trkpt>
      <trkpt lat="43.40825" lon="5.48349">
        <ele>591.1</ele>
        <time>2023-10-15T10:45:30.000Z</time>
      </trkpt>
      <trkpt lat="43.40824" lon="5.48347">
        <ele>591</ele>
        <time>2023-10-15T10:45:36.000Z</time>
      </trkpt>
      <trkpt lat="43.40823" lon="5.48347">
        <ele>591</ele>
        <time>2023-10-15T10:45:38.000Z</time>
      </trkpt>
      <trkpt lat="43.4082" lon="5.48348">
        <ele>590.9</ele>
        <time>2023-10-15T10:45:49.000Z</time>
      </trkpt>
      <trkpt lat="43.4082" lon="5.48348">
        <ele>590.8</ele>
        <time>2023-10-15T10:45:53.000Z</time>
      </trkpt>
      <trkpt lat="43.4082" lon="5.48348">
        <ele>590.8</ele>
        <time>2023-10-15T10:45:54.000Z</time>
      </trkpt>
      <trkpt lat="43.4082" lon="5.48348">
        <ele>590.7</ele>
        <time>2023-10-15T10:45:59.000Z</time>
      </trkpt>
      <trkpt lat="43.4082" lon="5.48348">
        <ele>590.7</ele>
        <time>2023-10-15T10:46:00.000Z</time>
      </trkpt>
      <trkpt lat="43.4082" lon="5.48348">
        <ele>590.6</ele>
        <time>2023-10-15T10:46:02.000Z</time>
      </trkpt>
      <trkpt lat="43.4082" lon="5.48349">
        <ele>590.6</ele>
        <time>2023-10-15T10:46:05.000Z</time>
      </trkpt>
      <trkpt lat="43.40821" lon="5.48348">
        <ele>590.6</ele>
        <time>2023-10-15T10:46:06.000Z</time>
      </trkpt>
      <trkpt lat="43.40821" lon="5.48348">
        <ele>590.6</ele>
        <time>2023-10-15T10:46:07.000Z</time>
      </trkpt>
      <trkpt lat="43.40821" lon="5.48349">
        <ele>590.6</ele>
        <time>2023-10-15T10:46:10.000Z</time>
      </trkpt>
      <trkpt lat="43.40824" lon="5.4836">
        <ele>590.5</ele>
        <time>2023-10-15T10:46:22.000Z</time>
      </trkpt>
      <trkpt lat="43.40826" lon="5.48362">
        <ele>594.4</ele>
        <time>2023-10-15T11:36:36.000Z</time>
      </trkpt>
      <trkpt lat="43.40826" lon="5.48362">
        <ele>594.5</ele>
        <time>2023-10-15T11:36:41.000Z</time>
      </trkpt>
      <trkpt lat="43.40826" lon="5.48362">
        <ele>594.5</ele>
        <time>2023-10-15T11:36:42.000Z</time>
      </trkpt>
      <trkpt lat="43.40826" lon="5.48362">
        <ele>594.5</ele>
        <time>2023-10-15T11:36:45.000Z</time>
      </trkpt>
      <trkpt lat="43.40826" lon="5.4836">
        <ele>594.5</ele>
        <time>2023-10-15T11:36:50.000Z</time>
      </trkpt>
      <trkpt lat="43.40826" lon="5.4836">
        <ele>594.6</ele>
        <time>2023-10-15T11:36:53.000Z</time>
      </trkpt>
      <trkpt lat="43.40826" lon="5.4836">
        <ele>594.6</ele>
        <time>2023-10-15T11:36:54.000Z</time>
      </trkpt>
      <trkpt lat="43.40826" lon="5.4836">
        <ele>594.9</ele>
        <time>2023-10-15T11:37:38.000Z</time>
      </trkpt>
      <trkpt lat="43.40834" lon="5.48353">
        <ele>595</ele>
        <time>2023-10-15T11:37:51.000Z</time>
      </trkpt>
      <trkpt lat="43.40837" lon="5.48351">
        <ele>595</ele>
        <time>2023-10-15T11:38:01.000Z</time>
      </trkpt>
      <trkpt lat="43.40837" lon="5.48351">
        <ele>595.1</ele>
        <time>2023-10-15T11:38:06.000Z</time>
      </trkpt>
      <trkpt lat="43.40837" lon="5.48345">
        <ele>595.1</ele>
        <time>2023-10-15T11:38:17.000Z</time>
      </trkpt>
      <trkpt lat="43.40837" lon="5.48344">
        <ele>595.2</ele>
        <time>2023-10-15T11:38:30.000Z</time>
      </trkpt>
      <trkpt lat="43.40836" lon="5.48344">
        <ele>595.2</ele>
        <time>2023-10-15T11:38:33.000Z</time>
      </trkpt>
      <trkpt lat="43.40837" lon="5.48344">
        <ele>595.2</ele>
        <time>2023-10-15T11:38:34.000Z</time>
      </trkpt>
      <trkpt lat="43.40827" lon="5.48348">
        <ele>595.2</ele>
        <time>2023-10-15T11:38:48.000Z</time>
      </trkpt>
      <trkpt lat="43.4082" lon="5.4834">
        <ele>595.2</ele>
        <time>2023-10-15T11:38:58.000Z</time>
      </trkpt>
      <trkpt lat="43.40815" lon="5.48328">
        <ele>595.2</ele>
        <time>2023-10-15T11:39:08.000Z</time>
      </trkpt>
      <trkpt lat="43.40812" lon="5.48316">
        <ele>595.2</ele>
        <time>2023-10-15T11:39:16.000Z</time>
      </trkpt>
      <trkpt lat="43.4081" lon="5.48303">
        <ele>595.2</ele>
        <time>2023-10-15T11:39:25.000Z</time>
      </trkpt>
      <trkpt lat="43.40807" lon="5.48289">
        <ele>595.2</ele>
        <time>2023-10-15T11:39:34.000Z</time>
      </trkpt>
      <trkpt lat="43.40803" lon="5.48277">
        <ele>595.2</ele>
        <time>2023-10-15T11:39:42.000Z</time>
      </trkpt>
      <trkpt lat="43.40802" lon="5.48265">
        <ele>595</ele>
        <time>2023-10-15T11:39:51.000Z</time>
      </trkpt>
      <trkpt lat="43.40799" lon="5.48252">
        <ele>594.8</ele>
        <time>2023-10-15T11:39:59.000Z</time>
      </trkpt>
      <trkpt lat="43.40797" lon="5.4824">
        <ele>594.5</ele>
        <time>2023-10-15T11:40:07.000Z</time>
      </trkpt>
      <trkpt lat="43.40795" lon="5.48227">
        <ele>594.3</ele>
        <time>2023-10-15T11:40:15.000Z</time>
      </trkpt>
      <trkpt lat="43.40793" lon="5.48215">
        <ele>594</ele>
        <time>2023-10-15T11:40:23.000Z</time>
      </trkpt>
      <trkpt lat="43.40793" lon="5.48202">
        <ele>593.6</ele>
        <time>2023-10-15T11:40:31.000Z</time>
      </trkpt>
      <trkpt lat="43.40792" lon="5.48189">
        <ele>593.2</ele>
        <time>2023-10-15T11:40:38.000Z</time>
      </trkpt>
      <trkpt lat="43.40792" lon="5.48177">
        <ele>593</ele>
        <time>2023-10-15T11:40:45.000Z</time>
      </trkpt>
      <trkpt lat="43.40792" lon="5.48163">
        <ele>592.7</ele>
        <time>2023-10-15T11:40:54.000Z</time>
      </trkpt>
      <trkpt lat="43.40792" lon="5.48149">
        <ele>592.6</ele>
        <time>2023-10-15T11:41:03.000Z</time>
      </trkpt>
      <trkpt lat="43.40792" lon="5.48136">
        <ele>592.7</ele>
        <time>2023-10-15T11:41:12.000Z</time>
      </trkpt>
      <trkpt lat="43.40792" lon="5.48123">
        <ele>592.5</ele>
        <time>2023-10-15T11:41:20.000Z</time>
      </trkpt>
      <trkpt lat="43.40792" lon="5.48109">
        <ele>592.3</ele>
        <time>2023-10-15T11:41:27.000Z</time>
      </trkpt>
      <trkpt lat="43.40792" lon="5.48097">
        <ele>592</ele>
        <time>2023-10-15T11:41:35.000Z</time>
      </trkpt>
      <trkpt lat="43.40792" lon="5.48083">
        <ele>591.9</ele>
        <time>2023-10-15T11:41:43.000Z</time>
      </trkpt>
      <trkpt lat="43.40793" lon="5.48071">
        <ele>591.9</ele>
        <time>2023-10-15T11:41:50.000Z</time>
      </trkpt>
      <trkpt lat="43.40794" lon="5.48058">
        <ele>591.9</ele>
        <time>2023-10-15T11:41:59.000Z</time>
      </trkpt>
      <trkpt lat="43.40792" lon="5.48044">
        <ele>591.8</ele>
        <time>2023-10-15T11:42:06.000Z</time>
      </trkpt>
      <trkpt lat="43.4079" lon="5.4803">
        <ele>591.8</ele>
        <time>2023-10-15T11:42:14.000Z</time>
      </trkpt>
      <trkpt lat="43.40788" lon="5.48017">
        <ele>591.9</ele>
        <time>2023-10-15T11:42:22.000Z</time>
      </trkpt>
      <trkpt lat="43.40786" lon="5.48004">
        <ele>591.9</ele>
        <time>2023-10-15T11:42:31.000Z</time>
      </trkpt>
      <trkpt lat="43.40784" lon="5.4799">
        <ele>591.9</ele>
        <time>2023-10-15T11:42:39.000Z</time>
      </trkpt>
      <trkpt lat="43.40781" lon="5.47978">
        <ele>591.9</ele>
        <time>2023-10-15T11:42:47.000Z</time>
      </trkpt>
      <trkpt lat="43.40776" lon="5.47965">
        <ele>591.9</ele>
        <time>2023-10-15T11:42:54.000Z</time>
      </trkpt>
      <trkpt lat="43.40771" lon="5.47953">
        <ele>591.9</ele>
        <time>2023-10-15T11:43:02.000Z</time>
      </trkpt>
      <trkpt lat="43.40768" lon="5.47941">
        <ele>591.8</ele>
        <time>2023-10-15T11:43:09.000Z</time>
      </trkpt>
      <trkpt lat="43.40762" lon="5.4793">
        <ele>591.7</ele>
        <time>2023-10-15T11:43:18.000Z</time>
      </trkpt>
      <trkpt lat="43.40758" lon="5.47918">
        <ele>591.6</ele>
        <time>2023-10-15T11:43:26.000Z</time>
      </trkpt>
      <trkpt lat="43.40755" lon="5.47906">
        <ele>591.4</ele>
        <time>2023-10-15T11:43:32.000Z</time>
      </trkpt>
      <trkpt lat="43.40753" lon="5.47893">
        <ele>591.3</ele>
        <time>2023-10-15T11:43:41.000Z</time>
      </trkpt>
      <trkpt lat="43.4075" lon="5.4788">
        <ele>591.1</ele>
        <time>2023-10-15T11:43:49.000Z</time>
      </trkpt>
      <trkpt lat="43.40747" lon="5.47867">
        <ele>591</ele>
        <time>2023-10-15T11:43:58.000Z</time>
      </trkpt>
      <trkpt lat="43.40744" lon="5.47855">
        <ele>590.8</ele>
        <time>2023-10-15T11:44:07.000Z</time>
      </trkpt>
      <trkpt lat="43.4074" lon="5.47843">
        <ele>590.5</ele>
        <time>2023-10-15T11:44:16.000Z</time>
      </trkpt>
      <trkpt lat="43.4074" lon="5.47843">
        <ele>590.3</ele>
        <time>2023-10-15T11:44:19.000Z</time>
      </trkpt>
      <trkpt lat="43.4074" lon="5.47843">
        <ele>590.2</ele>
        <time>2023-10-15T11:44:22.000Z</time>
      </trkpt>
      <trkpt lat="43.4074" lon="5.47843">
        <ele>590.1</ele>
        <time>2023-10-15T11:44:24.000Z</time>
      </trkpt>
      <trkpt lat="43.4074" lon="5.47842">
        <ele>590.1</ele>
        <time>2023-10-15T11:44:25.000Z</time>
      </trkpt>
      <trkpt lat="43.40739" lon="5.4784">
        <ele>590</ele>
        <time>2023-10-15T11:44:30.000Z</time>
      </trkpt>
      <trkpt lat="43.40739" lon="5.4784">
        <ele>590</ele>
        <time>2023-10-15T11:44:31.000Z</time>
      </trkpt>
      <trkpt lat="43.40734" lon="5.47828">
        <ele>590</ele>
        <time>2023-10-15T11:44:41.000Z</time>
      </trkpt>
      <trkpt lat="43.4073" lon="5.47816">
        <ele>590</ele>
        <time>2023-10-15T11:44:49.000Z</time>
      </trkpt>
      <trkpt lat="43.40726" lon="5.47804">
        <ele>590.4</ele>
        <time>2023-10-15T11:44:59.000Z</time>
      </trkpt>
      <trkpt lat="43.40721" lon="5.47793">
        <ele>590.7</ele>
        <time>2023-10-15T11:45:06.000Z</time>
      </trkpt>
      <trkpt lat="43.40714" lon="5.47784">
        <ele>591.3</ele>
        <time>2023-10-15T11:45:16.000Z</time>
      </trkpt>
      <trkpt lat="43.40707" lon="5.47774">
        <ele>591.9</ele>
        <time>2023-10-15T11:45:25.000Z</time>
      </trkpt>
      <trkpt lat="43.407" lon="5.47765">
        <ele>592.3</ele>
        <time>2023-10-15T11:45:35.000Z</time>
      </trkpt>
      <trkpt lat="43.40692" lon="5.47756">
        <ele>593</ele>
        <time>2023-10-15T11:45:45.000Z</time>
      </trkpt>
      <trkpt lat="43.40685" lon="5.47747">
        <ele>593.8</ele>
        <time>2023-10-15T11:45:56.000Z</time>
      </trkpt>
      <trkpt lat="43.40678" lon="5.47738">
        <ele>594.6</ele>
        <time>2023-10-15T11:46:04.000Z</time>
      </trkpt>
      <trkpt lat="43.40671" lon="5.47729">
        <ele>595.9</ele>
        <time>2023-10-15T11:46:14.000Z</time>
      </trkpt>
      <trkpt lat="43.40662" lon="5.47725">
        <ele>597.2</ele>
        <time>2023-10-15T11:46:24.000Z</time>
      </trkpt>
      <trkpt lat="43.40655" lon="5.47716">
        <ele>598.1</ele>
        <time>2023-10-15T11:46:33.000Z</time>
      </trkpt>
      <trkpt lat="43.40647" lon="5.47708">
        <ele>598.7</ele>
        <time>2023-10-15T11:46:41.000Z</time>
      </trkpt>
      <trkpt lat="43.40639" lon="5.47702">
        <ele>599.4</ele>
        <time>2023-10-15T11:46:53.000Z</time>
      </trkpt>
      <trkpt lat="43.40631" lon="5.47692">
        <ele>599.9</ele>
        <time>2023-10-15T11:47:02.000Z</time>
      </trkpt>
      <trkpt lat="43.40625" lon="5.47681">
        <ele>600.5</ele>
        <time>2023-10-15T11:47:11.000Z</time>
      </trkpt>
      <trkpt lat="43.40619" lon="5.47673">
        <ele>601</ele>
        <time>2023-10-15T11:47:20.000Z</time>
      </trkpt>
      <trkpt lat="43.40611" lon="5.47666">
        <ele>602.2</ele>
        <time>2023-10-15T11:47:39.000Z</time>
      </trkpt>
      <trkpt lat="43.40606" lon="5.47654">
        <ele>602.4</ele>
        <time>2023-10-15T11:47:45.000Z</time>
      </trkpt>
      <trkpt lat="43.40601" lon="5.47642">
        <ele>602.7</ele>
        <time>2023-10-15T11:47:53.000Z</time>
      </trkpt>
      <trkpt lat="43.40596" lon="5.47632">
        <ele>602.9</ele>
        <time>2023-10-15T11:48:01.000Z</time>
      </trkpt>
      <trkpt lat="43.40591" lon="5.47621">
        <ele>603.1</ele>
        <time>2023-10-15T11:48:08.000Z</time>
      </trkpt>
      <trkpt lat="43.40587" lon="5.4761">
        <ele>603.4</ele>
        <time>2023-10-15T11:48:16.000Z</time>
      </trkpt>
      <trkpt lat="43.40581" lon="5.47599">
        <ele>603.7</ele>
        <time>2023-10-15T11:48:27.000Z</time>
      </trkpt>
      <trkpt lat="43.40575" lon="5.47588">
        <ele>604.1</ele>
        <time>2023-10-15T11:48:38.000Z</time>
      </trkpt>
      <trkpt lat="43.40568" lon="5.47579">
        <ele>604.3</ele>
        <time>2023-10-15T11:48:47.000Z</time>
      </trkpt>
      <trkpt lat="43.40559" lon="5.47574">
        <ele>604.8</ele>
        <time>2023-10-15T11:48:58.000Z</time>
      </trkpt>
      <trkpt lat="43.40549" lon="5.47572">
        <ele>605.7</ele>
        <time>2023-10-15T11:49:09.000Z</time>
      </trkpt>
      <trkpt lat="43.4054" lon="5.47569">
        <ele>606.8</ele>
        <time>2023-10-15T11:49:20.000Z</time>
      </trkpt>
      <trkpt lat="43.40531" lon="5.47563">
        <ele>607.8</ele>
        <time>2023-10-15T11:49:30.000Z</time>
      </trkpt>
      <trkpt lat="43.40523" lon="5.47556">
        <ele>609.1</ele>
        <time>2023-10-15T11:49:40.000Z</time>
      </trkpt>
      <trkpt lat="43.40518" lon="5.47545">
        <ele>610</ele>
        <time>2023-10-15T11:49:52.000Z</time>
      </trkpt>
      <trkpt lat="43.40513" lon="5.47534">
        <ele>610.5</ele>
        <time>2023-10-15T11:50:01.000Z</time>
      </trkpt>
      <trkpt lat="43.40509" lon="5.47523">
        <ele>610.9</ele>
        <time>2023-10-15T11:50:11.000Z</time>
      </trkpt>
      <trkpt lat="43.40505" lon="5.4751">
        <ele>611.3</ele>
        <time>2023-10-15T11:50:23.000Z</time>
      </trkpt>
      <trkpt lat="43.405" lon="5.47498">
        <ele>611.5</ele>
        <time>2023-10-15T11:50:32.000Z</time>
      </trkpt>
      <trkpt lat="43.40498" lon="5.47484">
        <ele>611.8</ele>
        <time>2023-10-15T11:50:42.000Z</time>
      </trkpt>
      <trkpt lat="43.40499" lon="5.47471">
        <ele>612.1</ele>
        <time>2023-10-15T11:50:53.000Z</time>
      </trkpt>
      <trkpt lat="43.40503" lon="5.47459">
        <ele>612.6</ele>
        <time>2023-10-15T11:51:01.000Z</time>
      </trkpt>
      <trkpt lat="43.40503" lon="5.47446">
        <ele>613.5</ele>
        <time>2023-10-15T11:51:11.000Z</time>
      </trkpt>
      <trkpt lat="43.40503" lon="5.47433">
        <ele>615.1</ele>
        <time>2023-10-15T11:51:20.000Z</time>
      </trkpt>
      <trkpt lat="43.40498" lon="5.47422">
        <ele>616.1</ele>
        <time>2023-10-15T11:51:31.000Z</time>
      </trkpt>
      <trkpt lat="43.40498" lon="5.47422">
        <ele>616.2</ele>
        <time>2023-10-15T11:51:32.000Z</time>
      </trkpt>
      <trkpt lat="43.40497" lon="5.47423">
        <ele>616.4</ele>
        <time>2023-10-15T11:51:37.000Z</time>
      </trkpt>
      <trkpt lat="43.40489" lon="5.47416">
        <ele>616.4</ele>
        <time>2023-10-15T11:51:46.000Z</time>
      </trkpt>
      <trkpt lat="43.40481" lon="5.47408">
        <ele>616.6</ele>
        <time>2023-10-15T11:51:54.000Z</time>
      </trkpt>
      <trkpt lat="43.40474" lon="5.47396">
        <ele>616.7</ele>
        <time>2023-10-15T11:52:01.000Z</time>
      </trkpt>
      <trkpt lat="43.40474" lon="5.47384">
        <ele>616.8</ele>
        <time>2023-10-15T11:52:09.000Z</time>
      </trkpt>
      <trkpt lat="43.40474" lon="5.4738">
        <ele>616.9</ele>
        <time>2023-10-15T11:52:13.000Z</time>
      </trkpt>
      <trkpt lat="43.40475" lon="5.47379">
        <ele>616.9</ele>
        <time>2023-10-15T11:52:14.000Z</time>
      </trkpt>
      <trkpt lat="43.40472" lon="5.47367">
        <ele>616.8</ele>
        <time>2023-10-15T11:52:22.000Z</time>
      </trkpt>
      <trkpt lat="43.40469" lon="5.47354">
        <ele>616.7</ele>
        <time>2023-10-15T11:52:30.000Z</time>
      </trkpt>
      <trkpt lat="43.40464" lon="5.47343">
        <ele>616.3</ele>
        <time>2023-10-15T11:52:38.000Z</time>
      </trkpt>
      <trkpt lat="43.40458" lon="5.47333">
        <ele>615.9</ele>
        <time>2023-10-15T11:52:45.000Z</time>
      </trkpt>
      <trkpt lat="43.40454" lon="5.47321">
        <ele>614.6</ele>
        <time>2023-10-15T11:52:53.000Z</time>
      </trkpt>
      <trkpt lat="43.40453" lon="5.47309">
        <ele>613.4</ele>
        <time>2023-10-15T11:53:01.000Z</time>
      </trkpt>
      <trkpt lat="43.4045" lon="5.47296">
        <ele>612.8</ele>
        <time>2023-10-15T11:53:09.000Z</time>
      </trkpt>
      <trkpt lat="43.40448" lon="5.47283">
        <ele>612.3</ele>
        <time>2023-10-15T11:53:19.000Z</time>
      </trkpt>
      <trkpt lat="43.40444" lon="5.47271">
        <ele>612.1</ele>
        <time>2023-10-15T11:53:27.000Z</time>
      </trkpt>
      <trkpt lat="43.4044" lon="5.47259">
        <ele>612.2</ele>
        <time>2023-10-15T11:53:35.000Z</time>
      </trkpt>
      <trkpt lat="43.40434" lon="5.4725">
        <ele>612.3</ele>
        <time>2023-10-15T11:53:45.000Z</time>
      </trkpt>
      <trkpt lat="43.40431" lon="5.47238">
        <ele>612.2</ele>
        <time>2023-10-15T11:53:53.000Z</time>
      </trkpt>
      <trkpt lat="43.40424" lon="5.47227">
        <ele>612.4</ele>
        <time>2023-10-15T11:54:03.000Z</time>
      </trkpt>
      <trkpt lat="43.4042" lon="5.47215">
        <ele>612.7</ele>
        <time>2023-10-15T11:54:13.000Z</time>
      </trkpt>
      <trkpt lat="43.40421" lon="5.47203">
        <ele>613.3</ele>
        <time>2023-10-15T11:54:21.000Z</time>
      </trkpt>
      <trkpt lat="43.40426" lon="5.47192">
        <ele>613.9</ele>
        <time>2023-10-15T11:54:29.000Z</time>
      </trkpt>
      <trkpt lat="43.40432" lon="5.47181">
        <ele>614.9</ele>
        <time>2023-10-15T11:54:38.000Z</time>
      </trkpt>
      <trkpt lat="43.40436" lon="5.4717">
        <ele>615.7</ele>
        <time>2023-10-15T11:54:46.000Z</time>
      </trkpt>
      <trkpt lat="43.40441" lon="5.47158">
        <ele>616.3</ele>
        <time>2023-10-15T11:54:58.000Z</time>
      </trkpt>
      <trkpt lat="43.40447" lon="5.47147">
        <ele>617.8</ele>
        <time>2023-10-15T11:55:14.000Z</time>
      </trkpt>
      <trkpt lat="43.40456" lon="5.47143">
        <ele>618.8</ele>
        <time>2023-10-15T11:55:23.000Z</time>
      </trkpt>
      <trkpt lat="43.40465" lon="5.47142">
        <ele>619.6</ele>
        <time>2023-10-15T11:55:29.000Z</time>
      </trkpt>
      <trkpt lat="43.40476" lon="5.47139">
        <ele>620.4</ele>
        <time>2023-10-15T11:55:41.000Z</time>
      </trkpt>
      <trkpt lat="43.40484" lon="5.47136">
        <ele>621</ele>
        <time>2023-10-15T11:55:51.000Z</time>
      </trkpt>
      <trkpt lat="43.40492" lon="5.47129">
        <ele>621.6</ele>
        <time>2023-10-15T11:56:02.000Z</time>
      </trkpt>
      <trkpt lat="43.405" lon="5.47122">
        <ele>622.4</ele>
        <time>2023-10-15T11:56:12.000Z</time>
      </trkpt>
      <trkpt lat="43.405" lon="5.47115">
        <ele>623.6</ele>
        <time>2023-10-15T11:56:22.000Z</time>
      </trkpt>
      <trkpt lat="43.40501" lon="5.47115">
        <ele>623.8</ele>
        <time>2023-10-15T11:56:28.000Z</time>
      </trkpt>
      <trkpt lat="43.40501" lon="5.47116">
        <ele>624.2</ele>
        <time>2023-10-15T11:56:35.000Z</time>
      </trkpt>
      <trkpt lat="43.40501" lon="5.47115">
        <ele>624.3</ele>
        <time>2023-10-15T11:56:37.000Z</time>
      </trkpt>
      <trkpt lat="43.40501" lon="5.47102">
        <ele>625.4</ele>
        <time>2023-10-15T11:56:49.000Z</time>
      </trkpt>
      <trkpt lat="43.40504" lon="5.4709">
        <ele>626.1</ele>
        <time>2023-10-15T11:56:59.000Z</time>
      </trkpt>
      <trkpt lat="43.40507" lon="5.47077">
        <ele>626.6</ele>
        <time>2023-10-15T11:57:08.000Z</time>
      </trkpt>
      <trkpt lat="43.40512" lon="5.47065">
        <ele>627.7</ele>
        <time>2023-10-15T11:57:18.000Z</time>
      </trkpt>
      <trkpt lat="43.40516" lon="5.47053">
        <ele>628.6</ele>
        <time>2023-10-15T11:57:29.000Z</time>
      </trkpt>
      <trkpt lat="43.40519" lon="5.4704">
        <ele>629.5</ele>
        <time>2023-10-15T11:57:39.000Z</time>
      </trkpt>
      <trkpt lat="43.40519" lon="5.47027">
        <ele>630.4</ele>
        <time>2023-10-15T11:57:50.000Z</time>
      </trkpt>
      <trkpt lat="43.40519" lon="5.47014">
        <ele>631</ele>
        <time>2023-10-15T11:58:01.000Z</time>
      </trkpt>
      <trkpt lat="43.40519" lon="5.47001">
        <ele>632.3</ele>
        <time>2023-10-15T11:58:12.000Z</time>
      </trkpt>
      <trkpt lat="43.40518" lon="5.46988">
        <ele>633.9</ele>
        <time>2023-10-15T11:58:21.000Z</time>
      </trkpt>
      <trkpt lat="43.40517" lon="5.46974">
        <ele>635</ele>
        <time>2023-10-15T11:58:31.000Z</time>
      </trkpt>
      <trkpt lat="43.40522" lon="5.46963">
        <ele>635.7</ele>
        <time>2023-10-15T11:58:39.000Z</time>
      </trkpt>
      <trkpt lat="43.40527" lon="5.46952">
        <ele>636.5</ele>
        <time>2023-10-15T11:58:49.000Z</time>
      </trkpt>
      <trkpt lat="43.40533" lon="5.46942">
        <ele>637.3</ele>
        <time>2023-10-15T11:58:58.000Z</time>
      </trkpt>
      <trkpt lat="43.40531" lon="5.46936">
        <ele>637.7</ele>
        <time>2023-10-15T11:59:10.000Z</time>
      </trkpt>
      <trkpt lat="43.40531" lon="5.46936">
        <ele>637.7</ele>
        <time>2023-10-15T11:59:11.000Z</time>
      </trkpt>
      <trkpt lat="43.40531" lon="5.46936">
        <ele>637.8</ele>
        <time>2023-10-15T11:59:12.000Z</time>
      </trkpt>
      <trkpt lat="43.40531" lon="5.46936">
        <ele>638.4</ele>
        <time>2023-10-15T11:59:57.000Z</time>
      </trkpt>
      <trkpt lat="43.40532" lon="5.46937">
        <ele>638.4</ele>
        <time>2023-10-15T12:00:00.000Z</time>
      </trkpt>
      <trkpt lat="43.40532" lon="5.46937">
        <ele>638.4</ele>
        <time>2023-10-15T12:00:01.000Z</time>
      </trkpt>
      <trkpt lat="43.40532" lon="5.46937">
        <ele>638.4</ele>
        <time>2023-10-15T12:00:02.000Z</time>
      </trkpt>
      <trkpt lat="43.40532" lon="5.46936">
        <ele>638.4</ele>
        <time>2023-10-15T12:00:17.000Z</time>
      </trkpt>
      <trkpt lat="43.40531" lon="5.46936">
        <ele>638.4</ele>
        <time>2023-10-15T12:00:19.000Z</time>
      </trkpt>
      <trkpt lat="43.40532" lon="5.46936">
        <ele>638.3</ele>
        <time>2023-10-15T12:00:31.000Z</time>
      </trkpt>
      <trkpt lat="43.40532" lon="5.46934">
        <ele>638.3</ele>
        <time>2023-10-15T12:00:36.000Z</time>
      </trkpt>
      <trkpt lat="43.40533" lon="5.46933">
        <ele>638.2</ele>
        <time>2023-10-15T12:00:37.000Z</time>
      </trkpt>
      <trkpt lat="43.40536" lon="5.46921">
        <ele>638.3</ele>
        <time>2023-10-15T12:00:48.000Z</time>
      </trkpt>
      <trkpt lat="43.40539" lon="5.46909">
        <ele>638.2</ele>
        <time>2023-10-15T12:00:57.000Z</time>
      </trkpt>
      <trkpt lat="43.40543" lon="5.46896">
        <ele>638.1</ele>
        <time>2023-10-15T12:01:06.000Z</time>
      </trkpt>
      <trkpt lat="43.40544" lon="5.46883">
        <ele>637.9</ele>
        <time>2023-10-15T12:01:15.000Z</time>
      </trkpt>
      <trkpt lat="43.40546" lon="5.4687">
        <ele>637.6</ele>
        <time>2023-10-15T12:01:25.000Z</time>
      </trkpt>
      <trkpt lat="43.40548" lon="5.46858">
        <ele>637.5</ele>
        <time>2023-10-15T12:01:35.000Z</time>
      </trkpt>
      <trkpt lat="43.40554" lon="5.46847">
        <ele>637.4</ele>
        <time>2023-10-15T12:01:45.000Z</time>
      </trkpt>
      <trkpt lat="43.40564" lon="5.46843">
        <ele>637.3</ele>
        <time>2023-10-15T12:01:56.000Z</time>
      </trkpt>
      <trkpt lat="43.40571" lon="5.46839">
        <ele>637.1</ele>
        <time>2023-10-15T12:02:03.000Z</time>
      </trkpt>
      <trkpt lat="43.40572" lon="5.46839">
        <ele>637.1</ele>
        <time>2023-10-15T12:02:04.000Z</time>
      </trkpt>
      <trkpt lat="43.40575" lon="5.46837">
        <ele>637</ele>
        <time>2023-10-15T12:02:11.000Z</time>
      </trkpt>
      <trkpt lat="43.40576" lon="5.46838">
        <ele>637</ele>
        <time>2023-10-15T12:02:12.000Z</time>
      </trkpt>
      <trkpt lat="43.40586" lon="5.46837">
        <ele>636.8</ele>
        <time>2023-10-15T12:02:17.000Z</time>
      </trkpt>
      <trkpt lat="43.40595" lon="5.46839">
        <ele>636.7</ele>
        <time>2023-10-15T12:02:25.000Z</time>
      </trkpt>
      <trkpt lat="43.40605" lon="5.46838">
        <ele>636.7</ele>
        <time>2023-10-15T12:02:34.000Z</time>
      </trkpt>
      <trkpt lat="43.40615" lon="5.46837">
        <ele>636.7</ele>
        <time>2023-10-15T12:02:43.000Z</time>
      </trkpt>
      <trkpt lat="43.40622" lon="5.46829">
        <ele>636.7</ele>
        <time>2023-10-15T12:02:54.000Z</time>
      </trkpt>
      <trkpt lat="43.40619" lon="5.46817">
        <ele>636.9</ele>
        <time>2023-10-15T12:03:04.000Z</time>
      </trkpt>
      <trkpt lat="43.40613" lon="5.4681">
        <ele>636.9</ele>
        <time>2023-10-15T12:03:14.000Z</time>
      </trkpt>
      <trkpt lat="43.40613" lon="5.46809">
        <ele>636.9</ele>
        <time>2023-10-15T12:03:15.000Z</time>
      </trkpt>
      <trkpt lat="43.40606" lon="5.46801">
        <ele>636.9</ele>
        <time>2023-10-15T12:03:23.000Z</time>
      </trkpt>
      <trkpt lat="43.40598" lon="5.46793">
        <ele>636.8</ele>
        <time>2023-10-15T12:03:32.000Z</time>
      </trkpt>
      <trkpt lat="43.40589" lon="5.46788">
        <ele>636.8</ele>
        <time>2023-10-15T12:03:40.000Z</time>
      </trkpt>
      <trkpt lat="43.4058" lon="5.46783">
        <ele>637</ele>
        <time>2023-10-15T12:03:51.000Z</time>
      </trkpt>
      <trkpt lat="43.40574" lon="5.46773">
        <ele>637.8</ele>
        <time>2023-10-15T12:04:02.000Z</time>
      </trkpt>
      <trkpt lat="43.4057" lon="5.46761">
        <ele>639.8</ele>
        <time>2023-10-15T12:04:15.000Z</time>
      </trkpt>
      <trkpt lat="43.40568" lon="5.46749">
        <ele>641.4</ele>
        <time>2023-10-15T12:04:29.000Z</time>
      </trkpt>
      <trkpt lat="43.40565" lon="5.46736">
        <ele>643</ele>
        <time>2023-10-15T12:04:40.000Z</time>
      </trkpt>
      <trkpt lat="43.40562" lon="5.46725">
        <ele>644.3</ele>
        <time>2023-10-15T12:04:51.000Z</time>
      </trkpt>
      <trkpt lat="43.40555" lon="5.46716">
        <ele>645.1</ele>
        <time>2023-10-15T12:05:03.000Z</time>
      </trkpt>
      <trkpt lat="43.4055" lon="5.46704">
        <ele>645.5</ele>
        <time>2023-10-15T12:05:14.000Z</time>
      </trkpt>
      <trkpt lat="43.40547" lon="5.46692">
        <ele>647.2</ele>
        <time>2023-10-15T12:05:28.000Z</time>
      </trkpt>
      <trkpt lat="43.40545" lon="5.4668">
        <ele>649.8</ele>
        <time>2023-10-15T12:05:40.000Z</time>
      </trkpt>
      <trkpt lat="43.40547" lon="5.46667">
        <ele>651.4</ele>
        <time>2023-10-15T12:05:52.000Z</time>
      </trkpt>
      <trkpt lat="43.40549" lon="5.46655">
        <ele>653.5</ele>
        <time>2023-10-15T12:06:09.000Z</time>
      </trkpt>
      <trkpt lat="43.40551" lon="5.46642">
        <ele>655.1</ele>
        <time>2023-10-15T12:06:24.000Z</time>
      </trkpt>
      <trkpt lat="43.4055" lon="5.4663">
        <ele>657.2</ele>
        <time>2023-10-15T12:06:38.000Z</time>
      </trkpt>
      <trkpt lat="43.40551" lon="5.46618">
        <ele>659.7</ele>
        <time>2023-10-15T12:06:53.000Z</time>
      </trkpt>
      <trkpt lat="43.4055" lon="5.46605">
        <ele>662.3</ele>
        <time>2023-10-15T12:07:09.000Z</time>
      </trkpt>
      <trkpt lat="43.40548" lon="5.46592">
        <ele>664.5</ele>
        <time>2023-10-15T12:07:23.000Z</time>
      </trkpt>
      <trkpt lat="43.40543" lon="5.46582">
        <ele>666.6</ele>
        <time>2023-10-15T12:07:36.000Z</time>
      </trkpt>
      <trkpt lat="43.40539" lon="5.46569">
        <ele>668.4</ele>
        <time>2023-10-15T12:07:50.000Z</time>
      </trkpt>
      <trkpt lat="43.4054" lon="5.46564">
        <ele>668.6</ele>
        <time>2023-10-15T12:08:00.000Z</time>
      </trkpt>
      <trkpt lat="43.4054" lon="5.46564">
        <ele>668.7</ele>
        <time>2023-10-15T12:08:02.000Z</time>
      </trkpt>
      <trkpt lat="43.4054" lon="5.46564">
        <ele>668.7</ele>
        <time>2023-10-15T12:08:03.000Z</time>
      </trkpt>
      <trkpt lat="43.4054" lon="5.46564">
        <ele>668.8</ele>
        <time>2023-10-15T12:08:04.000Z</time>
      </trkpt>
      <trkpt lat="43.4054" lon="5.46564">
        <ele>668.8</ele>
        <time>2023-10-15T12:08:05.000Z</time>
      </trkpt>
      <trkpt lat="43.4054" lon="5.46564">
        <ele>668.9</ele>
        <time>2023-10-15T12:08:16.000Z</time>
      </trkpt>
      <trkpt lat="43.4054" lon="5.46564">
        <ele>668.9</ele>
        <time>2023-10-15T12:08:17.000Z</time>
      </trkpt>
      <trkpt lat="43.4054" lon="5.46564">
        <ele>669</ele>
        <time>2023-10-15T12:08:26.000Z</time>
      </trkpt>
      <trkpt lat="43.40535" lon="5.46573">
        <ele>669.1</ele>
        <time>2023-10-15T12:08:39.000Z</time>
      </trkpt>
      <trkpt lat="43.40535" lon="5.46573">
        <ele>669.1</ele>
        <time>2023-10-15T12:08:40.000Z</time>
      </trkpt>
      <trkpt lat="43.40535" lon="5.46574">
        <ele>669.2</ele>
        <time>2023-10-15T12:08:45.000Z</time>
      </trkpt>
      <trkpt lat="43.40536" lon="5.46574">
        <ele>669.3</ele>
        <time>2023-10-15T12:08:48.000Z</time>
      </trkpt>
      <trkpt lat="43.40536" lon="5.4657">
        <ele>669.4</ele>
        <time>2023-10-15T12:08:55.000Z</time>
      </trkpt>
      <trkpt lat="43.40536" lon="5.4657">
        <ele>669.5</ele>
        <time>2023-10-15T12:09:03.000Z</time>
      </trkpt>
      <trkpt lat="43.40536" lon="5.46567">
        <ele>669.6</ele>
        <time>2023-10-15T12:09:08.000Z</time>
      </trkpt>
      <trkpt lat="43.40536" lon="5.46567">
        <ele>669.7</ele>
        <time>2023-10-15T12:09:16.000Z</time>
      </trkpt>
      <trkpt lat="43.40536" lon="5.46567">
        <ele>669.7</ele>
        <time>2023-10-15T12:09:17.000Z</time>
      </trkpt>
      <trkpt lat="43.40536" lon="5.46566">
        <ele>669.7</ele>
        <time>2023-10-15T12:09:28.000Z</time>
      </trkpt>
      <trkpt lat="43.40541" lon="5.46573">
        <ele>669.7</ele>
        <time>2023-10-15T12:09:42.000Z</time>
      </trkpt>
      <trkpt lat="43.40541" lon="5.46573">
        <ele>669.7</ele>
        <time>2023-10-15T12:09:47.000Z</time>
      </trkpt>
      <trkpt lat="43.40541" lon="5.46573">
        <ele>669.8</ele>
        <time>2023-10-15T12:09:48.000Z</time>
      </trkpt>
      <trkpt lat="43.40541" lon="5.46573">
        <ele>669.8</ele>
        <time>2023-10-15T12:09:55.000Z</time>
      </trkpt>
      <trkpt lat="43.40541" lon="5.46573">
        <ele>669.8</ele>
        <time>2023-10-15T12:09:56.000Z</time>
      </trkpt>
      <trkpt lat="43.40541" lon="5.46574">
        <ele>669.8</ele>
        <time>2023-10-15T12:10:03.000Z</time>
      </trkpt>
      <trkpt lat="43.40541" lon="5.46574">
        <ele>669.8</ele>
        <time>2023-10-15T12:10:07.000Z</time>
      </trkpt>
      <trkpt lat="43.40541" lon="5.46574">
        <ele>669.7</ele>
        <time>2023-10-15T12:10:16.000Z</time>
      </trkpt>
      <trkpt lat="43.40541" lon="5.46574">
        <ele>669.6</ele>
        <time>2023-10-15T12:10:18.000Z</time>
      </trkpt>
      <trkpt lat="43.40542" lon="5.46574">
        <ele>669.4</ele>
        <time>2023-10-15T12:10:46.000Z</time>
      </trkpt>
      <trkpt lat="43.40542" lon="5.46574">
        <ele>669.4</ele>
        <time>2023-10-15T12:10:47.000Z</time>
      </trkpt>
      <trkpt lat="43.40541" lon="5.46573">
        <ele>669.4</ele>
        <time>2023-10-15T12:10:53.000Z</time>
      </trkpt>
      <trkpt lat="43.40538" lon="5.46561">
        <ele>669.4</ele>
        <time>2023-10-15T12:11:01.000Z</time>
      </trkpt>
      <trkpt lat="43.40536" lon="5.46549">
        <ele>669.5</ele>
        <time>2023-10-15T12:11:15.000Z</time>
      </trkpt>
      <trkpt lat="43.40536" lon="5.46549">
        <ele>669.5</ele>
        <time>2023-10-15T12:11:16.000Z</time>
      </trkpt>
      <trkpt lat="43.40532" lon="5.46538">
        <ele>669.7</ele>
        <time>2023-10-15T12:11:25.000Z</time>
      </trkpt>
      <trkpt lat="43.4053" lon="5.46525">
        <ele>670.1</ele>
        <time>2023-10-15T12:11:35.000Z</time>
      </trkpt>
      <trkpt lat="43.40526" lon="5.46513">
        <ele>670.9</ele>
        <time>2023-10-15T12:11:45.000Z</time>
      </trkpt>
      <trkpt lat="43.40526" lon="5.46511">
        <ele>671.5</ele>
        <time>2023-10-15T12:11:50.000Z</time>
      </trkpt>
      <trkpt lat="43.40525" lon="5.4651">
        <ele>671.9</ele>
        <time>2023-10-15T12:11:52.000Z</time>
      </trkpt>
      <trkpt lat="43.40522" lon="5.46498">
        <ele>674.8</ele>
        <time>2023-10-15T12:12:07.000Z</time>
      </trkpt>
      <trkpt lat="43.40524" lon="5.46486">
        <ele>676.2</ele>
        <time>2023-10-15T12:12:18.000Z</time>
      </trkpt>
      <trkpt lat="43.40519" lon="5.46475">
        <ele>676.7</ele>
        <time>2023-10-15T12:12:31.000Z</time>
      </trkpt>
      <trkpt lat="43.40519" lon="5.46476">
        <ele>676.6</ele>
        <time>2023-10-15T12:12:38.000Z</time>
      </trkpt>
      <trkpt lat="43.40519" lon="5.46475">
        <ele>676.6</ele>
        <time>2023-10-15T12:12:39.000Z</time>
      </trkpt>
      <trkpt lat="43.40517" lon="5.46463">
        <ele>675.8</ele>
        <time>2023-10-15T12:12:55.000Z</time>
      </trkpt>
      <trkpt lat="43.40519" lon="5.46453">
        <ele>673.7</ele>
        <time>2023-10-15T12:13:09.000Z</time>
      </trkpt>
      <trkpt lat="43.40519" lon="5.46453">
        <ele>672.3</ele>
        <time>2023-10-15T12:13:28.000Z</time>
      </trkpt>
      <trkpt lat="43.40519" lon="5.46453">
        <ele>672.2</ele>
        <time>2023-10-15T12:13:30.000Z</time>
      </trkpt>
      <trkpt lat="43.4052" lon="5.46453">
        <ele>672.1</ele>
        <time>2023-10-15T12:13:32.000Z</time>
      </trkpt>
      <trkpt lat="43.40523" lon="5.46442">
        <ele>671.6</ele>
        <time>2023-10-15T12:13:45.000Z</time>
      </trkpt>
      <trkpt lat="43.40523" lon="5.46441">
        <ele>671.5</ele>
        <time>2023-10-15T12:13:48.000Z</time>
      </trkpt>
      <trkpt lat="43.40526" lon="5.46436">
        <ele>671.4</ele>
        <time>2023-10-15T12:13:56.000Z</time>
      </trkpt>
      <trkpt lat="43.40526" lon="5.46436">
        <ele>671.5</ele>
        <time>2023-10-15T12:13:57.000Z</time>
      </trkpt>
      <trkpt lat="43.40533" lon="5.46431">
        <ele>674.1</ele>
        <time>2023-10-15T12:14:21.000Z</time>
      </trkpt>
      <trkpt lat="43.40533" lon="5.46431">
        <ele>674.5</ele>
        <time>2023-10-15T12:14:24.000Z</time>
      </trkpt>
      <trkpt lat="43.40537" lon="5.46419">
        <ele>675.3</ele>
        <time>2023-10-15T12:14:37.000Z</time>
      </trkpt>
      <trkpt lat="43.40537" lon="5.46406">
        <ele>675.4</ele>
        <time>2023-10-15T12:14:49.000Z</time>
      </trkpt>
      <trkpt lat="43.40531" lon="5.46397">
        <ele>674.8</ele>
        <time>2023-10-15T12:15:01.000Z</time>
      </trkpt>
      <trkpt lat="43.40529" lon="5.46384">
        <ele>673.3</ele>
        <time>2023-10-15T12:15:17.000Z</time>
      </trkpt>
      <trkpt lat="43.4053" lon="5.46371">
        <ele>672.8</ele>
        <time>2023-10-15T12:15:25.000Z</time>
      </trkpt>
      <trkpt lat="43.40529" lon="5.46358">
        <ele>673.2</ele>
        <time>2023-10-15T12:15:37.000Z</time>
      </trkpt>
      <trkpt lat="43.40528" lon="5.46345">
        <ele>675</ele>
        <time>2023-10-15T12:15:51.000Z</time>
      </trkpt>
      <trkpt lat="43.40527" lon="5.46344">
        <ele>675.9</ele>
        <time>2023-10-15T12:15:57.000Z</time>
      </trkpt>
      <trkpt lat="43.40527" lon="5.46344">
        <ele>676</ele>
        <time>2023-10-15T12:15:58.000Z</time>
      </trkpt>
      <trkpt lat="43.40527" lon="5.46346">
        <ele>676.9</ele>
        <time>2023-10-15T12:16:08.000Z</time>
      </trkpt>
      <trkpt lat="43.40527" lon="5.46346">
        <ele>676.9</ele>
        <time>2023-10-15T12:16:09.000Z</time>
      </trkpt>
      <trkpt lat="43.40528" lon="5.46345">
        <ele>677.3</ele>
        <time>2023-10-15T12:16:13.000Z</time>
      </trkpt>
      <trkpt lat="43.40528" lon="5.46345">
        <ele>677.4</ele>
        <time>2023-10-15T12:16:14.000Z</time>
      </trkpt>
      <trkpt lat="43.40528" lon="5.46346">
        <ele>677.5</ele>
        <time>2023-10-15T12:16:16.000Z</time>
      </trkpt>
      <trkpt lat="43.40528" lon="5.46346">
        <ele>677.5</ele>
        <time>2023-10-15T12:16:17.000Z</time>
      </trkpt>
      <trkpt lat="43.40529" lon="5.46344">
        <ele>678.1</ele>
        <time>2023-10-15T12:16:25.000Z</time>
      </trkpt>
      <trkpt lat="43.40529" lon="5.46344">
        <ele>678.2</ele>
        <time>2023-10-15T12:16:26.000Z</time>
      </trkpt>
      <trkpt lat="43.40529" lon="5.46344">
        <ele>678.3</ele>
        <time>2023-10-15T12:16:27.000Z</time>
      </trkpt>
      <trkpt lat="43.4053" lon="5.46343">
        <ele>678.5</ele>
        <time>2023-10-15T12:16:28.000Z</time>
      </trkpt>
      <trkpt lat="43.40529" lon="5.46335">
        <ele>680</ele>
        <time>2023-10-15T12:16:40.000Z</time>
      </trkpt>
      <trkpt lat="43.40528" lon="5.46335">
        <ele>680.1</ele>
        <time>2023-10-15T12:16:41.000Z</time>
      </trkpt>
      <trkpt lat="43.40529" lon="5.46334">
        <ele>680.4</ele>
        <time>2023-10-15T12:16:44.000Z</time>
      </trkpt>
      <trkpt lat="43.40528" lon="5.46334">
        <ele>680.5</ele>
        <time>2023-10-15T12:16:45.000Z</time>
      </trkpt>
      <trkpt lat="43.40525" lon="5.46322">
        <ele>681.2</ele>
        <time>2023-10-15T12:17:01.000Z</time>
      </trkpt>
      <trkpt lat="43.40526" lon="5.4632">
        <ele>681.3</ele>
        <time>2023-10-15T12:17:04.000Z</time>
      </trkpt>
      <trkpt lat="43.40526" lon="5.46319">
        <ele>681.3</ele>
        <time>2023-10-15T12:17:05.000Z</time>
      </trkpt>
      <trkpt lat="43.40526" lon="5.46306">
        <ele>681.4</ele>
        <time>2023-10-15T12:17:18.000Z</time>
      </trkpt>
      <trkpt lat="43.40524" lon="5.46293">
        <ele>681.1</ele>
        <time>2023-10-15T12:17:30.000Z</time>
      </trkpt>
      <trkpt lat="43.4053" lon="5.46283">
        <ele>681.2</ele>
        <time>2023-10-15T12:17:44.000Z</time>
      </trkpt>
      <trkpt lat="43.4053" lon="5.46282">
        <ele>681.3</ele>
        <time>2023-10-15T12:17:46.000Z</time>
      </trkpt>
      <trkpt lat="43.4053" lon="5.46283">
        <ele>681.3</ele>
        <time>2023-10-15T12:17:48.000Z</time>
      </trkpt>
      <trkpt lat="43.40529" lon="5.46283">
        <ele>681.3</ele>
        <time>2023-10-15T12:17:50.000Z</time>
      </trkpt>
      <trkpt lat="43.40529" lon="5.46282">
        <ele>681.4</ele>
        <time>2023-10-15T12:17:52.000Z</time>
      </trkpt>
      <trkpt lat="43.40529" lon="5.46279">
        <ele>681.4</ele>
        <time>2023-10-15T12:18:01.000Z</time>
      </trkpt>
      <trkpt lat="43.40529" lon="5.46279">
        <ele>681.4</ele>
        <time>2023-10-15T12:18:02.000Z</time>
      </trkpt>
      <trkpt lat="43.4053" lon="5.46277">
        <ele>681.4</ele>
        <time>2023-10-15T12:18:11.000Z</time>
      </trkpt>
      <trkpt lat="43.4053" lon="5.46277">
        <ele>681.4</ele>
        <time>2023-10-15T12:18:16.000Z</time>
      </trkpt>
      <trkpt lat="43.40528" lon="5.46271">
        <ele>681.6</ele>
        <time>2023-10-15T12:18:26.000Z</time>
      </trkpt>
      <trkpt lat="43.40528" lon="5.4627">
        <ele>682</ele>
        <time>2023-10-15T12:18:32.000Z</time>
      </trkpt>
      <trkpt lat="43.40528" lon="5.4627">
        <ele>682.1</ele>
        <time>2023-10-15T12:18:33.000Z</time>
      </trkpt>
      <trkpt lat="43.40527" lon="5.4627">
        <ele>682.8</ele>
        <time>2023-10-15T12:18:39.000Z</time>
      </trkpt>
      <trkpt lat="43.40527" lon="5.4627">
        <ele>682.9</ele>
        <time>2023-10-15T12:18:40.000Z</time>
      </trkpt>
      <trkpt lat="43.40527" lon="5.4627">
        <ele>683.1</ele>
        <time>2023-10-15T12:18:42.000Z</time>
      </trkpt>
      <trkpt lat="43.40527" lon="5.4627">
        <ele>683.2</ele>
        <time>2023-10-15T12:18:43.000Z</time>
      </trkpt>
      <trkpt lat="43.40527" lon="5.4627">
        <ele>683.6</ele>
        <time>2023-10-15T12:18:50.000Z</time>
      </trkpt>
      <trkpt lat="43.40527" lon="5.4627">
        <ele>683.7</ele>
        <time>2023-10-15T12:18:53.000Z</time>
      </trkpt>
      <trkpt lat="43.40527" lon="5.46271">
        <ele>683.6</ele>
        <time>2023-10-15T12:18:59.000Z</time>
      </trkpt>
      <trkpt lat="43.40529" lon="5.46272">
        <ele>683.8</ele>
        <time>2023-10-15T12:19:06.000Z</time>
      </trkpt>
      <trkpt lat="43.4053" lon="5.46272">
        <ele>684.4</ele>
        <time>2023-10-15T12:19:26.000Z</time>
      </trkpt>
      <trkpt lat="43.4053" lon="5.46273">
        <ele>684.5</ele>
        <time>2023-10-15T12:19:29.000Z</time>
      </trkpt>
      <trkpt lat="43.4053" lon="5.46274">
        <ele>684.5</ele>
        <time>2023-10-15T12:19:30.000Z</time>
      </trkpt>
      <trkpt lat="43.4053" lon="5.46274">
        <ele>684.6</ele>
        <time>2023-10-15T12:19:33.000Z</time>
      </trkpt>
      <trkpt lat="43.40529" lon="5.46274">
        <ele>685.2</ele>
        <time>2023-10-15T12:19:53.000Z</time>
      </trkpt>
      <trkpt lat="43.40529" lon="5.46274">
        <ele>685.3</ele>
        <time>2023-10-15T12:19:55.000Z</time>
      </trkpt>
      <trkpt lat="43.40529" lon="5.46274">
        <ele>685</ele>
        <time>2023-10-15T12:20:16.000Z</time>
      </trkpt>
      <trkpt lat="43.40528" lon="5.46274">
        <ele>685</ele>
        <time>2023-10-15T12:20:19.000Z</time>
      </trkpt>
      <trkpt lat="43.40528" lon="5.46275">
        <ele>685</ele>
        <time>2023-10-15T12:20:21.000Z</time>
      </trkpt>
      <trkpt lat="43.40528" lon="5.46274">
        <ele>685</ele>
        <time>2023-10-15T12:20:23.000Z</time>
      </trkpt>
      <trkpt lat="43.40528" lon="5.46274">
        <ele>684.4</ele>
        <time>2023-10-15T12:21:12.000Z</time>
      </trkpt>
      <trkpt lat="43.40528" lon="5.46274">
        <ele>684.2</ele>
        <time>2023-10-15T12:21:13.000Z</time>
      </trkpt>
      <trkpt lat="43.40528" lon="5.46274">
        <ele>683</ele>
        <time>2023-10-15T12:21:40.000Z</time>
      </trkpt>
      <trkpt lat="43.40528" lon="5.46274">
        <ele>683</ele>
        <time>2023-10-15T12:21:41.000Z</time>
      </trkpt>
      <trkpt lat="43.40528" lon="5.46274">
        <ele>683.4</ele>
        <time>2023-10-15T12:21:58.000Z</time>
      </trkpt>
      <trkpt lat="43.40527" lon="5.46275">
        <ele>683.4</ele>
        <time>2023-10-15T12:22:03.000Z</time>
      </trkpt>
      <trkpt lat="43.40527" lon="5.46275">
        <ele>683</ele>
        <time>2023-10-15T12:22:39.000Z</time>
      </trkpt>
      <trkpt lat="43.40527" lon="5.46275">
        <ele>683</ele>
        <time>2023-10-15T12:22:40.000Z</time>
      </trkpt>
      <trkpt lat="43.40527" lon="5.46274">
        <ele>684.4</ele>
        <time>2023-10-15T12:23:27.000Z</time>
      </trkpt>
      <trkpt lat="43.40527" lon="5.46274">
        <ele>684.5</ele>
        <time>2023-10-15T12:23:29.000Z</time>
      </trkpt>
      <trkpt lat="43.40527" lon="5.46274">
        <ele>684.4</ele>
        <time>2023-10-15T12:23:59.000Z</time>
      </trkpt>
      <trkpt lat="43.40527" lon="5.46274">
        <ele>684.3</ele>
        <time>2023-10-15T12:24:00.000Z</time>
      </trkpt>
      <trkpt lat="43.40527" lon="5.46273">
        <ele>683.4</ele>
        <time>2023-10-15T12:24:23.000Z</time>
      </trkpt>
      <trkpt lat="43.40526" lon="5.46269">
        <ele>683.8</ele>
        <time>2023-10-15T12:24:30.000Z</time>
      </trkpt>
      <trkpt lat="43.40526" lon="5.46269">
        <ele>683.5</ele>
        <time>2023-10-15T12:25:06.000Z</time>
      </trkpt>
      <trkpt lat="43.40526" lon="5.46269">
        <ele>683.4</ele>
        <time>2023-10-15T12:25:07.000Z</time>
      </trkpt>
      <trkpt lat="43.40526" lon="5.46269">
        <ele>685.1</ele>
        <time>2023-10-15T12:25:41.000Z</time>
      </trkpt>
      <trkpt lat="43.40526" lon="5.46269">
        <ele>685.1</ele>
        <time>2023-10-15T12:25:42.000Z</time>
      </trkpt>
      <trkpt lat="43.40526" lon="5.46269">
        <ele>685.1</ele>
        <time>2023-10-15T12:25:43.000Z</time>
      </trkpt>
      <trkpt lat="43.40526" lon="5.46269">
        <ele>685</ele>
        <time>2023-10-15T12:25:44.000Z</time>
      </trkpt>
      <trkpt lat="43.40525" lon="5.46269">
        <ele>683.6</ele>
        <time>2023-10-15T12:26:16.000Z</time>
      </trkpt>
      <trkpt lat="43.40523" lon="5.46272">
        <ele>684</ele>
        <time>2023-10-15T12:26:21.000Z</time>
      </trkpt>
      <trkpt lat="43.40524" lon="5.46272">
        <ele>684.1</ele>
        <time>2023-10-15T12:26:26.000Z</time>
      </trkpt>
      <trkpt lat="43.40524" lon="5.46272">
        <ele>684.1</ele>
        <time>2023-10-15T12:26:27.000Z</time>
      </trkpt>
      <trkpt lat="43.40523" lon="5.46273">
        <ele>684.1</ele>
        <time>2023-10-15T12:26:31.000Z</time>
      </trkpt>
      <trkpt lat="43.40525" lon="5.46284">
        <ele>683.7</ele>
        <time>2023-10-15T12:26:45.000Z</time>
      </trkpt>
      <trkpt lat="43.40525" lon="5.46284">
        <ele>683.6</ele>
        <time>2023-10-15T12:26:46.000Z</time>
      </trkpt>
      <trkpt lat="43.40525" lon="5.46284">
        <ele>683.6</ele>
        <time>2023-10-15T12:26:47.000Z</time>
      </trkpt>
      <trkpt lat="43.40525" lon="5.46284">
        <ele>683.6</ele>
        <time>2023-10-15T12:26:48.000Z</time>
      </trkpt>
      <trkpt lat="43.40523" lon="5.46297">
        <ele>683.8</ele>
        <time>2023-10-15T12:27:04.000Z</time>
      </trkpt>
      <trkpt lat="43.40526" lon="5.46309">
        <ele>683.9</ele>
        <time>2023-10-15T12:27:16.000Z</time>
      </trkpt>
      <trkpt lat="43.40523" lon="5.46321">
        <ele>684.6</ele>
        <time>2023-10-15T12:27:32.000Z</time>
      </trkpt>
      <trkpt lat="43.40522" lon="5.46324">
        <ele>684.7</ele>
        <time>2023-10-15T12:27:36.000Z</time>
      </trkpt>
      <trkpt lat="43.40522" lon="5.46324">
        <ele>685</ele>
        <time>2023-10-15T12:27:44.000Z</time>
      </trkpt>
      <trkpt lat="43.40523" lon="5.46325">
        <ele>685</ele>
        <time>2023-10-15T12:27:49.000Z</time>
      </trkpt>
      <trkpt lat="43.40524" lon="5.46325">
        <ele>685</ele>
        <time>2023-10-15T12:27:55.000Z</time>
      </trkpt>
      <trkpt lat="43.40523" lon="5.46332">
        <ele>684.4</ele>
        <time>2023-10-15T12:28:07.000Z</time>
      </trkpt>
      <trkpt lat="43.40523" lon="5.46333">
        <ele>684.3</ele>
        <time>2023-10-15T12:28:08.000Z</time>
      </trkpt>
      <trkpt lat="43.40524" lon="5.46345">
        <ele>681.9</ele>
        <time>2023-10-15T12:28:22.000Z</time>
      </trkpt>
      <trkpt lat="43.40527" lon="5.46358">
        <ele>679.4</ele>
        <time>2023-10-15T12:28:34.000Z</time>
      </trkpt>
      <trkpt lat="43.4053" lon="5.46371">
        <ele>677.2</ele>
        <time>2023-10-15T12:28:45.000Z</time>
      </trkpt>
      <trkpt lat="43.40529" lon="5.46384">
        <ele>675.8</ele>
        <time>2023-10-15T12:28:55.000Z</time>
      </trkpt>
      <trkpt lat="43.40528" lon="5.46394">
        <ele>673.8</ele>
        <time>2023-10-15T12:29:08.000Z</time>
      </trkpt>
      <trkpt lat="43.40528" lon="5.46394">
        <ele>673.6</ele>
        <time>2023-10-15T12:29:09.000Z</time>
      </trkpt>
      <trkpt lat="43.40528" lon="5.46394">
        <ele>673.5</ele>
        <time>2023-10-15T12:29:10.000Z</time>
      </trkpt>
      <trkpt lat="43.40528" lon="5.46394">
        <ele>673.2</ele>
        <time>2023-10-15T12:29:13.000Z</time>
      </trkpt>
      <trkpt lat="43.4053" lon="5.46407">
        <ele>672.6</ele>
        <time>2023-10-15T12:29:32.000Z</time>
      </trkpt>
      <trkpt lat="43.40525" lon="5.46418">
        <ele>672.8</ele>
        <time>2023-10-15T12:29:43.000Z</time>
      </trkpt>
      <trkpt lat="43.40526" lon="5.46431">
        <ele>674.4</ele>
        <time>2023-10-15T12:30:02.000Z</time>
      </trkpt>
      <trkpt lat="43.40528" lon="5.46436">
        <ele>675</ele>
        <time>2023-10-15T12:30:12.000Z</time>
      </trkpt>
      <trkpt lat="43.40528" lon="5.46436">
        <ele>675</ele>
        <time>2023-10-15T12:30:13.000Z</time>
      </trkpt>
      <trkpt lat="43.40522" lon="5.46446">
        <ele>674.5</ele>
        <time>2023-10-15T12:30:24.000Z</time>
      </trkpt>
      <trkpt lat="43.40517" lon="5.46457">
        <ele>674.3</ele>
        <time>2023-10-15T12:30:36.000Z</time>
      </trkpt>
      <trkpt lat="43.4052" lon="5.4647">
        <ele>675.4</ele>
        <time>2023-10-15T12:30:53.000Z</time>
      </trkpt>
      <trkpt lat="43.40525" lon="5.46482">
        <ele>677.7</ele>
        <time>2023-10-15T12:31:08.000Z</time>
      </trkpt>
      <trkpt lat="43.40527" lon="5.46494">
        <ele>678.7</ele>
        <time>2023-10-15T12:31:19.000Z</time>
      </trkpt>
      <trkpt lat="43.40526" lon="5.46507">
        <ele>678.7</ele>
        <time>2023-10-15T12:31:42.000Z</time>
      </trkpt>
      <trkpt lat="43.40526" lon="5.46507">
        <ele>678.7</ele>
        <time>2023-10-15T12:31:43.000Z</time>
      </trkpt>
      <trkpt lat="43.40526" lon="5.46507">
        <ele>678.7</ele>
        <time>2023-10-15T12:31:44.000Z</time>
      </trkpt>
      <trkpt lat="43.40526" lon="5.46511">
        <ele>678.3</ele>
        <time>2023-10-15T12:31:53.000Z</time>
      </trkpt>
      <trkpt lat="43.40526" lon="5.46511">
        <ele>678.2</ele>
        <time>2023-10-15T12:31:54.000Z</time>
      </trkpt>
      <trkpt lat="43.4053" lon="5.46524">
        <ele>677.3</ele>
        <time>2023-10-15T12:32:06.000Z</time>
      </trkpt>
      <trkpt lat="43.40533" lon="5.46537">
        <ele>676</ele>
        <time>2023-10-15T12:32:17.000Z</time>
      </trkpt>
      <trkpt lat="43.40533" lon="5.46537">
        <ele>675.9</ele>
        <time>2023-10-15T12:32:19.000Z</time>
      </trkpt>
      <trkpt lat="43.40534" lon="5.46538">
        <ele>675.7</ele>
        <time>2023-10-15T12:32:21.000Z</time>
      </trkpt>
      <trkpt lat="43.40537" lon="5.46551">
        <ele>674.7</ele>
        <time>2023-10-15T12:32:32.000Z</time>
      </trkpt>
      <trkpt lat="43.40538" lon="5.46559">
        <ele>674.2</ele>
        <time>2023-10-15T12:32:42.000Z</time>
      </trkpt>
      <trkpt lat="43.40538" lon="5.46559">
        <ele>674.1</ele>
        <time>2023-10-15T12:32:43.000Z</time>
      </trkpt>
      <trkpt lat="43.40535" lon="5.46571">
        <ele>673</ele>
        <time>2023-10-15T12:32:55.000Z</time>
      </trkpt>
      <trkpt lat="43.40535" lon="5.46573">
        <ele>672.8</ele>
        <time>2023-10-15T12:32:58.000Z</time>
      </trkpt>
      <trkpt lat="43.40535" lon="5.46573">
        <ele>672.7</ele>
        <time>2023-10-15T12:33:02.000Z</time>
      </trkpt>
      <trkpt lat="43.40535" lon="5.46573">
        <ele>672.7</ele>
        <time>2023-10-15T12:33:03.000Z</time>
      </trkpt>
      <trkpt lat="43.40535" lon="5.46573">
        <ele>672.7</ele>
        <time>2023-10-15T12:33:04.000Z</time>
      </trkpt>
      <trkpt lat="43.40535" lon="5.46573">
        <ele>672.6</ele>
        <time>2023-10-15T12:33:06.000Z</time>
      </trkpt>
      <trkpt lat="43.40535" lon="5.46574">
        <ele>672.6</ele>
        <time>2023-10-15T12:33:08.000Z</time>
      </trkpt>
      <trkpt lat="43.40535" lon="5.46574">
        <ele>672.6</ele>
        <time>2023-10-15T12:33:10.000Z</time>
      </trkpt>
      <trkpt lat="43.40535" lon="5.46574">
        <ele>672.6</ele>
        <time>2023-10-15T12:33:11.000Z</time>
      </trkpt>
      <trkpt lat="43.40536" lon="5.46574">
        <ele>672.6</ele>
        <time>2023-10-15T12:33:13.000Z</time>
      </trkpt>
      <trkpt lat="43.40536" lon="5.46575">
        <ele>672.6</ele>
        <time>2023-10-15T12:33:14.000Z</time>
      </trkpt>
      <trkpt lat="43.40536" lon="5.46575">
        <ele>672.6</ele>
        <time>2023-10-15T12:33:16.000Z</time>
      </trkpt>
      <trkpt lat="43.40536" lon="5.46575">
        <ele>672.6</ele>
        <time>2023-10-15T12:33:19.000Z</time>
      </trkpt>
      <trkpt lat="43.40536" lon="5.46575">
        <ele>672.5</ele>
        <time>2023-10-15T12:33:20.000Z</time>
      </trkpt>
      <trkpt lat="43.40536" lon="5.46575">
        <ele>672.3</ele>
        <time>2023-10-15T12:33:54.000Z</time>
      </trkpt>
      <trkpt lat="43.40536" lon="5.46575">
        <ele>672.3</ele>
        <time>2023-10-15T12:33:55.000Z</time>
      </trkpt>
      <trkpt lat="43.40536" lon="5.46575">
        <ele>672.3</ele>
        <time>2023-10-15T12:34:23.000Z</time>
      </trkpt>
      <trkpt lat="43.40535" lon="5.46576">
        <ele>672.3</ele>
        <time>2023-10-15T12:34:28.000Z</time>
      </trkpt>
      <trkpt lat="43.40535" lon="5.46576">
        <ele>672.3</ele>
        <time>2023-10-15T12:34:31.000Z</time>
      </trkpt>
      <trkpt lat="43.40536" lon="5.46571">
        <ele>672.4</ele>
        <time>2023-10-15T12:34:38.000Z</time>
      </trkpt>
      <trkpt lat="43.40536" lon="5.46571">
        <ele>672.5</ele>
        <time>2023-10-15T12:34:47.000Z</time>
      </trkpt>
      <trkpt lat="43.40535" lon="5.46573">
        <ele>672.5</ele>
        <time>2023-10-15T12:34:51.000Z</time>
      </trkpt>
      <trkpt lat="43.40535" lon="5.46573">
        <ele>672.5</ele>
        <time>2023-10-15T12:34:54.000Z</time>
      </trkpt>
      <trkpt lat="43.40538" lon="5.46573">
        <ele>672.7</ele>
        <time>2023-10-15T12:35:04.000Z</time>
      </trkpt>
      <trkpt lat="43.40538" lon="5.46573">
        <ele>672.7</ele>
        <time>2023-10-15T12:35:06.000Z</time>
      </trkpt>
      <trkpt lat="43.40538" lon="5.46573">
        <ele>672.7</ele>
        <time>2023-10-15T12:35:07.000Z</time>
      </trkpt>
      <trkpt lat="43.40538" lon="5.46573">
        <ele>672.7</ele>
        <time>2023-10-15T12:35:22.000Z</time>
      </trkpt>
      <trkpt lat="43.40538" lon="5.46573">
        <ele>672.7</ele>
        <time>2023-10-15T12:35:23.000Z</time>
      </trkpt>
      <trkpt lat="43.40538" lon="5.46573">
        <ele>672.8</ele>
        <time>2023-10-15T12:35:25.000Z</time>
      </trkpt>
      <trkpt lat="43.40538" lon="5.46573">
        <ele>672.8</ele>
        <time>2023-10-15T12:35:26.000Z</time>
      </trkpt>
      <trkpt lat="43.40538" lon="5.46573">
        <ele>672.8</ele>
        <time>2023-10-15T12:35:33.000Z</time>
      </trkpt>
      <trkpt lat="43.40538" lon="5.46574">
        <ele>672.8</ele>
        <time>2023-10-15T12:35:34.000Z</time>
      </trkpt>
      <trkpt lat="43.40538" lon="5.46574">
        <ele>672.8</ele>
        <time>2023-10-15T12:35:35.000Z</time>
      </trkpt>
      <trkpt lat="43.40538" lon="5.46574">
        <ele>672.8</ele>
        <time>2023-10-15T12:35:36.000Z</time>
      </trkpt>
      <trkpt lat="43.40539" lon="5.46574">
        <ele>672.8</ele>
        <time>2023-10-15T12:36:49.000Z</time>
      </trkpt>
      <trkpt lat="43.4054" lon="5.46576">
        <ele>672.7</ele>
        <time>2023-10-15T12:36:58.000Z</time>
      </trkpt>
      <trkpt lat="43.4054" lon="5.46576">
        <ele>672.6</ele>
        <time>2023-10-15T12:37:12.000Z</time>
      </trkpt>
      <trkpt lat="43.4054" lon="5.46576">
        <ele>672.6</ele>
        <time>2023-10-15T12:37:13.000Z</time>
      </trkpt>
      <trkpt lat="43.4054" lon="5.46576">
        <ele>672.6</ele>
        <time>2023-10-15T12:37:16.000Z</time>
      </trkpt>
      <trkpt lat="43.4054" lon="5.46577">
        <ele>672.7</ele>
        <time>2023-10-15T12:37:18.000Z</time>
      </trkpt>
      <trkpt lat="43.40541" lon="5.46577">
        <ele>673</ele>
        <time>2023-10-15T12:37:58.000Z</time>
      </trkpt>
      <trkpt lat="43.40541" lon="5.46578">
        <ele>673</ele>
        <time>2023-10-15T12:38:03.000Z</time>
      </trkpt>
      <trkpt lat="43.40541" lon="5.46578">
        <ele>673</ele>
        <time>2023-10-15T12:38:23.000Z</time>
      </trkpt>
      <trkpt lat="43.40542" lon="5.46584">
        <ele>673</ele>
        <time>2023-10-15T12:38:31.000Z</time>
      </trkpt>
      <trkpt lat="43.40542" lon="5.46584">
        <ele>672.5</ele>
        <time>2023-10-15T12:39:03.000Z</time>
      </trkpt>
      <trkpt lat="43.40547" lon="5.46596">
        <ele>672.6</ele>
        <time>2023-10-15T12:39:15.000Z</time>
      </trkpt>
      <trkpt lat="43.4055" lon="5.46608">
        <ele>671.6</ele>
        <time>2023-10-15T12:39:26.000Z</time>
      </trkpt>
      <trkpt lat="43.40548" lon="5.4662">
        <ele>669</ele>
        <time>2023-10-15T12:39:36.000Z</time>
      </trkpt>
      <trkpt lat="43.40549" lon="5.46634">
        <ele>665.6</ele>
        <time>2023-10-15T12:39:46.000Z</time>
      </trkpt>
      <trkpt lat="43.40552" lon="5.46646">
        <ele>663.3</ele>
        <time>2023-10-15T12:39:56.000Z</time>
      </trkpt>
      <trkpt lat="43.40549" lon="5.46659">
        <ele>660.3</ele>
        <time>2023-10-15T12:40:09.000Z</time>
      </trkpt>
      <trkpt lat="43.40548" lon="5.46671">
        <ele>658.6</ele>
        <time>2023-10-15T12:40:18.000Z</time>
      </trkpt>
      <trkpt lat="43.40549" lon="5.46684">
        <ele>657.4</ele>
        <time>2023-10-15T12:40:26.000Z</time>
      </trkpt>
      <trkpt lat="43.40552" lon="5.46697">
        <ele>655.9</ele>
        <time>2023-10-15T12:40:36.000Z</time>
      </trkpt>
      <trkpt lat="43.40555" lon="5.46709">
        <ele>653</ele>
        <time>2023-10-15T12:40:50.000Z</time>
      </trkpt>
      <trkpt lat="43.40562" lon="5.46718">
        <ele>651.3</ele>
        <time>2023-10-15T12:41:00.000Z</time>
      </trkpt>
      <trkpt lat="43.40563" lon="5.46731">
        <ele>650.5</ele>
        <time>2023-10-15T12:41:09.000Z</time>
      </trkpt>
      <trkpt lat="43.40563" lon="5.46734">
        <ele>650.3</ele>
        <time>2023-10-15T12:41:13.000Z</time>
      </trkpt>
      <trkpt lat="43.40563" lon="5.46734">
        <ele>650</ele>
        <time>2023-10-15T12:41:23.000Z</time>
      </trkpt>
      <trkpt lat="43.40566" lon="5.46745">
        <ele>649.8</ele>
        <time>2023-10-15T12:41:33.000Z</time>
      </trkpt>
      <trkpt lat="43.4057" lon="5.46757">
        <ele>649.2</ele>
        <time>2023-10-15T12:41:41.000Z</time>
      </trkpt>
      <trkpt lat="43.40574" lon="5.46769">
        <ele>648.4</ele>
        <time>2023-10-15T12:41:50.000Z</time>
      </trkpt>
      <trkpt lat="43.4058" lon="5.4678">
        <ele>647</ele>
        <time>2023-10-15T12:42:00.000Z</time>
      </trkpt>
      <trkpt lat="43.40588" lon="5.46788">
        <ele>645</ele>
        <time>2023-10-15T12:42:10.000Z</time>
      </trkpt>
      <trkpt lat="43.40599" lon="5.4679">
        <ele>643</ele>
        <time>2023-10-15T12:42:17.000Z</time>
      </trkpt>
      <trkpt lat="43.40607" lon="5.46798">
        <ele>641.4</ele>
        <time>2023-10-15T12:42:27.000Z</time>
      </trkpt>
      <trkpt lat="43.40616" lon="5.46805">
        <ele>640.4</ele>
        <time>2023-10-15T12:42:34.000Z</time>
      </trkpt>
      <trkpt lat="43.40622" lon="5.46815">
        <ele>639.8</ele>
        <time>2023-10-15T12:42:42.000Z</time>
      </trkpt>
      <trkpt lat="43.40624" lon="5.46828">
        <ele>639.8</ele>
        <time>2023-10-15T12:42:51.000Z</time>
      </trkpt>
      <trkpt lat="43.40619" lon="5.46838">
        <ele>639.8</ele>
        <time>2023-10-15T12:42:59.000Z</time>
      </trkpt>
      <trkpt lat="43.40609" lon="5.46836">
        <ele>639.8</ele>
        <time>2023-10-15T12:43:07.000Z</time>
      </trkpt>
      <trkpt lat="43.40599" lon="5.46837">
        <ele>639.8</ele>
        <time>2023-10-15T12:43:16.000Z</time>
      </trkpt>
      <trkpt lat="43.4059" lon="5.46836">
        <ele>639.7</ele>
        <time>2023-10-15T12:43:22.000Z</time>
      </trkpt>
      <trkpt lat="43.4058" lon="5.46838">
        <ele>639.5</ele>
        <time>2023-10-15T12:43:31.000Z</time>
      </trkpt>
      <trkpt lat="43.40571" lon="5.46839">
        <ele>639.4</ele>
        <time>2023-10-15T12:43:39.000Z</time>
      </trkpt>
      <trkpt lat="43.40562" lon="5.46844">
        <ele>639.4</ele>
        <time>2023-10-15T12:43:48.000Z</time>
      </trkpt>
      <trkpt lat="43.40554" lon="5.46848">
        <ele>639.5</ele>
        <time>2023-10-15T12:43:57.000Z</time>
      </trkpt>
      <trkpt lat="43.40551" lon="5.4686">
        <ele>639.6</ele>
        <time>2023-10-15T12:44:06.000Z</time>
      </trkpt>
      <trkpt lat="43.40549" lon="5.46874">
        <ele>639.7</ele>
        <time>2023-10-15T12:44:14.000Z</time>
      </trkpt>
      <trkpt lat="43.40545" lon="5.46887">
        <ele>639.9</ele>
        <time>2023-10-15T12:44:22.000Z</time>
      </trkpt>
      <trkpt lat="43.40543" lon="5.46899">
        <ele>640</ele>
        <time>2023-10-15T12:44:29.000Z</time>
      </trkpt>
      <trkpt lat="43.40539" lon="5.46911">
        <ele>640</ele>
        <time>2023-10-15T12:44:37.000Z</time>
      </trkpt>
      <trkpt lat="43.40538" lon="5.46924">
        <ele>640.2</ele>
        <time>2023-10-15T12:44:45.000Z</time>
      </trkpt>
      <trkpt lat="43.40533" lon="5.46935">
        <ele>640.3</ele>
        <time>2023-10-15T12:44:53.000Z</time>
      </trkpt>
      <trkpt lat="43.40529" lon="5.46948">
        <ele>640.3</ele>
        <time>2023-10-15T12:45:01.000Z</time>
      </trkpt>
      <trkpt lat="43.40524" lon="5.46959">
        <ele>640.2</ele>
        <time>2023-10-15T12:45:08.000Z</time>
      </trkpt>
      <trkpt lat="43.4052" lon="5.46971">
        <ele>640.1</ele>
        <time>2023-10-15T12:45:17.000Z</time>
      </trkpt>
      <trkpt lat="43.40519" lon="5.46984">
        <ele>639.7</ele>
        <time>2023-10-15T12:45:24.000Z</time>
      </trkpt>
      <trkpt lat="43.4052" lon="5.46997">
        <ele>639.2</ele>
        <time>2023-10-15T12:45:31.000Z</time>
      </trkpt>
      <trkpt lat="43.4052" lon="5.4701">
        <ele>638.4</ele>
        <time>2023-10-15T12:45:40.000Z</time>
      </trkpt>
      <trkpt lat="43.40522" lon="5.47024">
        <ele>637</ele>
        <time>2023-10-15T12:45:48.000Z</time>
      </trkpt>
      <trkpt lat="43.40523" lon="5.47036">
        <ele>635.9</ele>
        <time>2023-10-15T12:45:56.000Z</time>
      </trkpt>
      <trkpt lat="43.40521" lon="5.4705">
        <ele>634.9</ele>
        <time>2023-10-15T12:46:04.000Z</time>
      </trkpt>
      <trkpt lat="43.40515" lon="5.47061">
        <ele>633.8</ele>
        <time>2023-10-15T12:46:11.000Z</time>
      </trkpt>
      <trkpt lat="43.40512" lon="5.47074">
        <ele>632.9</ele>
        <time>2023-10-15T12:46:19.000Z</time>
      </trkpt>
      <trkpt lat="43.40508" lon="5.47087">
        <ele>632</ele>
        <time>2023-10-15T12:46:28.000Z</time>
      </trkpt>
      <trkpt lat="43.40503" lon="5.47098">
        <ele>631.2</ele>
        <time>2023-10-15T12:46:35.000Z</time>
      </trkpt>
      <trkpt lat="43.40501" lon="5.47111">
        <ele>630.1</ele>
        <time>2023-10-15T12:46:44.000Z</time>
      </trkpt>
      <trkpt lat="43.40498" lon="5.47124">
        <ele>629.2</ele>
        <time>2023-10-15T12:46:53.000Z</time>
      </trkpt>
      <trkpt lat="43.40492" lon="5.47134">
        <ele>628.6</ele>
        <time>2023-10-15T12:47:03.000Z</time>
      </trkpt>
      <trkpt lat="43.40482" lon="5.47136">
        <ele>628.1</ele>
        <time>2023-10-15T12:47:11.000Z</time>
      </trkpt>
      <trkpt lat="43.40473" lon="5.47138">
        <ele>627.6</ele>
        <time>2023-10-15T12:47:19.000Z</time>
      </trkpt>
      <trkpt lat="43.40464" lon="5.47144">
        <ele>627.2</ele>
        <time>2023-10-15T12:47:28.000Z</time>
      </trkpt>
      <trkpt lat="43.40454" lon="5.47141">
        <ele>626.8</ele>
        <time>2023-10-15T12:47:34.000Z</time>
      </trkpt>
      <trkpt lat="43.40445" lon="5.47146">
        <ele>626.1</ele>
        <time>2023-10-15T12:47:42.000Z</time>
      </trkpt>
      <trkpt lat="43.40438" lon="5.47155">
        <ele>625.6</ele>
        <time>2023-10-15T12:47:51.000Z</time>
      </trkpt>
      <trkpt lat="43.40434" lon="5.47167">
        <ele>624.8</ele>
        <time>2023-10-15T12:48:00.000Z</time>
      </trkpt>
      <trkpt lat="43.40432" lon="5.47179">
        <ele>623.3</ele>
        <time>2023-10-15T12:48:09.000Z</time>
      </trkpt>
      <trkpt lat="43.4043" lon="5.47192">
        <ele>622.4</ele>
        <time>2023-10-15T12:48:18.000Z</time>
      </trkpt>
      <trkpt lat="43.40425" lon="5.47204">
        <ele>621.1</ele>
        <time>2023-10-15T12:48:28.000Z</time>
      </trkpt>
      <trkpt lat="43.40426" lon="5.47217">
        <ele>620</ele>
        <time>2023-10-15T12:48:39.000Z</time>
      </trkpt>
      <trkpt lat="43.40427" lon="5.47229">
        <ele>619.6</ele>
        <time>2023-10-15T12:48:46.000Z</time>
      </trkpt>
      <trkpt lat="43.40434" lon="5.47239">
        <ele>619.6</ele>
        <time>2023-10-15T12:48:53.000Z</time>
      </trkpt>
      <trkpt lat="43.40441" lon="5.47248">
        <ele>619.5</ele>
        <time>2023-10-15T12:49:02.000Z</time>
      </trkpt>
      <trkpt lat="43.40445" lon="5.47261">
        <ele>619.2</ele>
        <time>2023-10-15T12:49:10.000Z</time>
      </trkpt>
      <trkpt lat="43.40445" lon="5.47275">
        <ele>619</ele>
        <time>2023-10-15T12:49:18.000Z</time>
      </trkpt>
      <trkpt lat="43.40448" lon="5.47287">
        <ele>618.6</ele>
        <time>2023-10-15T12:49:28.000Z</time>
      </trkpt>
      <trkpt lat="43.40447" lon="5.47301">
        <ele>618.1</ele>
        <time>2023-10-15T12:49:38.000Z</time>
      </trkpt>
      <trkpt lat="43.40444" lon="5.47313">
        <ele>618.2</ele>
        <time>2023-10-15T12:49:47.000Z</time>
      </trkpt>
      <trkpt lat="43.40449" lon="5.47323">
        <ele>618.7</ele>
        <time>2023-10-15T12:49:54.000Z</time>
      </trkpt>
      <trkpt lat="43.40456" lon="5.47332">
        <ele>619.1</ele>
        <time>2023-10-15T12:50:01.000Z</time>
      </trkpt>
      <trkpt lat="43.4046" lon="5.47344">
        <ele>619.5</ele>
        <time>2023-10-15T12:50:10.000Z</time>
      </trkpt>
      <trkpt lat="43.40464" lon="5.47356">
        <ele>619.9</ele>
        <time>2023-10-15T12:50:18.000Z</time>
      </trkpt>
      <trkpt lat="43.4047" lon="5.47368">
        <ele>620.4</ele>
        <time>2023-10-15T12:50:28.000Z</time>
      </trkpt>
      <trkpt lat="43.40474" lon="5.47379">
        <ele>620.6</ele>
        <time>2023-10-15T12:50:37.000Z</time>
      </trkpt>
      <trkpt lat="43.40473" lon="5.47392">
        <ele>620.8</ele>
        <time>2023-10-15T12:50:44.000Z</time>
      </trkpt>
      <trkpt lat="43.40479" lon="5.47403">
        <ele>620.9</ele>
        <time>2023-10-15T12:50:52.000Z</time>
      </trkpt>
      <trkpt lat="43.40483" lon="5.47415">
        <ele>621.2</ele>
        <time>2023-10-15T12:51:01.000Z</time>
      </trkpt>
      <trkpt lat="43.4049" lon="5.47423">
        <ele>621.2</ele>
        <time>2023-10-15T12:51:10.000Z</time>
      </trkpt>
      <trkpt lat="43.40493" lon="5.47424">
        <ele>621.2</ele>
        <time>2023-10-15T12:51:14.000Z</time>
      </trkpt>
      <trkpt lat="43.40494" lon="5.47424">
        <ele>621.2</ele>
        <time>2023-10-15T12:51:15.000Z</time>
      </trkpt>
      <trkpt lat="43.40502" lon="5.4743">
        <ele>621.2</ele>
        <time>2023-10-15T12:51:22.000Z</time>
      </trkpt>
      <trkpt lat="43.40507" lon="5.47442">
        <ele>621.2</ele>
        <time>2023-10-15T12:51:29.000Z</time>
      </trkpt>
      <trkpt lat="43.40503" lon="5.47453">
        <ele>621</ele>
        <time>2023-10-15T12:51:38.000Z</time>
      </trkpt>
      <trkpt lat="43.405" lon="5.47465">
        <ele>620.7</ele>
        <time>2023-10-15T12:51:46.000Z</time>
      </trkpt>
      <trkpt lat="43.40499" lon="5.47478">
        <ele>620.2</ele>
        <time>2023-10-15T12:51:55.000Z</time>
      </trkpt>
      <trkpt lat="43.40498" lon="5.47491">
        <ele>619.6</ele>
        <time>2023-10-15T12:52:04.000Z</time>
      </trkpt>
      <trkpt lat="43.40504" lon="5.47502">
        <ele>619</ele>
        <time>2023-10-15T12:52:14.000Z</time>
      </trkpt>
      <trkpt lat="43.40509" lon="5.47514">
        <ele>618.5</ele>
        <time>2023-10-15T12:52:21.000Z</time>
      </trkpt>
      <trkpt lat="43.40514" lon="5.47525">
        <ele>618</ele>
        <time>2023-10-15T12:52:30.000Z</time>
      </trkpt>
      <trkpt lat="43.40519" lon="5.47536">
        <ele>617.5</ele>
        <time>2023-10-15T12:52:37.000Z</time>
      </trkpt>
      <trkpt lat="43.40522" lon="5.47547">
        <ele>617.1</ele>
        <time>2023-10-15T12:52:45.000Z</time>
      </trkpt>
      <trkpt lat="43.40526" lon="5.47558">
        <ele>616.9</ele>
        <time>2023-10-15T12:52:54.000Z</time>
      </trkpt>
      <trkpt lat="43.40533" lon="5.47568">
        <ele>616.5</ele>
        <time>2023-10-15T12:53:03.000Z</time>
      </trkpt>
      <trkpt lat="43.40543" lon="5.47572">
        <ele>616</ele>
        <time>2023-10-15T12:53:12.000Z</time>
      </trkpt>
      <trkpt lat="43.40551" lon="5.47579">
        <ele>615.3</ele>
        <time>2023-10-15T12:53:21.000Z</time>
      </trkpt>
      <trkpt lat="43.40562" lon="5.47579">
        <ele>614.2</ele>
        <time>2023-10-15T12:53:31.000Z</time>
      </trkpt>
      <trkpt lat="43.4057" lon="5.47582">
        <ele>613.5</ele>
        <time>2023-10-15T12:53:37.000Z</time>
      </trkpt>
      <trkpt lat="43.40577" lon="5.47592">
        <ele>612.7</ele>
        <time>2023-10-15T12:53:46.000Z</time>
      </trkpt>
      <trkpt lat="43.40581" lon="5.47604">
        <ele>611.8</ele>
        <time>2023-10-15T12:53:56.000Z</time>
      </trkpt>
      <trkpt lat="43.40587" lon="5.47614">
        <ele>611.1</ele>
        <time>2023-10-15T12:54:05.000Z</time>
      </trkpt>
      <trkpt lat="43.40595" lon="5.47622">
        <ele>610.6</ele>
        <time>2023-10-15T12:54:15.000Z</time>
      </trkpt>
      <trkpt lat="43.40601" lon="5.47635">
        <ele>610.2</ele>
        <time>2023-10-15T12:54:23.000Z</time>
      </trkpt>
      <trkpt lat="43.40605" lon="5.47647">
        <ele>609.9</ele>
        <time>2023-10-15T12:54:30.000Z</time>
      </trkpt>
      <trkpt lat="43.4061" lon="5.47658">
        <ele>609.5</ele>
        <time>2023-10-15T12:54:39.000Z</time>
      </trkpt>
      <trkpt lat="43.40616" lon="5.47668">
        <ele>609.3</ele>
        <time>2023-10-15T12:54:49.000Z</time>
      </trkpt>
      <trkpt lat="43.40621" lon="5.47679">
        <ele>609.2</ele>
        <time>2023-10-15T12:54:56.000Z</time>
      </trkpt>
      <trkpt lat="43.40627" lon="5.47689">
        <ele>609</ele>
        <time>2023-10-15T12:55:02.000Z</time>
      </trkpt>
      <trkpt lat="43.40633" lon="5.47699">
        <ele>608.8</ele>
        <time>2023-10-15T12:55:10.000Z</time>
      </trkpt>
      <trkpt lat="43.40641" lon="5.47706">
        <ele>608.4</ele>
        <time>2023-10-15T12:55:19.000Z</time>
      </trkpt>
      <trkpt lat="43.4065" lon="5.47713">
        <ele>607.8</ele>
        <time>2023-10-15T12:55:28.000Z</time>
      </trkpt>
      <trkpt lat="43.40658" lon="5.47719">
        <ele>607.3</ele>
        <time>2023-10-15T12:55:36.000Z</time>
      </trkpt>
      <trkpt lat="43.40668" lon="5.47722">
        <ele>606.1</ele>
        <time>2023-10-15T12:55:49.000Z</time>
      </trkpt>
      <trkpt lat="43.40675" lon="5.47731">
        <ele>605.2</ele>
        <time>2023-10-15T12:55:58.000Z</time>
      </trkpt>
      <trkpt lat="43.40683" lon="5.47738">
        <ele>604.4</ele>
        <time>2023-10-15T12:56:07.000Z</time>
      </trkpt>
      <trkpt lat="43.40687" lon="5.47745">
        <ele>602.5</ele>
        <time>2023-10-15T12:56:28.000Z</time>
      </trkpt>
      <trkpt lat="43.40687" lon="5.47745">
        <ele>602.5</ele>
        <time>2023-10-15T12:56:29.000Z</time>
      </trkpt>
      <trkpt lat="43.40687" lon="5.47745">
        <ele>602.4</ele>
        <time>2023-10-15T12:56:30.000Z</time>
      </trkpt>
      <trkpt lat="43.40687" lon="5.47745">
        <ele>602.3</ele>
        <time>2023-10-15T12:56:32.000Z</time>
      </trkpt>
      <trkpt lat="43.40687" lon="5.47749">
        <ele>602</ele>
        <time>2023-10-15T12:56:43.000Z</time>
      </trkpt>
      <trkpt lat="43.40687" lon="5.47749">
        <ele>601.8</ele>
        <time>2023-10-15T12:56:47.000Z</time>
      </trkpt>
      <trkpt lat="43.40687" lon="5.47749">
        <ele>601.8</ele>
        <time>2023-10-15T12:56:48.000Z</time>
      </trkpt>
      <trkpt lat="43.40687" lon="5.47749">
        <ele>601.8</ele>
        <time>2023-10-15T12:56:56.000Z</time>
      </trkpt>
      <trkpt lat="43.40687" lon="5.4775">
        <ele>601.8</ele>
        <time>2023-10-15T12:56:57.000Z</time>
      </trkpt>
      <trkpt lat="43.40687" lon="5.4775">
        <ele>601.9</ele>
        <time>2023-10-15T12:56:58.000Z</time>
      </trkpt>
      <trkpt lat="43.40687" lon="5.4775">
        <ele>601.9</ele>
        <time>2023-10-15T12:56:59.000Z</time>
      </trkpt>
      <trkpt lat="43.40687" lon="5.47749">
        <ele>601.9</ele>
        <time>2023-10-15T12:57:00.000Z</time>
      </trkpt>
      <trkpt lat="43.40687" lon="5.47749">
        <ele>601.8</ele>
        <time>2023-10-15T12:57:01.000Z</time>
      </trkpt>
      <trkpt lat="43.40686" lon="5.47749">
        <ele>601.8</ele>
        <time>2023-10-15T12:57:02.000Z</time>
      </trkpt>
      <trkpt lat="43.40686" lon="5.47749">
        <ele>601.8</ele>
        <time>2023-10-15T12:57:04.000Z</time>
      </trkpt>
      <trkpt lat="43.40686" lon="5.47749">
        <ele>601.9</ele>
        <time>2023-10-15T12:57:19.000Z</time>
      </trkpt>
      <trkpt lat="43.40686" lon="5.47749">
        <ele>601.9</ele>
        <time>2023-10-15T12:57:20.000Z</time>
      </trkpt>
      <trkpt lat="43.40686" lon="5.47749">
        <ele>601.9</ele>
        <time>2023-10-15T12:57:27.000Z</time>
      </trkpt>
      <trkpt lat="43.40686" lon="5.47749">
        <ele>601.9</ele>
        <time>2023-10-15T12:57:28.000Z</time>
      </trkpt>
      <trkpt lat="43.40686" lon="5.47749">
        <ele>601.8</ele>
        <time>2023-10-15T12:57:43.000Z</time>
      </trkpt>
      <trkpt lat="43.40686" lon="5.47749">
        <ele>601.8</ele>
        <time>2023-10-15T12:57:44.000Z</time>
      </trkpt>
      <trkpt lat="43.40686" lon="5.47749">
        <ele>601.8</ele>
        <time>2023-10-15T12:58:13.000Z</time>
      </trkpt>
      <trkpt lat="43.40686" lon="5.47749">
        <ele>601.8</ele>
        <time>2023-10-15T12:58:14.000Z</time>
      </trkpt>
      <trkpt lat="43.40686" lon="5.47749">
        <ele>601.9</ele>
        <time>2023-10-15T12:58:23.000Z</time>
      </trkpt>
      <trkpt lat="43.40686" lon="5.47748">
        <ele>601.9</ele>
        <time>2023-10-15T12:58:25.000Z</time>
      </trkpt>
      <trkpt lat="43.40686" lon="5.47748">
        <ele>601.9</ele>
        <time>2023-10-15T12:58:27.000Z</time>
      </trkpt>
      <trkpt lat="43.40679" lon="5.47739">
        <ele>602.2</ele>
        <time>2023-10-15T12:58:42.000Z</time>
      </trkpt>
      <trkpt lat="43.40672" lon="5.47729">
        <ele>602.8</ele>
        <time>2023-10-15T12:58:53.000Z</time>
      </trkpt>
      <trkpt lat="43.40667" lon="5.47724">
        <ele>603.7</ele>
        <time>2023-10-15T12:59:05.000Z</time>
      </trkpt>
      <trkpt lat="43.40668" lon="5.47723">
        <ele>603.7</ele>
        <time>2023-10-15T12:59:06.000Z</time>
      </trkpt>
      <trkpt lat="43.40675" lon="5.47731">
        <ele>604.1</ele>
        <time>2023-10-15T12:59:24.000Z</time>
      </trkpt>
      <trkpt lat="43.40682" lon="5.47741">
        <ele>603.6</ele>
        <time>2023-10-15T12:59:36.000Z</time>
      </trkpt>
      <trkpt lat="43.40689" lon="5.4775">
        <ele>603.1</ele>
        <time>2023-10-15T12:59:45.000Z</time>
      </trkpt>
      <trkpt lat="43.40696" lon="5.47758">
        <ele>602.1</ele>
        <time>2023-10-15T12:59:56.000Z</time>
      </trkpt>
      <trkpt lat="43.40704" lon="5.47767">
        <ele>600.9</ele>
        <time>2023-10-15T13:00:07.000Z</time>
      </trkpt>
      <trkpt lat="43.4071" lon="5.47778">
        <ele>599.9</ele>
        <time>2023-10-15T13:00:17.000Z</time>
      </trkpt>
      <trkpt lat="43.40716" lon="5.47789">
        <ele>599.1</ele>
        <time>2023-10-15T13:00:28.000Z</time>
      </trkpt>
      <trkpt lat="43.40722" lon="5.478">
        <ele>598.3</ele>
        <time>2023-10-15T13:00:37.000Z</time>
      </trkpt>
      <trkpt lat="43.40727" lon="5.47811">
        <ele>597.4</ele>
        <time>2023-10-15T13:00:47.000Z</time>
      </trkpt>
      <trkpt lat="43.4073" lon="5.47823">
        <ele>596.9</ele>
        <time>2023-10-15T13:00:56.000Z</time>
      </trkpt>
      <trkpt lat="43.40735" lon="5.47835">
        <ele>596.7</ele>
        <time>2023-10-15T13:01:04.000Z</time>
      </trkpt>
      <trkpt lat="43.4074" lon="5.47846">
        <ele>596.2</ele>
        <time>2023-10-15T13:01:12.000Z</time>
      </trkpt>
      <trkpt lat="43.40743" lon="5.47851">
        <ele>596.2</ele>
        <time>2023-10-15T13:01:18.000Z</time>
      </trkpt>
      <trkpt lat="43.40743" lon="5.4785">
        <ele>596.2</ele>
        <time>2023-10-15T13:01:19.000Z</time>
      </trkpt>
      <trkpt lat="43.40743" lon="5.4785">
        <ele>596.2</ele>
        <time>2023-10-15T13:01:20.000Z</time>
      </trkpt>
      <trkpt lat="43.40743" lon="5.4785">
        <ele>596.2</ele>
        <time>2023-10-15T13:01:21.000Z</time>
      </trkpt>
      <trkpt lat="43.40743" lon="5.47848">
        <ele>596.1</ele>
        <time>2023-10-15T13:01:24.000Z</time>
      </trkpt>
      <trkpt lat="43.40743" lon="5.47847">
        <ele>596.2</ele>
        <time>2023-10-15T13:01:27.000Z</time>
      </trkpt>
      <trkpt lat="43.40743" lon="5.47847">
        <ele>596.2</ele>
        <time>2023-10-15T13:01:28.000Z</time>
      </trkpt>
      <trkpt lat="43.40743" lon="5.47847">
        <ele>596.2</ele>
        <time>2023-10-15T13:01:31.000Z</time>
      </trkpt>
      <trkpt lat="43.40743" lon="5.47847">
        <ele>596.2</ele>
        <time>2023-10-15T13:01:34.000Z</time>
      </trkpt>
      <trkpt lat="43.40743" lon="5.47847">
        <ele>596.2</ele>
        <time>2023-10-15T13:01:35.000Z</time>
      </trkpt>
      <trkpt lat="43.40743" lon="5.47848">
        <ele>596.1</ele>
        <time>2023-10-15T13:01:37.000Z</time>
      </trkpt>
      <trkpt lat="43.40743" lon="5.47848">
        <ele>596.1</ele>
        <time>2023-10-15T13:01:41.000Z</time>
      </trkpt>
      <trkpt lat="43.40748" lon="5.47859">
        <ele>595.9</ele>
        <time>2023-10-15T13:01:52.000Z</time>
      </trkpt>
      <trkpt lat="43.40749" lon="5.47866">
        <ele>595.8</ele>
        <time>2023-10-15T13:02:00.000Z</time>
      </trkpt>
      <trkpt lat="43.40749" lon="5.47866">
        <ele>595.6</ele>
        <time>2023-10-15T13:02:15.000Z</time>
      </trkpt>
      <trkpt lat="43.40749" lon="5.47867">
        <ele>595.6</ele>
        <time>2023-10-15T13:02:17.000Z</time>
      </trkpt>
      <trkpt lat="43.40749" lon="5.47867">
        <ele>595.7</ele>
        <time>2023-10-15T13:02:21.000Z</time>
      </trkpt>
      <trkpt lat="43.40749" lon="5.47867">
        <ele>595.6</ele>
        <time>2023-10-15T13:02:24.000Z</time>
      </trkpt>
      <trkpt lat="43.40749" lon="5.47867">
        <ele>595.6</ele>
        <time>2023-10-15T13:02:25.000Z</time>
      </trkpt>
      <trkpt lat="43.40749" lon="5.47867">
        <ele>595.6</ele>
        <time>2023-10-15T13:02:26.000Z</time>
      </trkpt>
      <trkpt lat="43.40749" lon="5.47868">
        <ele>595.4</ele>
        <time>2023-10-15T13:02:34.000Z</time>
      </trkpt>
      <trkpt lat="43.40749" lon="5.47868">
        <ele>595.4</ele>
        <time>2023-10-15T13:02:35.000Z</time>
      </trkpt>
      <trkpt lat="43.40749" lon="5.47868">
        <ele>595.2</ele>
        <time>2023-10-15T13:02:57.000Z</time>
      </trkpt>
      <trkpt lat="43.40749" lon="5.47868">
        <ele>595.2</ele>
        <time>2023-10-15T13:02:58.000Z</time>
      </trkpt>
      <trkpt lat="43.40749" lon="5.47868">
        <ele>595.2</ele>
        <time>2023-10-15T13:02:59.000Z</time>
      </trkpt>
      <trkpt lat="43.40749" lon="5.47868">
        <ele>595.3</ele>
        <time>2023-10-15T13:03:00.000Z</time>
      </trkpt>
      <trkpt lat="43.40749" lon="5.47868">
        <ele>595.4</ele>
        <time>2023-10-15T13:03:32.000Z</time>
      </trkpt>
      <trkpt lat="43.40749" lon="5.47868">
        <ele>595.4</ele>
        <time>2023-10-15T13:03:33.000Z</time>
      </trkpt>
      <trkpt lat="43.40749" lon="5.47868">
        <ele>595.4</ele>
        <time>2023-10-15T13:03:43.000Z</time>
      </trkpt>
      <trkpt lat="43.40747" lon="5.47868">
        <ele>595.3</ele>
        <time>2023-10-15T13:03:49.000Z</time>
      </trkpt>
      <trkpt lat="43.40747" lon="5.47868">
        <ele>595.3</ele>
        <time>2023-10-15T13:03:53.000Z</time>
      </trkpt>
      <trkpt lat="43.40748" lon="5.47867">
        <ele>595.3</ele>
        <time>2023-10-15T13:03:57.000Z</time>
      </trkpt>
      <trkpt lat="43.40748" lon="5.47867">
        <ele>595.2</ele>
        <time>2023-10-15T13:04:08.000Z</time>
      </trkpt>
      <trkpt lat="43.40748" lon="5.47868">
        <ele>595.2</ele>
        <time>2023-10-15T13:04:11.000Z</time>
      </trkpt>
      <trkpt lat="43.40748" lon="5.47867">
        <ele>595.2</ele>
        <time>2023-10-15T13:04:12.000Z</time>
      </trkpt>
      <trkpt lat="43.40748" lon="5.47867">
        <ele>595.2</ele>
        <time>2023-10-15T13:04:14.000Z</time>
      </trkpt>
      <trkpt lat="43.40749" lon="5.47867">
        <ele>595.2</ele>
        <time>2023-10-15T13:04:22.000Z</time>
      </trkpt>
      <trkpt lat="43.40751" lon="5.47879">
        <ele>595.2</ele>
        <time>2023-10-15T13:04:33.000Z</time>
      </trkpt>
      <trkpt lat="43.40755" lon="5.47891">
        <ele>595.1</ele>
        <time>2023-10-15T13:04:42.000Z</time>
      </trkpt>
      <trkpt lat="43.40758" lon="5.47903">
        <ele>595.1</ele>
        <time>2023-10-15T13:04:51.000Z</time>
      </trkpt>
      <trkpt lat="43.40762" lon="5.47915">
        <ele>595.1</ele>
        <time>2023-10-15T13:05:01.000Z</time>
      </trkpt>
      <trkpt lat="43.40766" lon="5.47927">
        <ele>595.1</ele>
        <time>2023-10-15T13:05:11.000Z</time>
      </trkpt>
      <trkpt lat="43.40769" lon="5.4794">
        <ele>595.2</ele>
        <time>2023-10-15T13:05:21.000Z</time>
      </trkpt>
      <trkpt lat="43.40772" lon="5.47952">
        <ele>595.3</ele>
        <time>2023-10-15T13:05:31.000Z</time>
      </trkpt>
      <trkpt lat="43.40776" lon="5.47965">
        <ele>595.4</ele>
        <time>2023-10-15T13:05:39.000Z</time>
      </trkpt>
      <trkpt lat="43.4078" lon="5.47977">
        <ele>595.5</ele>
        <time>2023-10-15T13:05:49.000Z</time>
      </trkpt>
      <trkpt lat="43.40785" lon="5.47989">
        <ele>595.8</ele>
        <time>2023-10-15T13:05:59.000Z</time>
      </trkpt>
      <trkpt lat="43.40787" lon="5.48002">
        <ele>596.1</ele>
        <time>2023-10-15T13:06:08.000Z</time>
      </trkpt>
      <trkpt lat="43.4079" lon="5.48015">
        <ele>596.6</ele>
        <time>2023-10-15T13:06:17.000Z</time>
      </trkpt>
      <trkpt lat="43.40791" lon="5.48028">
        <ele>597</ele>
        <time>2023-10-15T13:06:26.000Z</time>
      </trkpt>
      <trkpt lat="43.40792" lon="5.48041">
        <ele>597</ele>
        <time>2023-10-15T13:06:35.000Z</time>
      </trkpt>
      <trkpt lat="43.40793" lon="5.48055">
        <ele>597.1</ele>
        <time>2023-10-15T13:06:43.000Z</time>
      </trkpt>
      <trkpt lat="43.40795" lon="5.48067">
        <ele>597.1</ele>
        <time>2023-10-15T13:06:52.000Z</time>
      </trkpt>
      <trkpt lat="43.40796" lon="5.4808">
        <ele>597.1</ele>
        <time>2023-10-15T13:07:01.000Z</time>
      </trkpt>
      <trkpt lat="43.40795" lon="5.48093">
        <ele>597.1</ele>
        <time>2023-10-15T13:07:08.000Z</time>
      </trkpt>
      <trkpt lat="43.40795" lon="5.48107">
        <ele>597.2</ele>
        <time>2023-10-15T13:07:17.000Z</time>
      </trkpt>
      <trkpt lat="43.40795" lon="5.4812">
        <ele>597.1</ele>
        <time>2023-10-15T13:07:26.000Z</time>
      </trkpt>
      <trkpt lat="43.40795" lon="5.48133">
        <ele>597.1</ele>
        <time>2023-10-15T13:07:34.000Z</time>
      </trkpt>
      <trkpt lat="43.40796" lon="5.48146">
        <ele>597.2</ele>
        <time>2023-10-15T13:07:42.000Z</time>
      </trkpt>
      <trkpt lat="43.40795" lon="5.4816">
        <ele>597.2</ele>
        <time>2023-10-15T13:07:52.000Z</time>
      </trkpt>
      <trkpt lat="43.40795" lon="5.48173">
        <ele>597.3</ele>
        <time>2023-10-15T13:08:01.000Z</time>
      </trkpt>
      <trkpt lat="43.40794" lon="5.48187">
        <ele>597.4</ele>
        <time>2023-10-15T13:08:10.000Z</time>
      </trkpt>
      <trkpt lat="43.40794" lon="5.48187">
        <ele>597.4</ele>
        <time>2023-10-15T13:08:12.000Z</time>
      </trkpt>
      <trkpt lat="43.40794" lon="5.48187">
        <ele>597.4</ele>
        <time>2023-10-15T13:08:15.000Z</time>
      </trkpt>
      <trkpt lat="43.40795" lon="5.482">
        <ele>597.5</ele>
        <time>2023-10-15T13:08:23.000Z</time>
      </trkpt>
      <trkpt lat="43.40796" lon="5.48212">
        <ele>597.6</ele>
        <time>2023-10-15T13:08:31.000Z</time>
      </trkpt>
      <trkpt lat="43.40798" lon="5.48225">
        <ele>597.6</ele>
        <time>2023-10-15T13:08:39.000Z</time>
      </trkpt>
      <trkpt lat="43.40798" lon="5.48238">
        <ele>597.5</ele>
        <time>2023-10-15T13:08:47.000Z</time>
      </trkpt>
      <trkpt lat="43.40799" lon="5.48252">
        <ele>597.4</ele>
        <time>2023-10-15T13:08:57.000Z</time>
      </trkpt>
      <trkpt lat="43.40801" lon="5.48266">
        <ele>597.4</ele>
        <time>2023-10-15T13:09:07.000Z</time>
      </trkpt>
      <trkpt lat="43.40804" lon="5.48279">
        <ele>597.5</ele>
        <time>2023-10-15T13:09:17.000Z</time>
      </trkpt>
      <trkpt lat="43.40807" lon="5.48291">
        <ele>597.6</ele>
        <time>2023-10-15T13:09:24.000Z</time>
      </trkpt>
      <trkpt lat="43.40809" lon="5.48303">
        <ele>597.7</ele>
        <time>2023-10-15T13:09:32.000Z</time>
      </trkpt>
      <trkpt lat="43.40813" lon="5.48315">
        <ele>597.8</ele>
        <time>2023-10-15T13:09:41.000Z</time>
      </trkpt>
      <trkpt lat="43.40817" lon="5.48326">
        <ele>598</ele>
        <time>2023-10-15T13:09:50.000Z</time>
      </trkpt>
      <trkpt lat="43.4082" lon="5.48339">
        <ele>598.2</ele>
        <time>2023-10-15T13:09:59.000Z</time>
      </trkpt>
      <trkpt lat="43.40825" lon="5.4835">
        <ele>598.3</ele>
        <time>2023-10-15T13:10:07.000Z</time>
      </trkpt>
      <trkpt lat="43.40827" lon="5.48356">
        <ele>598.5</ele>
        <time>2023-10-15T13:10:15.000Z</time>
      </trkpt>
      <trkpt lat="43.40828" lon="5.48356">
        <ele>598.6</ele>
        <time>2023-10-15T13:10:18.000Z</time>
      </trkpt>
      <trkpt lat="43.40828" lon="5.48356">
        <ele>598.6</ele>
        <time>2023-10-15T13:10:20.000Z</time>
      </trkpt>
      <trkpt lat="43.40828" lon="5.48355">
        <ele>598.6</ele>
        <time>2023-10-15T13:10:22.000Z</time>
      </trkpt>
      <trkpt lat="43.40828" lon="5.48355">
        <ele>598.7</ele>
        <time>2023-10-15T13:10:23.000Z</time>
      </trkpt>
      <trkpt lat="43.40829" lon="5.48355">
        <ele>598.7</ele>
        <time>2023-10-15T13:10:24.000Z</time>
      </trkpt>
      <trkpt lat="43.40831" lon="5.48354">
        <ele>598.8</ele>
        <time>2023-10-15T13:10:29.000Z</time>
      </trkpt>
      <trkpt lat="43.40831" lon="5.48354">
        <ele>598.8</ele>
        <time>2023-10-15T13:10:30.000Z</time>
      </trkpt>
      <trkpt lat="43.40833" lon="5.48352">
        <ele>598.8</ele>
        <time>2023-10-15T13:10:37.000Z</time>
      </trkpt>
      <trkpt lat="43.40833" lon="5.48352">
        <ele>598.8</ele>
        <time>2023-10-15T13:10:38.000Z</time>
      </trkpt>
      <trkpt lat="43.40833" lon="5.48351">
        <ele>598.9</ele>
        <time>2023-10-15T13:10:40.000Z</time>
      </trkpt>
      <trkpt lat="43.40833" lon="5.48352">
        <ele>598.9</ele>
        <time>2023-10-15T13:10:44.000Z</time>
      </trkpt>
      <trkpt lat="43.40834" lon="5.48353">
        <ele>598.9</ele>
        <time>2023-10-15T13:10:46.000Z</time>
      </trkpt>
      <trkpt lat="43.40834" lon="5.48353">
        <ele>598.9</ele>
        <time>2023-10-15T13:10:47.000Z</time>
      </trkpt>
      <trkpt lat="43.40834" lon="5.48353">
        <ele>599</ele>
        <time>2023-10-15T13:10:51.000Z</time>
      </trkpt>
      <trkpt lat="43.40834" lon="5.48353">
        <ele>599.1</ele>
        <time>2023-10-15T13:11:19.000Z</time>
      </trkpt>
      <trkpt lat="43.40834" lon="5.48353">
        <ele>599.1</ele>
        <time>2023-10-15T13:11:20.000Z</time>
      </trkpt>
      <trkpt lat="43.40833" lon="5.48353">
        <ele>599.1</ele>
        <time>2023-10-15T13:11:27.000Z</time>
      </trkpt>
      <trkpt lat="43.40833" lon="5.48353">
        <ele>599.1</ele>
        <time>2023-10-15T13:11:36.000Z</time>
      </trkpt>
      <trkpt lat="43.40833" lon="5.48353">
        <ele>599.2</ele>
        <time>2023-10-15T13:11:44.000Z</time>
      </trkpt>
      <trkpt lat="43.40841" lon="5.48355">
        <ele>599.1</ele>
        <time>2023-10-15T13:11:55.000Z</time>
      </trkpt>
      <trkpt lat="43.40841" lon="5.48355">
        <ele>599.1</ele>
        <time>2023-10-15T13:11:56.000Z</time>
      </trkpt>
      <trkpt lat="43.40845" lon="5.48366">
        <ele>598.9</ele>
        <time>2023-10-15T13:12:17.000Z</time>
      </trkpt>
      <trkpt lat="43.40847" lon="5.48377">
        <ele>598.2</ele>
        <time>2023-10-15T13:12:36.000Z</time>
      </trkpt>
      <trkpt lat="43.40847" lon="5.48377">
        <ele>597.8</ele>
        <time>2023-10-15T13:12:41.000Z</time>
      </trkpt>
      <trkpt lat="43.40847" lon="5.48377">
        <ele>597.8</ele>
        <time>2023-10-15T13:12:42.000Z</time>
      </trkpt>
      <trkpt lat="43.40847" lon="5.48377">
        <ele>597.4</ele>
        <time>2023-10-15T13:12:51.000Z</time>
      </trkpt>
      <trkpt lat="43.40847" lon="5.48377">
        <ele>597.3</ele>
        <time>2023-10-15T13:12:52.000Z</time>
      </trkpt>
      <trkpt lat="43.40847" lon="5.48377">
        <ele>597.1</ele>
        <time>2023-10-15T13:12:58.000Z</time>
      </trkpt>
      <trkpt lat="43.40848" lon="5.48377">
        <ele>596.8</ele>
        <time>2023-10-15T13:13:07.000Z</time>
      </trkpt>
      <trkpt lat="43.40848" lon="5.48377">
        <ele>596.7</ele>
        <time>2023-10-15T13:13:11.000Z</time>
      </trkpt>
      <trkpt lat="43.40847" lon="5.48391">
        <ele>596.3</ele>
        <time>2023-10-15T13:13:29.000Z</time>
      </trkpt>
      <trkpt lat="43.4085" lon="5.48403">
        <ele>595.6</ele>
        <time>2023-10-15T13:13:38.000Z</time>
      </trkpt>
      <trkpt lat="43.40851" lon="5.48417">
        <ele>593.8</ele>
        <time>2023-10-15T13:13:48.000Z</time>
      </trkpt>
      <trkpt lat="43.40855" lon="5.48428">
        <ele>591.5</ele>
        <time>2023-10-15T13:13:57.000Z</time>
      </trkpt>
      <trkpt lat="43.40856" lon="5.48441">
        <ele>590.1</ele>
        <time>2023-10-15T13:14:03.000Z</time>
      </trkpt>
      <trkpt lat="43.4086" lon="5.48453">
        <ele>588.5</ele>
        <time>2023-10-15T13:14:11.000Z</time>
      </trkpt>
      <trkpt lat="43.40863" lon="5.48465">
        <ele>587.1</ele>
        <time>2023-10-15T13:14:19.000Z</time>
      </trkpt>
      <trkpt lat="43.40866" lon="5.48477">
        <ele>585.4</ele>
        <time>2023-10-15T13:14:29.000Z</time>
      </trkpt>
      <trkpt lat="43.40872" lon="5.48488">
        <ele>584.3</ele>
        <time>2023-10-15T13:14:38.000Z</time>
      </trkpt>
      <trkpt lat="43.40877" lon="5.48499">
        <ele>583</ele>
        <time>2023-10-15T13:14:47.000Z</time>
      </trkpt>
      <trkpt lat="43.40882" lon="5.4851">
        <ele>581.7</ele>
        <time>2023-10-15T13:14:54.000Z</time>
      </trkpt>
      <trkpt lat="43.40888" lon="5.48522">
        <ele>580.3</ele>
        <time>2023-10-15T13:15:03.000Z</time>
      </trkpt>
      <trkpt lat="43.40893" lon="5.48532">
        <ele>579.4</ele>
        <time>2023-10-15T13:15:11.000Z</time>
      </trkpt>
      <trkpt lat="43.40898" lon="5.48543">
        <ele>578.8</ele>
        <time>2023-10-15T13:15:20.000Z</time>
      </trkpt>
      <trkpt lat="43.40903" lon="5.48554">
        <ele>578.2</ele>
        <time>2023-10-15T13:15:28.000Z</time>
      </trkpt>
      <trkpt lat="43.40905" lon="5.48566">
        <ele>577.8</ele>
        <time>2023-10-15T13:15:37.000Z</time>
      </trkpt>
      <trkpt lat="43.40909" lon="5.4858">
        <ele>577.3</ele>
        <time>2023-10-15T13:15:45.000Z</time>
      </trkpt>
      <trkpt lat="43.40911" lon="5.48594">
        <ele>576.8</ele>
        <time>2023-10-15T13:15:55.000Z</time>
      </trkpt>
      <trkpt lat="43.40914" lon="5.48606">
        <ele>576.2</ele>
        <time>2023-10-15T13:16:03.000Z</time>
      </trkpt>
      <trkpt lat="43.40916" lon="5.48619">
        <ele>575.3</ele>
        <time>2023-10-15T13:16:13.000Z</time>
      </trkpt>
      <trkpt lat="43.40922" lon="5.48629">
        <ele>574.7</ele>
        <time>2023-10-15T13:16:20.000Z</time>
      </trkpt>
      <trkpt lat="43.40928" lon="5.48638">
        <ele>573.9</ele>
        <time>2023-10-15T13:16:27.000Z</time>
      </trkpt>
      <trkpt lat="43.40931" lon="5.4865">
        <ele>572.9</ele>
        <time>2023-10-15T13:16:35.000Z</time>
      </trkpt>
      <trkpt lat="43.40933" lon="5.48663">
        <ele>571.6</ele>
        <time>2023-10-15T13:16:46.000Z</time>
      </trkpt>
      <trkpt lat="43.40933" lon="5.48676">
        <ele>570.4</ele>
        <time>2023-10-15T13:16:55.000Z</time>
      </trkpt>
      <trkpt lat="43.40934" lon="5.48689">
        <ele>569</ele>
        <time>2023-10-15T13:17:04.000Z</time>
      </trkpt>
      <trkpt lat="43.40937" lon="5.48701">
        <ele>568</ele>
        <time>2023-10-15T13:17:11.000Z</time>
      </trkpt>
      <trkpt lat="43.40943" lon="5.48711">
        <ele>567</ele>
        <time>2023-10-15T13:17:18.000Z</time>
      </trkpt>
      <trkpt lat="43.40948" lon="5.48722">
        <ele>565.7</ele>
        <time>2023-10-15T13:17:27.000Z</time>
      </trkpt>
      <trkpt lat="43.40953" lon="5.48734">
        <ele>564.6</ele>
        <time>2023-10-15T13:17:36.000Z</time>
      </trkpt>
      <trkpt lat="43.40956" lon="5.48746">
        <ele>563.7</ele>
        <time>2023-10-15T13:17:44.000Z</time>
      </trkpt>
      <trkpt lat="43.40957" lon="5.48759">
        <ele>562.9</ele>
        <time>2023-10-15T13:17:52.000Z</time>
      </trkpt>
      <trkpt lat="43.40959" lon="5.48773">
        <ele>562.3</ele>
        <time>2023-10-15T13:18:00.000Z</time>
      </trkpt>
      <trkpt lat="43.40962" lon="5.48785">
        <ele>561.4</ele>
        <time>2023-10-15T13:18:08.000Z</time>
      </trkpt>
      <trkpt lat="43.40964" lon="5.48797">
        <ele>560.5</ele>
        <time>2023-10-15T13:18:17.000Z</time>
      </trkpt>
      <trkpt lat="43.40967" lon="5.4881">
        <ele>559.4</ele>
        <time>2023-10-15T13:18:26.000Z</time>
      </trkpt>
      <trkpt lat="43.4097" lon="5.48814">
        <ele>558.4</ele>
        <time>2023-10-15T13:18:34.000Z</time>
      </trkpt>
      <trkpt lat="43.40971" lon="5.48815">
        <ele>558.3</ele>
        <time>2023-10-15T13:18:35.000Z</time>
      </trkpt>
      <trkpt lat="43.40972" lon="5.48828">
        <ele>557.8</ele>
        <time>2023-10-15T13:18:50.000Z</time>
      </trkpt>
      <trkpt lat="43.40972" lon="5.48835">
        <ele>557.9</ele>
        <time>2023-10-15T13:19:05.000Z</time>
      </trkpt>
      <trkpt lat="43.40972" lon="5.48835">
        <ele>557.9</ele>
        <time>2023-10-15T13:19:06.000Z</time>
      </trkpt>
      <trkpt lat="43.40972" lon="5.48835">
        <ele>557.9</ele>
        <time>2023-10-15T13:19:08.000Z</time>
      </trkpt>
      <trkpt lat="43.40972" lon="5.48835">
        <ele>558</ele>
        <time>2023-10-15T13:19:13.000Z</time>
      </trkpt>
      <trkpt lat="43.40974" lon="5.48847">
        <ele>558</ele>
        <time>2023-10-15T13:19:27.000Z</time>
      </trkpt>
      <trkpt lat="43.40979" lon="5.48858">
        <ele>557.7</ele>
        <time>2023-10-15T13:19:40.000Z</time>
      </trkpt>
      <trkpt lat="43.40984" lon="5.4887">
        <ele>557</ele>
        <time>2023-10-15T13:19:54.000Z</time>
      </trkpt>
      <trkpt lat="43.40987" lon="5.48882">
        <ele>556.1</ele>
        <time>2023-10-15T13:20:03.000Z</time>
      </trkpt>
      <trkpt lat="43.4099" lon="5.48895">
        <ele>555</ele>
        <time>2023-10-15T13:20:12.000Z</time>
      </trkpt>
      <trkpt lat="43.40992" lon="5.48907">
        <ele>554</ele>
        <time>2023-10-15T13:20:23.000Z</time>
      </trkpt>
      <trkpt lat="43.40992" lon="5.48921">
        <ele>553.5</ele>
        <time>2023-10-15T13:20:30.000Z</time>
      </trkpt>
      <trkpt lat="43.40995" lon="5.48933">
        <ele>552.9</ele>
        <time>2023-10-15T13:20:39.000Z</time>
      </trkpt>
      <trkpt lat="43.40999" lon="5.48945">
        <ele>552.1</ele>
        <time>2023-10-15T13:20:46.000Z</time>
      </trkpt>
      <trkpt lat="43.41006" lon="5.48953">
        <ele>551.5</ele>
        <time>2023-10-15T13:20:52.000Z</time>
      </trkpt>
      <trkpt lat="43.41013" lon="5.48963">
        <ele>550.6</ele>
        <time>2023-10-15T13:20:59.000Z</time>
      </trkpt>
      <trkpt lat="43.41019" lon="5.48972">
        <ele>549.3</ele>
        <time>2023-10-15T13:21:09.000Z</time>
      </trkpt>
      <trkpt lat="43.41023" lon="5.48983">
        <ele>548.5</ele>
        <time>2023-10-15T13:21:20.000Z</time>
      </trkpt>
      <trkpt lat="43.41029" lon="5.48993">
        <ele>548</ele>
        <time>2023-10-15T13:21:28.000Z</time>
      </trkpt>
      <trkpt lat="43.41033" lon="5.49004">
        <ele>547.4</ele>
        <time>2023-10-15T13:21:35.000Z</time>
      </trkpt>
      <trkpt lat="43.41034" lon="5.49018">
        <ele>546.7</ele>
        <time>2023-10-15T13:21:44.000Z</time>
      </trkpt>
      <trkpt lat="43.41036" lon="5.4903">
        <ele>546</ele>
        <time>2023-10-15T13:21:52.000Z</time>
      </trkpt>
      <trkpt lat="43.4104" lon="5.49042">
        <ele>545.6</ele>
        <time>2023-10-15T13:21:59.000Z</time>
      </trkpt>
      <trkpt lat="43.41046" lon="5.49052">
        <ele>545</ele>
        <time>2023-10-15T13:22:10.000Z</time>
      </trkpt>
      <trkpt lat="43.41052" lon="5.49063">
        <ele>544.1</ele>
        <time>2023-10-15T13:22:20.000Z</time>
      </trkpt>
      <trkpt lat="43.41058" lon="5.49071">
        <ele>543.3</ele>
        <time>2023-10-15T13:22:31.000Z</time>
      </trkpt>
      <trkpt lat="43.41066" lon="5.49078">
        <ele>542.9</ele>
        <time>2023-10-15T13:22:38.000Z</time>
      </trkpt>
      <trkpt lat="43.41073" lon="5.49089">
        <ele>542.4</ele>
        <time>2023-10-15T13:22:47.000Z</time>
      </trkpt>
      <trkpt lat="43.4108" lon="5.49098">
        <ele>542</ele>
        <time>2023-10-15T13:22:54.000Z</time>
      </trkpt>
      <trkpt lat="43.41085" lon="5.49109">
        <ele>541.6</ele>
        <time>2023-10-15T13:23:02.000Z</time>
      </trkpt>
      <trkpt lat="43.41091" lon="5.49119">
        <ele>540.9</ele>
        <time>2023-10-15T13:23:11.000Z</time>
      </trkpt>
      <trkpt lat="43.41099" lon="5.49125">
        <ele>540.3</ele>
        <time>2023-10-15T13:23:23.000Z</time>
      </trkpt>
      <trkpt lat="43.41102" lon="5.49137">
        <ele>539.5</ele>
        <time>2023-10-15T13:23:34.000Z</time>
      </trkpt>
      <trkpt lat="43.41108" lon="5.49145">
        <ele>538.9</ele>
        <time>2023-10-15T13:23:44.000Z</time>
      </trkpt>
      <trkpt lat="43.41108" lon="5.49145">
        <ele>538.8</ele>
        <time>2023-10-15T13:23:46.000Z</time>
      </trkpt>
      <trkpt lat="43.41104" lon="5.49143">
        <ele>538.1</ele>
        <time>2023-10-15T13:24:10.000Z</time>
      </trkpt>
      <trkpt lat="43.41104" lon="5.49142">
        <ele>538.1</ele>
        <time>2023-10-15T13:24:11.000Z</time>
      </trkpt>
      <trkpt lat="43.41107" lon="5.4914">
        <ele>538</ele>
        <time>2023-10-15T13:24:21.000Z</time>
      </trkpt>
      <trkpt lat="43.41107" lon="5.4914">
        <ele>537.9</ele>
        <time>2023-10-15T13:24:24.000Z</time>
      </trkpt>
      <trkpt lat="43.41108" lon="5.49136">
        <ele>537.9</ele>
        <time>2023-10-15T13:24:41.000Z</time>
      </trkpt>
      <trkpt lat="43.41108" lon="5.49135">
        <ele>537.9</ele>
        <time>2023-10-15T13:24:42.000Z</time>
      </trkpt>
      <trkpt lat="43.41108" lon="5.49134">
        <ele>537.9</ele>
        <time>2023-10-15T13:24:44.000Z</time>
      </trkpt>
      <trkpt lat="43.41108" lon="5.49135">
        <ele>537.9</ele>
        <time>2023-10-15T13:24:45.000Z</time>
      </trkpt>
      <trkpt lat="43.41109" lon="5.49136">
        <ele>537.8</ele>
        <time>2023-10-15T13:24:54.000Z</time>
      </trkpt>
      <trkpt lat="43.4111" lon="5.49136">
        <ele>537.8</ele>
        <time>2023-10-15T13:24:56.000Z</time>
      </trkpt>
      <trkpt lat="43.4111" lon="5.49139">
        <ele>537.8</ele>
        <time>2023-10-15T13:25:08.000Z</time>
      </trkpt>
      <trkpt lat="43.4111" lon="5.49139">
        <ele>537.8</ele>
        <time>2023-10-15T13:25:09.000Z</time>
      </trkpt>
      <trkpt lat="43.41109" lon="5.49141">
        <ele>537.8</ele>
        <time>2023-10-15T13:25:16.000Z</time>
      </trkpt>
      <trkpt lat="43.41108" lon="5.49141">
        <ele>537.8</ele>
        <time>2023-10-15T13:25:17.000Z</time>
      </trkpt>
      <trkpt lat="43.41112" lon="5.49139">
        <ele>537.8</ele>
        <time>2023-10-15T13:25:45.000Z</time>
      </trkpt>
      <trkpt lat="43.41112" lon="5.49138">
        <ele>537.8</ele>
        <time>2023-10-15T13:25:46.000Z</time>
      </trkpt>
      <trkpt lat="43.41116" lon="5.49142">
        <ele>537.9</ele>
        <time>2023-10-15T13:26:05.000Z</time>
      </trkpt>
      <trkpt lat="43.41116" lon="5.49142">
        <ele>537.9</ele>
        <time>2023-10-15T13:26:12.000Z</time>
      </trkpt>
      <trkpt lat="43.41114" lon="5.4914">
        <ele>537.9</ele>
        <time>2023-10-15T13:26:20.000Z</time>
      </trkpt>
      <trkpt lat="43.41113" lon="5.4914">
        <ele>538</ele>
        <time>2023-10-15T13:26:21.000Z</time>
      </trkpt>
      <trkpt lat="43.41115" lon="5.49139">
        <ele>537.9</ele>
        <time>2023-10-15T13:26:46.000Z</time>
      </trkpt>
      <trkpt lat="43.41115" lon="5.49139">
        <ele>537.9</ele>
        <time>2023-10-15T13:26:47.000Z</time>
      </trkpt>
      <trkpt lat="43.41113" lon="5.49141">
        <ele>537.9</ele>
        <time>2023-10-15T13:26:57.000Z</time>
      </trkpt>
      <trkpt lat="43.41113" lon="5.49141">
        <ele>537.9</ele>
        <time>2023-10-15T13:26:58.000Z</time>
      </trkpt>
      <trkpt lat="43.41108" lon="5.49134">
        <ele>537.8</ele>
        <time>2023-10-15T13:27:15.000Z</time>
      </trkpt>
      <trkpt lat="43.41107" lon="5.49134">
        <ele>537.8</ele>
        <time>2023-10-15T13:27:16.000Z</time>
      </trkpt>
      <trkpt lat="43.41109" lon="5.49148">
        <ele>537.7</ele>
        <time>2023-10-15T13:27:34.000Z</time>
      </trkpt>
      <trkpt lat="43.41113" lon="5.49159">
        <ele>537.5</ele>
        <time>2023-10-15T13:27:42.000Z</time>
      </trkpt>
      <trkpt lat="43.41119" lon="5.4917">
        <ele>537.3</ele>
        <time>2023-10-15T13:27:51.000Z</time>
      </trkpt>
      <trkpt lat="43.41128" lon="5.49165">
        <ele>536.9</ele>
        <time>2023-10-15T13:27:58.000Z</time>
      </trkpt>
      <trkpt lat="43.4113" lon="5.49152">
        <ele>536.2</ele>
        <time>2023-10-15T13:28:05.000Z</time>
      </trkpt>
      <trkpt lat="43.41128" lon="5.49139">
        <ele>535.2</ele>
        <time>2023-10-15T13:28:14.000Z</time>
      </trkpt>
      <trkpt lat="43.41127" lon="5.49134">
        <ele>534.3</ele>
        <time>2023-10-15T13:28:26.000Z</time>
      </trkpt>
      <trkpt lat="43.41127" lon="5.49134">
        <ele>534.1</ele>
        <time>2023-10-15T13:28:28.000Z</time>
      </trkpt>
      <trkpt lat="43.4113" lon="5.49136">
        <ele>534.2</ele>
        <time>2023-10-15T13:28:39.000Z</time>
      </trkpt>
      <trkpt lat="43.4113" lon="5.49136">
        <ele>533.9</ele>
        <time>2023-10-15T13:28:56.000Z</time>
      </trkpt>
      <trkpt lat="43.4113" lon="5.49136">
        <ele>533.9</ele>
        <time>2023-10-15T13:28:57.000Z</time>
      </trkpt>
      <trkpt lat="43.4113" lon="5.49135">
        <ele>533.9</ele>
        <time>2023-10-15T13:29:06.000Z</time>
      </trkpt>
      <trkpt lat="43.4113" lon="5.49135">
        <ele>533.9</ele>
        <time>2023-10-15T13:29:06.000Z</time>
      </trkpt>
    </trkseg>
  </trk>
</gpx>